<?xml version="1.0" encoding="UTF-8" standalone="no" ?>
<gpx xmlns="http://www.topografix.com/GPX/1/1" xmlns:xsi="http://www.w3.org/2001/XMLSchema-instance" xsi:schemaLocation="http://www.topografix.com/GPX/1/1 http://www.topografix.com/GPX/1/1/gpx.xsd" version="1.1" creator="VisuGPX - https://www.visugpx.com">
  <metadata>
    <name>Randonnée Vexaincourt</name>
    <desc><![CDATA[ 
Départ de Vexaincourt- Rocher des Hauts Champs- lac de la Maix- Croix Brignon %u2013 fontaine Colas
]]></desc>
  </metadata>
  <trk>
    <name><![CDATA[2016-07-31 15:33:41]]></name>
    <trkseg>
      <trkpt lat="48.49162" lon="7.04549">
        <ele>83.27</ele>
        <time>2016-07-31T06:28:05Z</time>
      </trkpt>
      <trkpt lat="48.49185" lon="7.04539">
        <ele>83.27</ele>
        <time>2016-07-31T06:28:06Z</time>
      </trkpt>
      <trkpt lat="48.49293" lon="7.04493">
        <ele>86.34</ele>
        <time>2016-07-31T06:28:29Z</time>
      </trkpt>
      <trkpt lat="48.4928" lon="7.04503">
        <ele>89.42</ele>
        <time>2016-07-31T06:28:50Z</time>
      </trkpt>
      <trkpt lat="48.49276" lon="7.04507">
        <ele>92.54</ele>
        <time>2016-07-31T06:29:10Z</time>
      </trkpt>
      <trkpt lat="48.49276" lon="7.04507">
        <ele>95.57</ele>
        <time>2016-07-31T06:29:30Z</time>
      </trkpt>
      <trkpt lat="48.49276" lon="7.04506">
        <ele>380.26</ele>
        <time>2016-07-31T06:29:48Z</time>
      </trkpt>
      <trkpt lat="48.49277" lon="7.04506">
        <ele>380.26</ele>
        <time>2016-07-31T06:29:49Z</time>
      </trkpt>
      <trkpt lat="48.49277" lon="7.04506">
        <ele>366.34</ele>
        <time>2016-07-31T06:29:52Z</time>
      </trkpt>
      <trkpt lat="48.49277" lon="7.04506">
        <ele>366.34</ele>
        <time>2016-07-31T06:29:53Z</time>
      </trkpt>
      <trkpt lat="48.4928" lon="7.04503">
        <ele>365.79</ele>
        <time>2016-07-31T06:30:09Z</time>
      </trkpt>
      <trkpt lat="48.4928" lon="7.04503">
        <ele>365.79</ele>
        <time>2016-07-31T06:30:29Z</time>
      </trkpt>
      <trkpt lat="48.49281" lon="7.04503">
        <ele>365.8</ele>
        <time>2016-07-31T06:30:53Z</time>
      </trkpt>
      <trkpt lat="48.49282" lon="7.04503">
        <ele>365.47</ele>
        <time>2016-07-31T06:31:06Z</time>
      </trkpt>
      <trkpt lat="48.49282" lon="7.04504">
        <ele>360.04</ele>
        <time>2016-07-31T06:31:24Z</time>
      </trkpt>
      <trkpt lat="48.49282" lon="7.04505">
        <ele>368.82</ele>
        <time>2016-07-31T06:31:25Z</time>
      </trkpt>
      <trkpt lat="48.49282" lon="7.04504">
        <ele>367.07</ele>
        <time>2016-07-31T06:31:26Z</time>
      </trkpt>
      <trkpt lat="48.49283" lon="7.04504">
        <ele>365.92</ele>
        <time>2016-07-31T06:31:28Z</time>
      </trkpt>
      <trkpt lat="48.49284" lon="7.04505">
        <ele>365.95</ele>
        <time>2016-07-31T06:31:41Z</time>
      </trkpt>
      <trkpt lat="48.49284" lon="7.04505">
        <ele>365.71</ele>
        <time>2016-07-31T06:32:00Z</time>
      </trkpt>
      <trkpt lat="48.49287" lon="7.04509">
        <ele>365.65</ele>
        <time>2016-07-31T06:32:19Z</time>
      </trkpt>
      <trkpt lat="48.49289" lon="7.0451">
        <ele>365.71</ele>
        <time>2016-07-31T06:32:30Z</time>
      </trkpt>
      <trkpt lat="48.4928" lon="7.04507">
        <ele>366.48</ele>
        <time>2016-07-31T06:32:44Z</time>
      </trkpt>
      <trkpt lat="48.49283" lon="7.04509">
        <ele>366.35</ele>
        <time>2016-07-31T06:32:51Z</time>
      </trkpt>
      <trkpt lat="48.49301" lon="7.04514">
        <ele>366.41</ele>
        <time>2016-07-31T06:33:05Z</time>
      </trkpt>
      <trkpt lat="48.49316" lon="7.04524">
        <ele>365.44</ele>
        <time>2016-07-31T06:33:20Z</time>
      </trkpt>
      <trkpt lat="48.49329" lon="7.04539">
        <ele>366</ele>
        <time>2016-07-31T06:33:35Z</time>
      </trkpt>
      <trkpt lat="48.4934" lon="7.0456">
        <ele>366.12</ele>
        <time>2016-07-31T06:33:52Z</time>
      </trkpt>
      <trkpt lat="48.49345" lon="7.04568">
        <ele>366.61</ele>
        <time>2016-07-31T06:33:59Z</time>
      </trkpt>
      <trkpt lat="48.49352" lon="7.04585">
        <ele>367.93</ele>
        <time>2016-07-31T06:34:11Z</time>
      </trkpt>
      <trkpt lat="48.49355" lon="7.0459">
        <ele>368.09</ele>
        <time>2016-07-31T06:34:15Z</time>
      </trkpt>
      <trkpt lat="48.49361" lon="7.04598">
        <ele>368.69</ele>
        <time>2016-07-31T06:34:22Z</time>
      </trkpt>
      <trkpt lat="48.49365" lon="7.04605">
        <ele>369.06</ele>
        <time>2016-07-31T06:34:31Z</time>
      </trkpt>
      <trkpt lat="48.49366" lon="7.04608">
        <ele>368.72</ele>
        <time>2016-07-31T06:34:33Z</time>
      </trkpt>
      <trkpt lat="48.49368" lon="7.04615">
        <ele>369.84</ele>
        <time>2016-07-31T06:34:37Z</time>
      </trkpt>
      <trkpt lat="48.49373" lon="7.04627">
        <ele>370.72</ele>
        <time>2016-07-31T06:34:48Z</time>
      </trkpt>
      <trkpt lat="48.49372" lon="7.04632">
        <ele>370.8</ele>
        <time>2016-07-31T06:34:51Z</time>
      </trkpt>
      <trkpt lat="48.49369" lon="7.04646">
        <ele>371.99</ele>
        <time>2016-07-31T06:34:59Z</time>
      </trkpt>
      <trkpt lat="48.49369" lon="7.04659">
        <ele>372.96</ele>
        <time>2016-07-31T06:35:08Z</time>
      </trkpt>
      <trkpt lat="48.49367" lon="7.04668">
        <ele>373.87</ele>
        <time>2016-07-31T06:35:15Z</time>
      </trkpt>
      <trkpt lat="48.49361" lon="7.04692">
        <ele>375.99</ele>
        <time>2016-07-31T06:35:32Z</time>
      </trkpt>
      <trkpt lat="48.49361" lon="7.04693">
        <ele>375.8</ele>
        <time>2016-07-31T06:35:33Z</time>
      </trkpt>
      <trkpt lat="48.4936" lon="7.04717">
        <ele>377.05</ele>
        <time>2016-07-31T06:35:47Z</time>
      </trkpt>
      <trkpt lat="48.4936" lon="7.04723">
        <ele>377.11</ele>
        <time>2016-07-31T06:35:51Z</time>
      </trkpt>
      <trkpt lat="48.4936" lon="7.04727">
        <ele>377.25</ele>
        <time>2016-07-31T06:35:53Z</time>
      </trkpt>
      <trkpt lat="48.49357" lon="7.04747">
        <ele>378.11</ele>
        <time>2016-07-31T06:36:07Z</time>
      </trkpt>
      <trkpt lat="48.49356" lon="7.04755">
        <ele>379.1</ele>
        <time>2016-07-31T06:36:17Z</time>
      </trkpt>
      <trkpt lat="48.49355" lon="7.04761">
        <ele>379.04</ele>
        <time>2016-07-31T06:36:21Z</time>
      </trkpt>
      <trkpt lat="48.49356" lon="7.04772">
        <ele>379.41</ele>
        <time>2016-07-31T06:36:29Z</time>
      </trkpt>
      <trkpt lat="48.49356" lon="7.04779">
        <ele>380</ele>
        <time>2016-07-31T06:36:33Z</time>
      </trkpt>
      <trkpt lat="48.49355" lon="7.04787">
        <ele>380.18</ele>
        <time>2016-07-31T06:36:38Z</time>
      </trkpt>
      <trkpt lat="48.49352" lon="7.04809">
        <ele>381.24</ele>
        <time>2016-07-31T06:36:52Z</time>
      </trkpt>
      <trkpt lat="48.4935" lon="7.04824">
        <ele>381.4</ele>
        <time>2016-07-31T06:37:03Z</time>
      </trkpt>
      <trkpt lat="48.49351" lon="7.04832">
        <ele>381.25</ele>
        <time>2016-07-31T06:37:07Z</time>
      </trkpt>
      <trkpt lat="48.49352" lon="7.04839">
        <ele>382.21</ele>
        <time>2016-07-31T06:37:11Z</time>
      </trkpt>
      <trkpt lat="48.49351" lon="7.04855">
        <ele>383.14</ele>
        <time>2016-07-31T06:37:24Z</time>
      </trkpt>
      <trkpt lat="48.4935" lon="7.04877">
        <ele>383.77</ele>
        <time>2016-07-31T06:37:40Z</time>
      </trkpt>
      <trkpt lat="48.49352" lon="7.04892">
        <ele>385.2</ele>
        <time>2016-07-31T06:37:54Z</time>
      </trkpt>
      <trkpt lat="48.49356" lon="7.0492">
        <ele>387.05</ele>
        <time>2016-07-31T06:38:18Z</time>
      </trkpt>
      <trkpt lat="48.49356" lon="7.04948">
        <ele>389.94</ele>
        <time>2016-07-31T06:38:42Z</time>
      </trkpt>
      <trkpt lat="48.49356" lon="7.04958">
        <ele>391.24</ele>
        <time>2016-07-31T06:38:49Z</time>
      </trkpt>
      <trkpt lat="48.49353" lon="7.04992">
        <ele>394.47</ele>
        <time>2016-07-31T06:39:10Z</time>
      </trkpt>
      <trkpt lat="48.49352" lon="7.05023">
        <ele>396.97</ele>
        <time>2016-07-31T06:39:31Z</time>
      </trkpt>
      <trkpt lat="48.49352" lon="7.05052">
        <ele>399.02</ele>
        <time>2016-07-31T06:39:54Z</time>
      </trkpt>
      <trkpt lat="48.49349" lon="7.05077">
        <ele>402.41</ele>
        <time>2016-07-31T06:40:12Z</time>
      </trkpt>
      <trkpt lat="48.49346" lon="7.05086">
        <ele>403.13</ele>
        <time>2016-07-31T06:40:19Z</time>
      </trkpt>
      <trkpt lat="48.4934" lon="7.05108">
        <ele>405.83</ele>
        <time>2016-07-31T06:40:37Z</time>
      </trkpt>
      <trkpt lat="48.49337" lon="7.05127">
        <ele>407.38</ele>
        <time>2016-07-31T06:40:56Z</time>
      </trkpt>
      <trkpt lat="48.49333" lon="7.0514">
        <ele>411.24</ele>
        <time>2016-07-31T06:41:13Z</time>
      </trkpt>
      <trkpt lat="48.49325" lon="7.05158">
        <ele>413.54</ele>
        <time>2016-07-31T06:41:34Z</time>
      </trkpt>
      <trkpt lat="48.49318" lon="7.05169">
        <ele>416.6</ele>
        <time>2016-07-31T06:41:48Z</time>
      </trkpt>
      <trkpt lat="48.49313" lon="7.05192">
        <ele>418.59</ele>
        <time>2016-07-31T06:42:09Z</time>
      </trkpt>
      <trkpt lat="48.49308" lon="7.05216">
        <ele>421.91</ele>
        <time>2016-07-31T06:42:29Z</time>
      </trkpt>
      <trkpt lat="48.49303" lon="7.05246">
        <ele>423.8</ele>
        <time>2016-07-31T06:42:53Z</time>
      </trkpt>
      <trkpt lat="48.49299" lon="7.05265">
        <ele>425.23</ele>
        <time>2016-07-31T06:43:09Z</time>
      </trkpt>
      <trkpt lat="48.49298" lon="7.0529">
        <ele>428.58</ele>
        <time>2016-07-31T06:43:27Z</time>
      </trkpt>
      <trkpt lat="48.49301" lon="7.05311">
        <ele>429.39</ele>
        <time>2016-07-31T06:43:48Z</time>
      </trkpt>
      <trkpt lat="48.49302" lon="7.05323">
        <ele>432.51</ele>
        <time>2016-07-31T06:43:59Z</time>
      </trkpt>
      <trkpt lat="48.49306" lon="7.05339">
        <ele>435.52</ele>
        <time>2016-07-31T06:44:17Z</time>
      </trkpt>
      <trkpt lat="48.49312" lon="7.05356">
        <ele>438.6</ele>
        <time>2016-07-31T06:44:35Z</time>
      </trkpt>
      <trkpt lat="48.49319" lon="7.05372">
        <ele>440.15</ele>
        <time>2016-07-31T06:44:52Z</time>
      </trkpt>
      <trkpt lat="48.49327" lon="7.05398">
        <ele>442.37</ele>
        <time>2016-07-31T06:45:14Z</time>
      </trkpt>
      <trkpt lat="48.49332" lon="7.05423">
        <ele>443.66</ele>
        <time>2016-07-31T06:45:35Z</time>
      </trkpt>
      <trkpt lat="48.49334" lon="7.05451">
        <ele>445.05</ele>
        <time>2016-07-31T06:45:57Z</time>
      </trkpt>
      <trkpt lat="48.4933" lon="7.05484">
        <ele>447.84</ele>
        <time>2016-07-31T06:46:22Z</time>
      </trkpt>
      <trkpt lat="48.49325" lon="7.05503">
        <ele>450.98</ele>
        <time>2016-07-31T06:46:39Z</time>
      </trkpt>
      <trkpt lat="48.49325" lon="7.05509">
        <ele>450.48</ele>
        <time>2016-07-31T06:46:57Z</time>
      </trkpt>
      <trkpt lat="48.49324" lon="7.05507">
        <ele>450.39</ele>
        <time>2016-07-31T06:47:29Z</time>
      </trkpt>
      <trkpt lat="48.49328" lon="7.0551">
        <ele>450.53</ele>
        <time>2016-07-31T06:47:55Z</time>
      </trkpt>
      <trkpt lat="48.49334" lon="7.05512">
        <ele>451.07</ele>
        <time>2016-07-31T06:48:15Z</time>
      </trkpt>
      <trkpt lat="48.49331" lon="7.05509">
        <ele>450.77</ele>
        <time>2016-07-31T06:48:43Z</time>
      </trkpt>
      <trkpt lat="48.49331" lon="7.05506">
        <ele>451.32</ele>
        <time>2016-07-31T06:49:01Z</time>
      </trkpt>
      <trkpt lat="48.49334" lon="7.05509">
        <ele>452.43</ele>
        <time>2016-07-31T06:49:22Z</time>
      </trkpt>
      <trkpt lat="48.49337" lon="7.05513">
        <ele>452.49</ele>
        <time>2016-07-31T06:49:42Z</time>
      </trkpt>
      <trkpt lat="48.49341" lon="7.05512">
        <ele>453.36</ele>
        <time>2016-07-31T06:50:07Z</time>
      </trkpt>
      <trkpt lat="48.49343" lon="7.05513">
        <ele>453.02</ele>
        <time>2016-07-31T06:50:09Z</time>
      </trkpt>
      <trkpt lat="48.49345" lon="7.05515">
        <ele>453.77</ele>
        <time>2016-07-31T06:50:12Z</time>
      </trkpt>
      <trkpt lat="48.49354" lon="7.0553">
        <ele>453.8</ele>
        <time>2016-07-31T06:50:26Z</time>
      </trkpt>
      <trkpt lat="48.49362" lon="7.05551">
        <ele>453.79</ele>
        <time>2016-07-31T06:50:45Z</time>
      </trkpt>
      <trkpt lat="48.4937" lon="7.05567">
        <ele>455.5</ele>
        <time>2016-07-31T06:51:02Z</time>
      </trkpt>
      <trkpt lat="48.49372" lon="7.05585">
        <ele>458.81</ele>
        <time>2016-07-31T06:51:19Z</time>
      </trkpt>
      <trkpt lat="48.49378" lon="7.05605">
        <ele>460.23</ele>
        <time>2016-07-31T06:51:40Z</time>
      </trkpt>
      <trkpt lat="48.49386" lon="7.05625">
        <ele>462.69</ele>
        <time>2016-07-31T06:51:59Z</time>
      </trkpt>
      <trkpt lat="48.49391" lon="7.05647">
        <ele>464.13</ele>
        <time>2016-07-31T06:52:19Z</time>
      </trkpt>
      <trkpt lat="48.49398" lon="7.05665">
        <ele>465.42</ele>
        <time>2016-07-31T06:52:36Z</time>
      </trkpt>
      <trkpt lat="48.4941" lon="7.05693">
        <ele>467.09</ele>
        <time>2016-07-31T06:52:56Z</time>
      </trkpt>
      <trkpt lat="48.49413" lon="7.05698">
        <ele>467.63</ele>
        <time>2016-07-31T06:53:01Z</time>
      </trkpt>
      <trkpt lat="48.49424" lon="7.05725">
        <ele>468.67</ele>
        <time>2016-07-31T06:53:22Z</time>
      </trkpt>
      <trkpt lat="48.49432" lon="7.05748">
        <ele>470.83</ele>
        <time>2016-07-31T06:53:43Z</time>
      </trkpt>
      <trkpt lat="48.49439" lon="7.05771">
        <ele>472.46</ele>
        <time>2016-07-31T06:54:04Z</time>
      </trkpt>
      <trkpt lat="48.49447" lon="7.05796">
        <ele>473.75</ele>
        <time>2016-07-31T06:54:24Z</time>
      </trkpt>
      <trkpt lat="48.49449" lon="7.05822">
        <ele>475.16</ele>
        <time>2016-07-31T06:54:44Z</time>
      </trkpt>
      <trkpt lat="48.49451" lon="7.05845">
        <ele>477.17</ele>
        <time>2016-07-31T06:55:04Z</time>
      </trkpt>
      <trkpt lat="48.49456" lon="7.05875">
        <ele>477.95</ele>
        <time>2016-07-31T06:55:26Z</time>
      </trkpt>
      <trkpt lat="48.49463" lon="7.05893">
        <ele>481.39</ele>
        <time>2016-07-31T06:55:43Z</time>
      </trkpt>
      <trkpt lat="48.49465" lon="7.0592">
        <ele>482.23</ele>
        <time>2016-07-31T06:56:03Z</time>
      </trkpt>
      <trkpt lat="48.49463" lon="7.05946">
        <ele>483.9</ele>
        <time>2016-07-31T06:56:23Z</time>
      </trkpt>
      <trkpt lat="48.49467" lon="7.05979">
        <ele>485.89</ele>
        <time>2016-07-31T06:56:45Z</time>
      </trkpt>
      <trkpt lat="48.49466" lon="7.06006">
        <ele>487.49</ele>
        <time>2016-07-31T06:57:07Z</time>
      </trkpt>
      <trkpt lat="48.49465" lon="7.06031">
        <ele>490.53</ele>
        <time>2016-07-31T06:57:28Z</time>
      </trkpt>
      <trkpt lat="48.49464" lon="7.06061">
        <ele>491.96</ele>
        <time>2016-07-31T06:57:50Z</time>
      </trkpt>
      <trkpt lat="48.49463" lon="7.06091">
        <ele>493.94</ele>
        <time>2016-07-31T06:58:10Z</time>
      </trkpt>
      <trkpt lat="48.49459" lon="7.0611">
        <ele>494.51</ele>
        <time>2016-07-31T06:58:26Z</time>
      </trkpt>
      <trkpt lat="48.49456" lon="7.06134">
        <ele>496.99</ele>
        <time>2016-07-31T06:58:46Z</time>
      </trkpt>
      <trkpt lat="48.49453" lon="7.06158">
        <ele>498.97</ele>
        <time>2016-07-31T06:59:07Z</time>
      </trkpt>
      <trkpt lat="48.49453" lon="7.06169">
        <ele>499.79</ele>
        <time>2016-07-31T06:59:25Z</time>
      </trkpt>
      <trkpt lat="48.49453" lon="7.06197">
        <ele>501.37</ele>
        <time>2016-07-31T06:59:43Z</time>
      </trkpt>
      <trkpt lat="48.49449" lon="7.0622">
        <ele>502.82</ele>
        <time>2016-07-31T07:00:01Z</time>
      </trkpt>
      <trkpt lat="48.49446" lon="7.06237">
        <ele>504.36</ele>
        <time>2016-07-31T07:00:18Z</time>
      </trkpt>
      <trkpt lat="48.4944" lon="7.06262">
        <ele>506.49</ele>
        <time>2016-07-31T07:00:37Z</time>
      </trkpt>
      <trkpt lat="48.49439" lon="7.06268">
        <ele>507.16</ele>
        <time>2016-07-31T07:00:42Z</time>
      </trkpt>
      <trkpt lat="48.49439" lon="7.06271">
        <ele>506.86</ele>
        <time>2016-07-31T07:00:44Z</time>
      </trkpt>
      <trkpt lat="48.49437" lon="7.06291">
        <ele>508.2</ele>
        <time>2016-07-31T07:01:01Z</time>
      </trkpt>
      <trkpt lat="48.49432" lon="7.06313">
        <ele>509.67</ele>
        <time>2016-07-31T07:01:21Z</time>
      </trkpt>
      <trkpt lat="48.49435" lon="7.06308">
        <ele>509.56</ele>
        <time>2016-07-31T07:01:33Z</time>
      </trkpt>
      <trkpt lat="48.49435" lon="7.06309">
        <ele>509.44</ele>
        <time>2016-07-31T07:01:53Z</time>
      </trkpt>
      <trkpt lat="48.49436" lon="7.06312">
        <ele>509.53</ele>
        <time>2016-07-31T07:02:35Z</time>
      </trkpt>
      <trkpt lat="48.49437" lon="7.06314">
        <ele>510.3</ele>
        <time>2016-07-31T07:03:03Z</time>
      </trkpt>
      <trkpt lat="48.49437" lon="7.06314">
        <ele>510.83</ele>
        <time>2016-07-31T07:03:22Z</time>
      </trkpt>
      <trkpt lat="48.49436" lon="7.06314">
        <ele>510.49</ele>
        <time>2016-07-31T07:03:49Z</time>
      </trkpt>
      <trkpt lat="48.49435" lon="7.06316">
        <ele>510.63</ele>
        <time>2016-07-31T07:04:18Z</time>
      </trkpt>
      <trkpt lat="48.49434" lon="7.06315">
        <ele>506.33</ele>
        <time>2016-07-31T07:04:26Z</time>
      </trkpt>
      <trkpt lat="48.49434" lon="7.06314">
        <ele>516.75</ele>
        <time>2016-07-31T07:04:27Z</time>
      </trkpt>
      <trkpt lat="48.49434" lon="7.06314">
        <ele>511.42</ele>
        <time>2016-07-31T07:04:28Z</time>
      </trkpt>
      <trkpt lat="48.49434" lon="7.06314">
        <ele>510.8</ele>
        <time>2016-07-31T07:04:30Z</time>
      </trkpt>
      <trkpt lat="48.49435" lon="7.06319">
        <ele>510.9</ele>
        <time>2016-07-31T07:04:50Z</time>
      </trkpt>
      <trkpt lat="48.49436" lon="7.06319">
        <ele>504.79</ele>
        <time>2016-07-31T07:05:21Z</time>
      </trkpt>
      <trkpt lat="48.49436" lon="7.06319">
        <ele>514.33</ele>
        <time>2016-07-31T07:05:22Z</time>
      </trkpt>
      <trkpt lat="48.49435" lon="7.06319">
        <ele>513.06</ele>
        <time>2016-07-31T07:05:23Z</time>
      </trkpt>
      <trkpt lat="48.49435" lon="7.06319">
        <ele>511.41</ele>
        <time>2016-07-31T07:05:25Z</time>
      </trkpt>
      <trkpt lat="48.49429" lon="7.06336">
        <ele>512.97</ele>
        <time>2016-07-31T07:05:45Z</time>
      </trkpt>
      <trkpt lat="48.49424" lon="7.06356">
        <ele>515.59</ele>
        <time>2016-07-31T07:06:04Z</time>
      </trkpt>
      <trkpt lat="48.49424" lon="7.06367">
        <ele>515.37</ele>
        <time>2016-07-31T07:06:23Z</time>
      </trkpt>
      <trkpt lat="48.49421" lon="7.06381">
        <ele>517</ele>
        <time>2016-07-31T07:06:53Z</time>
      </trkpt>
      <trkpt lat="48.49416" lon="7.06394">
        <ele>518.72</ele>
        <time>2016-07-31T07:07:12Z</time>
      </trkpt>
      <trkpt lat="48.4941" lon="7.06415">
        <ele>520.82</ele>
        <time>2016-07-31T07:07:31Z</time>
      </trkpt>
      <trkpt lat="48.49404" lon="7.06442">
        <ele>522.15</ele>
        <time>2016-07-31T07:07:53Z</time>
      </trkpt>
      <trkpt lat="48.49395" lon="7.06462">
        <ele>523.82</ele>
        <time>2016-07-31T07:08:12Z</time>
      </trkpt>
      <trkpt lat="48.49394" lon="7.06468">
        <ele>523.8</ele>
        <time>2016-07-31T07:08:15Z</time>
      </trkpt>
      <trkpt lat="48.49395" lon="7.06471">
        <ele>523.54</ele>
        <time>2016-07-31T07:08:17Z</time>
      </trkpt>
      <trkpt lat="48.49392" lon="7.06499">
        <ele>524.9</ele>
        <time>2016-07-31T07:08:40Z</time>
      </trkpt>
      <trkpt lat="48.4939" lon="7.06511">
        <ele>525.14</ele>
        <time>2016-07-31T07:08:56Z</time>
      </trkpt>
      <trkpt lat="48.49387" lon="7.06532">
        <ele>528.36</ele>
        <time>2016-07-31T07:09:14Z</time>
      </trkpt>
      <trkpt lat="48.49381" lon="7.06547">
        <ele>528.9</ele>
        <time>2016-07-31T07:09:32Z</time>
      </trkpt>
      <trkpt lat="48.49376" lon="7.06567">
        <ele>531.1</ele>
        <time>2016-07-31T07:09:53Z</time>
      </trkpt>
      <trkpt lat="48.49368" lon="7.06591">
        <ele>532.11</ele>
        <time>2016-07-31T07:10:17Z</time>
      </trkpt>
      <trkpt lat="48.49363" lon="7.06616">
        <ele>533.87</ele>
        <time>2016-07-31T07:10:38Z</time>
      </trkpt>
      <trkpt lat="48.49358" lon="7.0665">
        <ele>535.33</ele>
        <time>2016-07-31T07:10:59Z</time>
      </trkpt>
      <trkpt lat="48.49356" lon="7.06674">
        <ele>537.06</ele>
        <time>2016-07-31T07:11:24Z</time>
      </trkpt>
      <trkpt lat="48.49349" lon="7.06696">
        <ele>539.81</ele>
        <time>2016-07-31T07:11:46Z</time>
      </trkpt>
      <trkpt lat="48.4934" lon="7.06721">
        <ele>540.13</ele>
        <time>2016-07-31T07:12:09Z</time>
      </trkpt>
      <trkpt lat="48.49333" lon="7.06745">
        <ele>542.35</ele>
        <time>2016-07-31T07:12:32Z</time>
      </trkpt>
      <trkpt lat="48.49327" lon="7.06782">
        <ele>544.88</ele>
        <time>2016-07-31T07:12:56Z</time>
      </trkpt>
      <trkpt lat="48.49316" lon="7.06798">
        <ele>545.62</ele>
        <time>2016-07-31T07:13:15Z</time>
      </trkpt>
      <trkpt lat="48.49307" lon="7.06824">
        <ele>547.26</ele>
        <time>2016-07-31T07:13:39Z</time>
      </trkpt>
      <trkpt lat="48.49295" lon="7.06851">
        <ele>549.61</ele>
        <time>2016-07-31T07:14:01Z</time>
      </trkpt>
      <trkpt lat="48.49287" lon="7.06869">
        <ele>551.09</ele>
        <time>2016-07-31T07:14:22Z</time>
      </trkpt>
      <trkpt lat="48.4928" lon="7.06888">
        <ele>551.95</ele>
        <time>2016-07-31T07:14:41Z</time>
      </trkpt>
      <trkpt lat="48.49269" lon="7.06907">
        <ele>553.72</ele>
        <time>2016-07-31T07:15:03Z</time>
      </trkpt>
      <trkpt lat="48.49266" lon="7.06913">
        <ele>554.71</ele>
        <time>2016-07-31T07:15:15Z</time>
      </trkpt>
      <trkpt lat="48.4926" lon="7.06928">
        <ele>555.58</ele>
        <time>2016-07-31T07:15:45Z</time>
      </trkpt>
      <trkpt lat="48.49259" lon="7.06929">
        <ele>556.03</ele>
        <time>2016-07-31T07:15:48Z</time>
      </trkpt>
      <trkpt lat="48.49256" lon="7.0693">
        <ele>553.81</ele>
        <time>2016-07-31T07:16:05Z</time>
      </trkpt>
      <trkpt lat="48.49261" lon="7.06933">
        <ele>553.8</ele>
        <time>2016-07-31T07:16:17Z</time>
      </trkpt>
      <trkpt lat="48.4926" lon="7.06945">
        <ele>555.08</ele>
        <time>2016-07-31T07:16:39Z</time>
      </trkpt>
      <trkpt lat="48.49255" lon="7.06982">
        <ele>557.09</ele>
        <time>2016-07-31T07:17:03Z</time>
      </trkpt>
      <trkpt lat="48.49245" lon="7.07003">
        <ele>558.32</ele>
        <time>2016-07-31T07:17:23Z</time>
      </trkpt>
      <trkpt lat="48.49229" lon="7.07022">
        <ele>561.36</ele>
        <time>2016-07-31T07:17:49Z</time>
      </trkpt>
      <trkpt lat="48.49216" lon="7.07047">
        <ele>562.63</ele>
        <time>2016-07-31T07:18:11Z</time>
      </trkpt>
      <trkpt lat="48.49202" lon="7.07067">
        <ele>563.65</ele>
        <time>2016-07-31T07:18:29Z</time>
      </trkpt>
      <trkpt lat="48.49192" lon="7.07093">
        <ele>565.36</ele>
        <time>2016-07-31T07:18:48Z</time>
      </trkpt>
      <trkpt lat="48.49186" lon="7.07122">
        <ele>567.01</ele>
        <time>2016-07-31T07:19:09Z</time>
      </trkpt>
      <trkpt lat="48.49178" lon="7.07144">
        <ele>569.19</ele>
        <time>2016-07-31T07:19:31Z</time>
      </trkpt>
      <trkpt lat="48.49175" lon="7.07171">
        <ele>571.25</ele>
        <time>2016-07-31T07:19:53Z</time>
      </trkpt>
      <trkpt lat="48.49169" lon="7.07195">
        <ele>573.11</ele>
        <time>2016-07-31T07:20:15Z</time>
      </trkpt>
      <trkpt lat="48.49171" lon="7.07205">
        <ele>573.31</ele>
        <time>2016-07-31T07:20:18Z</time>
      </trkpt>
      <trkpt lat="48.49167" lon="7.07234">
        <ele>574.13</ele>
        <time>2016-07-31T07:20:40Z</time>
      </trkpt>
      <trkpt lat="48.49164" lon="7.07262">
        <ele>574.84</ele>
        <time>2016-07-31T07:20:59Z</time>
      </trkpt>
      <trkpt lat="48.49161" lon="7.07288">
        <ele>576.64</ele>
        <time>2016-07-31T07:21:20Z</time>
      </trkpt>
      <trkpt lat="48.49149" lon="7.07311">
        <ele>577.2</ele>
        <time>2016-07-31T07:21:43Z</time>
      </trkpt>
      <trkpt lat="48.4915" lon="7.07315">
        <ele>577.39</ele>
        <time>2016-07-31T07:21:48Z</time>
      </trkpt>
      <trkpt lat="48.49151" lon="7.07318">
        <ele>577.85</ele>
        <time>2016-07-31T07:21:52Z</time>
      </trkpt>
      <trkpt lat="48.49158" lon="7.07329">
        <ele>577.96</ele>
        <time>2016-07-31T07:22:12Z</time>
      </trkpt>
      <trkpt lat="48.49164" lon="7.07359">
        <ele>578.77</ele>
        <time>2016-07-31T07:22:38Z</time>
      </trkpt>
      <trkpt lat="48.49167" lon="7.07384">
        <ele>581.79</ele>
        <time>2016-07-31T07:22:58Z</time>
      </trkpt>
      <trkpt lat="48.49159" lon="7.07396">
        <ele>582.96</ele>
        <time>2016-07-31T07:23:19Z</time>
      </trkpt>
      <trkpt lat="48.49158" lon="7.07425">
        <ele>585.56</ele>
        <time>2016-07-31T07:23:40Z</time>
      </trkpt>
      <trkpt lat="48.49153" lon="7.07454">
        <ele>586.94</ele>
        <time>2016-07-31T07:23:59Z</time>
      </trkpt>
      <trkpt lat="48.49156" lon="7.07478">
        <ele>588.57</ele>
        <time>2016-07-31T07:24:17Z</time>
      </trkpt>
      <trkpt lat="48.49158" lon="7.07503">
        <ele>590.88</ele>
        <time>2016-07-31T07:24:37Z</time>
      </trkpt>
      <trkpt lat="48.49159" lon="7.07523">
        <ele>593.91</ele>
        <time>2016-07-31T07:24:54Z</time>
      </trkpt>
      <trkpt lat="48.49158" lon="7.07528">
        <ele>595.13</ele>
        <time>2016-07-31T07:25:01Z</time>
      </trkpt>
      <trkpt lat="48.49158" lon="7.07529">
        <ele>595.04</ele>
        <time>2016-07-31T07:25:05Z</time>
      </trkpt>
      <trkpt lat="48.49159" lon="7.07544">
        <ele>595.64</ele>
        <time>2016-07-31T07:25:12Z</time>
      </trkpt>
      <trkpt lat="48.49157" lon="7.07545">
        <ele>595.8</ele>
        <time>2016-07-31T07:25:21Z</time>
      </trkpt>
      <trkpt lat="48.49159" lon="7.07548">
        <ele>595.62</ele>
        <time>2016-07-31T07:25:44Z</time>
      </trkpt>
      <trkpt lat="48.49158" lon="7.07552">
        <ele>595.85</ele>
        <time>2016-07-31T07:26:11Z</time>
      </trkpt>
      <trkpt lat="48.49155" lon="7.07556">
        <ele>596.65</ele>
        <time>2016-07-31T07:26:35Z</time>
      </trkpt>
      <trkpt lat="48.49156" lon="7.07547">
        <ele>597.61</ele>
        <time>2016-07-31T07:26:57Z</time>
      </trkpt>
      <trkpt lat="48.49152" lon="7.07527">
        <ele>598.07</ele>
        <time>2016-07-31T07:27:17Z</time>
      </trkpt>
      <trkpt lat="48.49141" lon="7.07496">
        <ele>599.2</ele>
        <time>2016-07-31T07:27:42Z</time>
      </trkpt>
      <trkpt lat="48.49129" lon="7.07464">
        <ele>599.9</ele>
        <time>2016-07-31T07:28:05Z</time>
      </trkpt>
      <trkpt lat="48.49119" lon="7.07433">
        <ele>599.6</ele>
        <time>2016-07-31T07:28:28Z</time>
      </trkpt>
      <trkpt lat="48.49109" lon="7.07399">
        <ele>599.74</ele>
        <time>2016-07-31T07:28:52Z</time>
      </trkpt>
      <trkpt lat="48.491" lon="7.0737">
        <ele>600.8</ele>
        <time>2016-07-31T07:29:14Z</time>
      </trkpt>
      <trkpt lat="48.49089" lon="7.07345">
        <ele>603.18</ele>
        <time>2016-07-31T07:29:34Z</time>
      </trkpt>
      <trkpt lat="48.49073" lon="7.07324">
        <ele>604.76</ele>
        <time>2016-07-31T07:29:55Z</time>
      </trkpt>
      <trkpt lat="48.49064" lon="7.07298">
        <ele>606.33</ele>
        <time>2016-07-31T07:30:17Z</time>
      </trkpt>
      <trkpt lat="48.49067" lon="7.07261">
        <ele>606.8</ele>
        <time>2016-07-31T07:30:38Z</time>
      </trkpt>
      <trkpt lat="48.49066" lon="7.07256">
        <ele>606.41</ele>
        <time>2016-07-31T07:30:45Z</time>
      </trkpt>
      <trkpt lat="48.49064" lon="7.07246">
        <ele>606.36</ele>
        <time>2016-07-31T07:31:04Z</time>
      </trkpt>
      <trkpt lat="48.49063" lon="7.07236">
        <ele>605.88</ele>
        <time>2016-07-31T07:31:18Z</time>
      </trkpt>
      <trkpt lat="48.49063" lon="7.0723">
        <ele>607.49</ele>
        <time>2016-07-31T07:31:25Z</time>
      </trkpt>
      <trkpt lat="48.49064" lon="7.0722">
        <ele>606.73</ele>
        <time>2016-07-31T07:31:35Z</time>
      </trkpt>
      <trkpt lat="48.49068" lon="7.0719">
        <ele>606.02</ele>
        <time>2016-07-31T07:31:55Z</time>
      </trkpt>
      <trkpt lat="48.49072" lon="7.07166">
        <ele>607.83</ele>
        <time>2016-07-31T07:32:18Z</time>
      </trkpt>
      <trkpt lat="48.49074" lon="7.07143">
        <ele>606.35</ele>
        <time>2016-07-31T07:32:39Z</time>
      </trkpt>
      <trkpt lat="48.49075" lon="7.07124">
        <ele>606.09</ele>
        <time>2016-07-31T07:33:00Z</time>
      </trkpt>
      <trkpt lat="48.49075" lon="7.07113">
        <ele>607.52</ele>
        <time>2016-07-31T07:33:17Z</time>
      </trkpt>
      <trkpt lat="48.49091" lon="7.0709">
        <ele>611.1</ele>
        <time>2016-07-31T07:33:33Z</time>
      </trkpt>
      <trkpt lat="48.49098" lon="7.0707">
        <ele>613.18</ele>
        <time>2016-07-31T07:33:54Z</time>
      </trkpt>
      <trkpt lat="48.49104" lon="7.0705">
        <ele>615.2</ele>
        <time>2016-07-31T07:34:13Z</time>
      </trkpt>
      <trkpt lat="48.49108" lon="7.07038">
        <ele>617.21</ele>
        <time>2016-07-31T07:34:36Z</time>
      </trkpt>
      <trkpt lat="48.49109" lon="7.07037">
        <ele>617.15</ele>
        <time>2016-07-31T07:34:38Z</time>
      </trkpt>
      <trkpt lat="48.49099" lon="7.07022">
        <ele>617.96</ele>
        <time>2016-07-31T07:35:02Z</time>
      </trkpt>
      <trkpt lat="48.49104" lon="7.07019">
        <ele>617.62</ele>
        <time>2016-07-31T07:35:06Z</time>
      </trkpt>
      <trkpt lat="48.49105" lon="7.07009">
        <ele>619.53</ele>
        <time>2016-07-31T07:35:23Z</time>
      </trkpt>
      <trkpt lat="48.4911" lon="7.07001">
        <ele>619.57</ele>
        <time>2016-07-31T07:35:51Z</time>
      </trkpt>
      <trkpt lat="48.49112" lon="7.06997">
        <ele>618.7</ele>
        <time>2016-07-31T07:36:16Z</time>
      </trkpt>
      <trkpt lat="48.49114" lon="7.06991">
        <ele>619</ele>
        <time>2016-07-31T07:36:32Z</time>
      </trkpt>
      <trkpt lat="48.49115" lon="7.06988">
        <ele>619.19</ele>
        <time>2016-07-31T07:36:36Z</time>
      </trkpt>
      <trkpt lat="48.49117" lon="7.06984">
        <ele>619.02</ele>
        <time>2016-07-31T07:36:39Z</time>
      </trkpt>
      <trkpt lat="48.49111" lon="7.06974">
        <ele>621.3</ele>
        <time>2016-07-31T07:36:51Z</time>
      </trkpt>
      <trkpt lat="48.49114" lon="7.06966">
        <ele>621.16</ele>
        <time>2016-07-31T07:37:03Z</time>
      </trkpt>
      <trkpt lat="48.49116" lon="7.06963">
        <ele>621.62</ele>
        <time>2016-07-31T07:37:13Z</time>
      </trkpt>
      <trkpt lat="48.49122" lon="7.06964">
        <ele>623.27</ele>
        <time>2016-07-31T07:37:33Z</time>
      </trkpt>
      <trkpt lat="48.49117" lon="7.06955">
        <ele>624.32</ele>
        <time>2016-07-31T07:37:39Z</time>
      </trkpt>
      <trkpt lat="48.49115" lon="7.06948">
        <ele>625.95</ele>
        <time>2016-07-31T07:37:45Z</time>
      </trkpt>
      <trkpt lat="48.49115" lon="7.06938">
        <ele>627.08</ele>
        <time>2016-07-31T07:38:05Z</time>
      </trkpt>
      <trkpt lat="48.49114" lon="7.06938">
        <ele>626.8</ele>
        <time>2016-07-31T07:38:08Z</time>
      </trkpt>
      <trkpt lat="48.49117" lon="7.06922">
        <ele>625.85</ele>
        <time>2016-07-31T07:38:30Z</time>
      </trkpt>
      <trkpt lat="48.49121" lon="7.06907">
        <ele>628.62</ele>
        <time>2016-07-31T07:38:56Z</time>
      </trkpt>
      <trkpt lat="48.49122" lon="7.06902">
        <ele>632.37</ele>
        <time>2016-07-31T07:39:11Z</time>
      </trkpt>
      <trkpt lat="48.49122" lon="7.06901">
        <ele>629.35</ele>
        <time>2016-07-31T07:39:14Z</time>
      </trkpt>
      <trkpt lat="48.49122" lon="7.069">
        <ele>630.58</ele>
        <time>2016-07-31T07:39:17Z</time>
      </trkpt>
      <trkpt lat="48.49125" lon="7.06903">
        <ele>633.6</ele>
        <time>2016-07-31T07:39:34Z</time>
      </trkpt>
      <trkpt lat="48.49123" lon="7.06911">
        <ele>632.77</ele>
        <time>2016-07-31T07:39:45Z</time>
      </trkpt>
      <trkpt lat="48.4912" lon="7.06918">
        <ele>632.65</ele>
        <time>2016-07-31T07:39:55Z</time>
      </trkpt>
      <trkpt lat="48.49121" lon="7.0691">
        <ele>631.49</ele>
        <time>2016-07-31T07:40:16Z</time>
      </trkpt>
      <trkpt lat="48.49125" lon="7.06902">
        <ele>631.28</ele>
        <time>2016-07-31T07:40:38Z</time>
      </trkpt>
      <trkpt lat="48.49127" lon="7.06888">
        <ele>631.6</ele>
        <time>2016-07-31T07:40:57Z</time>
      </trkpt>
      <trkpt lat="48.49138" lon="7.06875">
        <ele>631.71</ele>
        <time>2016-07-31T07:41:18Z</time>
      </trkpt>
      <trkpt lat="48.49141" lon="7.06867">
        <ele>631.93</ele>
        <time>2016-07-31T07:41:24Z</time>
      </trkpt>
      <trkpt lat="48.49141" lon="7.06859">
        <ele>632.16</ele>
        <time>2016-07-31T07:41:46Z</time>
      </trkpt>
      <trkpt lat="48.49138" lon="7.06867">
        <ele>631.72</ele>
        <time>2016-07-31T07:42:16Z</time>
      </trkpt>
      <trkpt lat="48.49138" lon="7.06872">
        <ele>631.5</ele>
        <time>2016-07-31T07:42:38Z</time>
      </trkpt>
      <trkpt lat="48.49136" lon="7.06873">
        <ele>631.66</ele>
        <time>2016-07-31T07:43:04Z</time>
      </trkpt>
      <trkpt lat="48.4913" lon="7.06877">
        <ele>632.18</ele>
        <time>2016-07-31T07:43:17Z</time>
      </trkpt>
      <trkpt lat="48.49122" lon="7.06884">
        <ele>631.38</ele>
        <time>2016-07-31T07:43:40Z</time>
      </trkpt>
      <trkpt lat="48.49116" lon="7.06887">
        <ele>630.74</ele>
        <time>2016-07-31T07:44:04Z</time>
      </trkpt>
      <trkpt lat="48.49116" lon="7.06889">
        <ele>623.04</ele>
        <time>2016-07-31T07:44:13Z</time>
      </trkpt>
      <trkpt lat="48.49116" lon="7.06888">
        <ele>630.82</ele>
        <time>2016-07-31T07:44:14Z</time>
      </trkpt>
      <trkpt lat="48.49116" lon="7.06888">
        <ele>637</ele>
        <time>2016-07-31T07:44:15Z</time>
      </trkpt>
      <trkpt lat="48.49116" lon="7.06888">
        <ele>629.33</ele>
        <time>2016-07-31T07:44:16Z</time>
      </trkpt>
      <trkpt lat="48.49115" lon="7.06898">
        <ele>627.25</ele>
        <time>2016-07-31T07:44:40Z</time>
      </trkpt>
      <trkpt lat="48.49113" lon="7.06915">
        <ele>628.25</ele>
        <time>2016-07-31T07:44:57Z</time>
      </trkpt>
      <trkpt lat="48.49111" lon="7.06921">
        <ele>628.02</ele>
        <time>2016-07-31T07:45:09Z</time>
      </trkpt>
      <trkpt lat="48.49107" lon="7.06931">
        <ele>624.9</ele>
        <time>2016-07-31T07:45:28Z</time>
      </trkpt>
      <trkpt lat="48.49105" lon="7.06939">
        <ele>621.74</ele>
        <time>2016-07-31T07:45:44Z</time>
      </trkpt>
      <trkpt lat="48.491" lon="7.06958">
        <ele>619.52</ele>
        <time>2016-07-31T07:46:06Z</time>
      </trkpt>
      <trkpt lat="48.49101" lon="7.06976">
        <ele>619.33</ele>
        <time>2016-07-31T07:46:23Z</time>
      </trkpt>
      <trkpt lat="48.49098" lon="7.06994">
        <ele>617.87</ele>
        <time>2016-07-31T07:46:43Z</time>
      </trkpt>
      <trkpt lat="48.49095" lon="7.06997">
        <ele>618.19</ele>
        <time>2016-07-31T07:46:47Z</time>
      </trkpt>
      <trkpt lat="48.49092" lon="7.07006">
        <ele>617.73</ele>
        <time>2016-07-31T07:47:11Z</time>
      </trkpt>
      <trkpt lat="48.49089" lon="7.07006">
        <ele>618.35</ele>
        <time>2016-07-31T07:47:40Z</time>
      </trkpt>
      <trkpt lat="48.4909" lon="7.07013">
        <ele>615.86</ele>
        <time>2016-07-31T07:48:08Z</time>
      </trkpt>
      <trkpt lat="48.49095" lon="7.0703">
        <ele>612.85</ele>
        <time>2016-07-31T07:48:27Z</time>
      </trkpt>
      <trkpt lat="48.49092" lon="7.07054">
        <ele>609.58</ele>
        <time>2016-07-31T07:48:49Z</time>
      </trkpt>
      <trkpt lat="48.49091" lon="7.07061">
        <ele>608.39</ele>
        <time>2016-07-31T07:48:58Z</time>
      </trkpt>
      <trkpt lat="48.49084" lon="7.07083">
        <ele>605.54</ele>
        <time>2016-07-31T07:49:17Z</time>
      </trkpt>
      <trkpt lat="48.49077" lon="7.07106">
        <ele>605.11</ele>
        <time>2016-07-31T07:49:37Z</time>
      </trkpt>
      <trkpt lat="48.49072" lon="7.07134">
        <ele>606.08</ele>
        <time>2016-07-31T07:49:58Z</time>
      </trkpt>
      <trkpt lat="48.49071" lon="7.07157">
        <ele>605.25</ele>
        <time>2016-07-31T07:50:17Z</time>
      </trkpt>
      <trkpt lat="48.49068" lon="7.07178">
        <ele>604.32</ele>
        <time>2016-07-31T07:50:36Z</time>
      </trkpt>
      <trkpt lat="48.49067" lon="7.07186">
        <ele>606.04</ele>
        <time>2016-07-31T07:50:45Z</time>
      </trkpt>
      <trkpt lat="48.49064" lon="7.07216">
        <ele>604.36</ele>
        <time>2016-07-31T07:51:07Z</time>
      </trkpt>
      <trkpt lat="48.49066" lon="7.07249">
        <ele>604.26</ele>
        <time>2016-07-31T07:51:25Z</time>
      </trkpt>
      <trkpt lat="48.49068" lon="7.07251">
        <ele>604.28</ele>
        <time>2016-07-31T07:51:59Z</time>
      </trkpt>
      <trkpt lat="48.49066" lon="7.07252">
        <ele>604.44</ele>
        <time>2016-07-31T07:52:23Z</time>
      </trkpt>
      <trkpt lat="48.49067" lon="7.07255">
        <ele>604.73</ele>
        <time>2016-07-31T07:52:53Z</time>
      </trkpt>
      <trkpt lat="48.49067" lon="7.07249">
        <ele>604.9</ele>
        <time>2016-07-31T07:53:16Z</time>
      </trkpt>
      <trkpt lat="48.49075" lon="7.07265">
        <ele>604.55</ele>
        <time>2016-07-31T07:53:34Z</time>
      </trkpt>
      <trkpt lat="48.49081" lon="7.07295">
        <ele>602.14</ele>
        <time>2016-07-31T07:53:54Z</time>
      </trkpt>
      <trkpt lat="48.49088" lon="7.07323">
        <ele>599.41</ele>
        <time>2016-07-31T07:54:14Z</time>
      </trkpt>
      <trkpt lat="48.49092" lon="7.07352">
        <ele>598.46</ele>
        <time>2016-07-31T07:54:35Z</time>
      </trkpt>
      <trkpt lat="48.49093" lon="7.07353">
        <ele>599.02</ele>
        <time>2016-07-31T07:54:40Z</time>
      </trkpt>
      <trkpt lat="48.49102" lon="7.0736">
        <ele>598.01</ele>
        <time>2016-07-31T07:55:10Z</time>
      </trkpt>
      <trkpt lat="48.491" lon="7.07381">
        <ele>597.99</ele>
        <time>2016-07-31T07:55:31Z</time>
      </trkpt>
      <trkpt lat="48.49097" lon="7.07392">
        <ele>597.84</ele>
        <time>2016-07-31T07:56:01Z</time>
      </trkpt>
      <trkpt lat="48.49097" lon="7.0739">
        <ele>598.17</ele>
        <time>2016-07-31T07:56:32Z</time>
      </trkpt>
      <trkpt lat="48.49098" lon="7.07389">
        <ele>588.51</ele>
        <time>2016-07-31T07:56:47Z</time>
      </trkpt>
      <trkpt lat="48.49098" lon="7.07388">
        <ele>603.09</ele>
        <time>2016-07-31T07:56:48Z</time>
      </trkpt>
      <trkpt lat="48.49098" lon="7.07388">
        <ele>597.79</ele>
        <time>2016-07-31T07:56:49Z</time>
      </trkpt>
      <trkpt lat="48.49099" lon="7.07388">
        <ele>591.24</ele>
        <time>2016-07-31T07:56:50Z</time>
      </trkpt>
      <trkpt lat="48.49099" lon="7.07388">
        <ele>601.13</ele>
        <time>2016-07-31T07:56:51Z</time>
      </trkpt>
      <trkpt lat="48.491" lon="7.07389">
        <ele>597.02</ele>
        <time>2016-07-31T07:56:53Z</time>
      </trkpt>
      <trkpt lat="48.491" lon="7.07388">
        <ele>597.4</ele>
        <time>2016-07-31T07:56:54Z</time>
      </trkpt>
      <trkpt lat="48.49105" lon="7.07388">
        <ele>601.09</ele>
        <time>2016-07-31T07:57:08Z</time>
      </trkpt>
      <trkpt lat="48.49103" lon="7.07388">
        <ele>597.59</ele>
        <time>2016-07-31T07:57:15Z</time>
      </trkpt>
      <trkpt lat="48.49105" lon="7.07386">
        <ele>598.69</ele>
        <time>2016-07-31T07:57:23Z</time>
      </trkpt>
      <trkpt lat="48.49108" lon="7.07402">
        <ele>598.19</ele>
        <time>2016-07-31T07:57:42Z</time>
      </trkpt>
      <trkpt lat="48.4911" lon="7.07438">
        <ele>598.32</ele>
        <time>2016-07-31T07:58:04Z</time>
      </trkpt>
      <trkpt lat="48.49116" lon="7.07471">
        <ele>597.94</ele>
        <time>2016-07-31T07:58:23Z</time>
      </trkpt>
      <trkpt lat="48.49117" lon="7.07479">
        <ele>598.42</ele>
        <time>2016-07-31T07:58:28Z</time>
      </trkpt>
      <trkpt lat="48.49124" lon="7.0752">
        <ele>597.39</ele>
        <time>2016-07-31T07:58:53Z</time>
      </trkpt>
      <trkpt lat="48.4913" lon="7.0755">
        <ele>597.16</ele>
        <time>2016-07-31T07:59:14Z</time>
      </trkpt>
      <trkpt lat="48.4913" lon="7.07585">
        <ele>596.11</ele>
        <time>2016-07-31T07:59:33Z</time>
      </trkpt>
      <trkpt lat="48.49131" lon="7.07588">
        <ele>595.72</ele>
        <time>2016-07-31T07:59:34Z</time>
      </trkpt>
      <trkpt lat="48.49131" lon="7.07608">
        <ele>596.84</ele>
        <time>2016-07-31T07:59:55Z</time>
      </trkpt>
      <trkpt lat="48.49131" lon="7.07608">
        <ele>596.27</ele>
        <time>2016-07-31T07:59:56Z</time>
      </trkpt>
      <trkpt lat="48.49129" lon="7.0761">
        <ele>597.94</ele>
        <time>2016-07-31T08:00:02Z</time>
      </trkpt>
      <trkpt lat="48.4913" lon="7.0762">
        <ele>600.31</ele>
        <time>2016-07-31T08:00:24Z</time>
      </trkpt>
      <trkpt lat="48.49133" lon="7.07631">
        <ele>599.58</ele>
        <time>2016-07-31T08:00:40Z</time>
      </trkpt>
      <trkpt lat="48.49134" lon="7.0765">
        <ele>600.29</ele>
        <time>2016-07-31T08:00:59Z</time>
      </trkpt>
      <trkpt lat="48.49132" lon="7.07673">
        <ele>601.65</ele>
        <time>2016-07-31T08:01:21Z</time>
      </trkpt>
      <trkpt lat="48.49131" lon="7.07693">
        <ele>603.2</ele>
        <time>2016-07-31T08:01:40Z</time>
      </trkpt>
      <trkpt lat="48.49129" lon="7.07713">
        <ele>604.21</ele>
        <time>2016-07-31T08:02:00Z</time>
      </trkpt>
      <trkpt lat="48.49123" lon="7.07731">
        <ele>605.76</ele>
        <time>2016-07-31T08:02:21Z</time>
      </trkpt>
      <trkpt lat="48.49116" lon="7.07757">
        <ele>606.59</ele>
        <time>2016-07-31T08:02:41Z</time>
      </trkpt>
      <trkpt lat="48.49112" lon="7.07775">
        <ele>608.79</ele>
        <time>2016-07-31T08:03:05Z</time>
      </trkpt>
      <trkpt lat="48.49105" lon="7.07789">
        <ele>609.3</ele>
        <time>2016-07-31T08:03:26Z</time>
      </trkpt>
      <trkpt lat="48.49096" lon="7.07813">
        <ele>611.13</ele>
        <time>2016-07-31T08:03:49Z</time>
      </trkpt>
      <trkpt lat="48.49084" lon="7.07835">
        <ele>612.23</ele>
        <time>2016-07-31T08:04:12Z</time>
      </trkpt>
      <trkpt lat="48.49073" lon="7.07858">
        <ele>613.41</ele>
        <time>2016-07-31T08:04:32Z</time>
      </trkpt>
      <trkpt lat="48.49065" lon="7.07887">
        <ele>614.99</ele>
        <time>2016-07-31T08:04:57Z</time>
      </trkpt>
      <trkpt lat="48.49058" lon="7.07899">
        <ele>615.73</ele>
        <time>2016-07-31T08:05:11Z</time>
      </trkpt>
      <trkpt lat="48.49049" lon="7.07923">
        <ele>616.68</ele>
        <time>2016-07-31T08:05:34Z</time>
      </trkpt>
      <trkpt lat="48.49037" lon="7.07937">
        <ele>618.32</ele>
        <time>2016-07-31T08:05:57Z</time>
      </trkpt>
      <trkpt lat="48.49027" lon="7.07957">
        <ele>619.33</ele>
        <time>2016-07-31T08:06:18Z</time>
      </trkpt>
      <trkpt lat="48.49025" lon="7.07993">
        <ele>621.14</ele>
        <time>2016-07-31T08:06:37Z</time>
      </trkpt>
      <trkpt lat="48.49018" lon="7.08018">
        <ele>621.56</ele>
        <time>2016-07-31T08:06:58Z</time>
      </trkpt>
      <trkpt lat="48.49009" lon="7.08045">
        <ele>622.98</ele>
        <time>2016-07-31T08:07:19Z</time>
      </trkpt>
      <trkpt lat="48.49009" lon="7.08046">
        <ele>623.67</ele>
        <time>2016-07-31T08:07:20Z</time>
      </trkpt>
      <trkpt lat="48.49004" lon="7.08066">
        <ele>625.01</ele>
        <time>2016-07-31T08:07:43Z</time>
      </trkpt>
      <trkpt lat="48.48996" lon="7.08088">
        <ele>626</ele>
        <time>2016-07-31T08:08:03Z</time>
      </trkpt>
      <trkpt lat="48.48997" lon="7.08113">
        <ele>626.71</ele>
        <time>2016-07-31T08:08:22Z</time>
      </trkpt>
      <trkpt lat="48.48989" lon="7.0813">
        <ele>628.54</ele>
        <time>2016-07-31T08:08:42Z</time>
      </trkpt>
      <trkpt lat="48.48986" lon="7.08163">
        <ele>630.46</ele>
        <time>2016-07-31T08:09:04Z</time>
      </trkpt>
      <trkpt lat="48.49007" lon="7.082">
        <ele>632.61</ele>
        <time>2016-07-31T08:09:26Z</time>
      </trkpt>
      <trkpt lat="48.49019" lon="7.0823">
        <ele>633.63</ele>
        <time>2016-07-31T08:09:48Z</time>
      </trkpt>
      <trkpt lat="48.49022" lon="7.08251">
        <ele>633.82</ele>
        <time>2016-07-31T08:10:09Z</time>
      </trkpt>
      <trkpt lat="48.49019" lon="7.08263">
        <ele>634.6</ele>
        <time>2016-07-31T08:10:19Z</time>
      </trkpt>
      <trkpt lat="48.49016" lon="7.08295">
        <ele>636.28</ele>
        <time>2016-07-31T08:10:41Z</time>
      </trkpt>
      <trkpt lat="48.49019" lon="7.0832">
        <ele>638.04</ele>
        <time>2016-07-31T08:11:03Z</time>
      </trkpt>
      <trkpt lat="48.49025" lon="7.08343">
        <ele>639.76</ele>
        <time>2016-07-31T08:11:24Z</time>
      </trkpt>
      <trkpt lat="48.49023" lon="7.08355">
        <ele>640.94</ele>
        <time>2016-07-31T08:11:32Z</time>
      </trkpt>
      <trkpt lat="48.49022" lon="7.08379">
        <ele>641.48</ele>
        <time>2016-07-31T08:11:51Z</time>
      </trkpt>
      <trkpt lat="48.49019" lon="7.08399">
        <ele>643.43</ele>
        <time>2016-07-31T08:12:10Z</time>
      </trkpt>
      <trkpt lat="48.49019" lon="7.08409">
        <ele>644.86</ele>
        <time>2016-07-31T08:12:23Z</time>
      </trkpt>
      <trkpt lat="48.49018" lon="7.08433">
        <ele>645.93</ele>
        <time>2016-07-31T08:12:46Z</time>
      </trkpt>
      <trkpt lat="48.49017" lon="7.08437">
        <ele>646.45</ele>
        <time>2016-07-31T08:12:49Z</time>
      </trkpt>
      <trkpt lat="48.49016" lon="7.08446">
        <ele>647.11</ele>
        <time>2016-07-31T08:12:59Z</time>
      </trkpt>
      <trkpt lat="48.49017" lon="7.08449">
        <ele>647.86</ele>
        <time>2016-07-31T08:13:03Z</time>
      </trkpt>
      <trkpt lat="48.49016" lon="7.08453">
        <ele>647.86</ele>
        <time>2016-07-31T08:13:06Z</time>
      </trkpt>
      <trkpt lat="48.49015" lon="7.08458">
        <ele>647.89</ele>
        <time>2016-07-31T08:13:12Z</time>
      </trkpt>
      <trkpt lat="48.49011" lon="7.08473">
        <ele>648.63</ele>
        <time>2016-07-31T08:13:29Z</time>
      </trkpt>
      <trkpt lat="48.4901" lon="7.08481">
        <ele>650.14</ele>
        <time>2016-07-31T08:13:37Z</time>
      </trkpt>
      <trkpt lat="48.4901" lon="7.0849">
        <ele>650.48</ele>
        <time>2016-07-31T08:13:45Z</time>
      </trkpt>
      <trkpt lat="48.49013" lon="7.08494">
        <ele>649.97</ele>
        <time>2016-07-31T08:13:50Z</time>
      </trkpt>
      <trkpt lat="48.49016" lon="7.08498">
        <ele>649.78</ele>
        <time>2016-07-31T08:13:55Z</time>
      </trkpt>
      <trkpt lat="48.4902" lon="7.08512">
        <ele>652.22</ele>
        <time>2016-07-31T08:14:11Z</time>
      </trkpt>
      <trkpt lat="48.49025" lon="7.0853">
        <ele>653.04</ele>
        <time>2016-07-31T08:14:35Z</time>
      </trkpt>
      <trkpt lat="48.49026" lon="7.08553">
        <ele>654.35</ele>
        <time>2016-07-31T08:14:53Z</time>
      </trkpt>
      <trkpt lat="48.49035" lon="7.08561">
        <ele>654.04</ele>
        <time>2016-07-31T08:15:02Z</time>
      </trkpt>
      <trkpt lat="48.49037" lon="7.08565">
        <ele>654.22</ele>
        <time>2016-07-31T08:15:08Z</time>
      </trkpt>
      <trkpt lat="48.49038" lon="7.08569">
        <ele>655.02</ele>
        <time>2016-07-31T08:15:14Z</time>
      </trkpt>
      <trkpt lat="48.49038" lon="7.08581">
        <ele>656.07</ele>
        <time>2016-07-31T08:15:24Z</time>
      </trkpt>
      <trkpt lat="48.49044" lon="7.08593">
        <ele>657.05</ele>
        <time>2016-07-31T08:15:36Z</time>
      </trkpt>
      <trkpt lat="48.49049" lon="7.08615">
        <ele>658.61</ele>
        <time>2016-07-31T08:15:57Z</time>
      </trkpt>
      <trkpt lat="48.49051" lon="7.08619">
        <ele>658.28</ele>
        <time>2016-07-31T08:16:01Z</time>
      </trkpt>
      <trkpt lat="48.49055" lon="7.08634">
        <ele>659.97</ele>
        <time>2016-07-31T08:16:17Z</time>
      </trkpt>
      <trkpt lat="48.49059" lon="7.08642">
        <ele>661.3</ele>
        <time>2016-07-31T08:16:27Z</time>
      </trkpt>
      <trkpt lat="48.49063" lon="7.0866">
        <ele>661.93</ele>
        <time>2016-07-31T08:16:45Z</time>
      </trkpt>
      <trkpt lat="48.49065" lon="7.08672">
        <ele>663.32</ele>
        <time>2016-07-31T08:17:01Z</time>
      </trkpt>
      <trkpt lat="48.49067" lon="7.08697">
        <ele>665.86</ele>
        <time>2016-07-31T08:17:21Z</time>
      </trkpt>
      <trkpt lat="48.49067" lon="7.08725">
        <ele>667.15</ele>
        <time>2016-07-31T08:17:45Z</time>
      </trkpt>
      <trkpt lat="48.49068" lon="7.08734">
        <ele>667.41</ele>
        <time>2016-07-31T08:17:54Z</time>
      </trkpt>
      <trkpt lat="48.49074" lon="7.08752">
        <ele>670.32</ele>
        <time>2016-07-31T08:18:15Z</time>
      </trkpt>
      <trkpt lat="48.49075" lon="7.08771">
        <ele>672.24</ele>
        <time>2016-07-31T08:18:39Z</time>
      </trkpt>
      <trkpt lat="48.49073" lon="7.08783">
        <ele>672.27</ele>
        <time>2016-07-31T08:18:54Z</time>
      </trkpt>
      <trkpt lat="48.49074" lon="7.08787">
        <ele>672.94</ele>
        <time>2016-07-31T08:18:58Z</time>
      </trkpt>
      <trkpt lat="48.49077" lon="7.08794">
        <ele>672.23</ele>
        <time>2016-07-31T08:19:02Z</time>
      </trkpt>
      <trkpt lat="48.49078" lon="7.08801">
        <ele>673.86</ele>
        <time>2016-07-31T08:19:12Z</time>
      </trkpt>
      <trkpt lat="48.4908" lon="7.08823">
        <ele>675.19</ele>
        <time>2016-07-31T08:19:34Z</time>
      </trkpt>
      <trkpt lat="48.49085" lon="7.08844">
        <ele>676.76</ele>
        <time>2016-07-31T08:19:50Z</time>
      </trkpt>
      <trkpt lat="48.49085" lon="7.08867">
        <ele>678.02</ele>
        <time>2016-07-31T08:20:12Z</time>
      </trkpt>
      <trkpt lat="48.49086" lon="7.08884">
        <ele>680.13</ele>
        <time>2016-07-31T08:20:33Z</time>
      </trkpt>
      <trkpt lat="48.49086" lon="7.08903">
        <ele>681.06</ele>
        <time>2016-07-31T08:20:55Z</time>
      </trkpt>
      <trkpt lat="48.49088" lon="7.0893">
        <ele>682.46</ele>
        <time>2016-07-31T08:21:17Z</time>
      </trkpt>
      <trkpt lat="48.49088" lon="7.08939">
        <ele>683.33</ele>
        <time>2016-07-31T08:21:29Z</time>
      </trkpt>
      <trkpt lat="48.49089" lon="7.08944">
        <ele>683.43</ele>
        <time>2016-07-31T08:21:34Z</time>
      </trkpt>
      <trkpt lat="48.49091" lon="7.08953">
        <ele>684.56</ele>
        <time>2016-07-31T08:21:43Z</time>
      </trkpt>
      <trkpt lat="48.49093" lon="7.08974">
        <ele>686.11</ele>
        <time>2016-07-31T08:22:06Z</time>
      </trkpt>
      <trkpt lat="48.49093" lon="7.08988">
        <ele>687.15</ele>
        <time>2016-07-31T08:22:18Z</time>
      </trkpt>
      <trkpt lat="48.49094" lon="7.08991">
        <ele>687.91</ele>
        <time>2016-07-31T08:22:22Z</time>
      </trkpt>
      <trkpt lat="48.49095" lon="7.09004">
        <ele>688.4</ele>
        <time>2016-07-31T08:22:39Z</time>
      </trkpt>
      <trkpt lat="48.49095" lon="7.09029">
        <ele>691.05</ele>
        <time>2016-07-31T08:23:01Z</time>
      </trkpt>
      <trkpt lat="48.49092" lon="7.09054">
        <ele>692.37</ele>
        <time>2016-07-31T08:23:22Z</time>
      </trkpt>
      <trkpt lat="48.49094" lon="7.09059">
        <ele>691.86</ele>
        <time>2016-07-31T08:23:27Z</time>
      </trkpt>
      <trkpt lat="48.49095" lon="7.09082">
        <ele>693.79</ele>
        <time>2016-07-31T08:23:44Z</time>
      </trkpt>
      <trkpt lat="48.49095" lon="7.09093">
        <ele>695.26</ele>
        <time>2016-07-31T08:23:58Z</time>
      </trkpt>
      <trkpt lat="48.49099" lon="7.0912">
        <ele>696.13</ele>
        <time>2016-07-31T08:24:21Z</time>
      </trkpt>
      <trkpt lat="48.49105" lon="7.09143">
        <ele>698.34</ele>
        <time>2016-07-31T08:24:42Z</time>
      </trkpt>
      <trkpt lat="48.49109" lon="7.09164">
        <ele>700.31</ele>
        <time>2016-07-31T08:25:06Z</time>
      </trkpt>
      <trkpt lat="48.4912" lon="7.09189">
        <ele>701.77</ele>
        <time>2016-07-31T08:25:27Z</time>
      </trkpt>
      <trkpt lat="48.49125" lon="7.0921">
        <ele>702.85</ele>
        <time>2016-07-31T08:25:46Z</time>
      </trkpt>
      <trkpt lat="48.49132" lon="7.09225">
        <ele>705.62</ele>
        <time>2016-07-31T08:26:09Z</time>
      </trkpt>
      <trkpt lat="48.49133" lon="7.09226">
        <ele>705.65</ele>
        <time>2016-07-31T08:26:12Z</time>
      </trkpt>
      <trkpt lat="48.49141" lon="7.09244">
        <ele>707.62</ele>
        <time>2016-07-31T08:26:30Z</time>
      </trkpt>
      <trkpt lat="48.49141" lon="7.09254">
        <ele>708.2</ele>
        <time>2016-07-31T08:26:40Z</time>
      </trkpt>
      <trkpt lat="48.49152" lon="7.09269">
        <ele>709.1</ele>
        <time>2016-07-31T08:26:55Z</time>
      </trkpt>
      <trkpt lat="48.49153" lon="7.09281">
        <ele>709.44</ele>
        <time>2016-07-31T08:27:06Z</time>
      </trkpt>
      <trkpt lat="48.49157" lon="7.09299">
        <ele>711.28</ele>
        <time>2016-07-31T08:27:23Z</time>
      </trkpt>
      <trkpt lat="48.49176" lon="7.0932">
        <ele>712.27</ele>
        <time>2016-07-31T08:27:45Z</time>
      </trkpt>
      <trkpt lat="48.49173" lon="7.09349">
        <ele>713.36</ele>
        <time>2016-07-31T08:28:05Z</time>
      </trkpt>
      <trkpt lat="48.49172" lon="7.09351">
        <ele>713.34</ele>
        <time>2016-07-31T08:28:32Z</time>
      </trkpt>
      <trkpt lat="48.49176" lon="7.09356">
        <ele>713.23</ele>
        <time>2016-07-31T08:28:53Z</time>
      </trkpt>
      <trkpt lat="48.49173" lon="7.09352">
        <ele>713.93</ele>
        <time>2016-07-31T08:29:21Z</time>
      </trkpt>
      <trkpt lat="48.49173" lon="7.09351">
        <ele>710.93</ele>
        <time>2016-07-31T08:29:24Z</time>
      </trkpt>
      <trkpt lat="48.49173" lon="7.09351">
        <ele>714.45</ele>
        <time>2016-07-31T08:29:25Z</time>
      </trkpt>
      <trkpt lat="48.49173" lon="7.09352">
        <ele>713.6</ele>
        <time>2016-07-31T08:29:53Z</time>
      </trkpt>
      <trkpt lat="48.49173" lon="7.09354">
        <ele>713.33</ele>
        <time>2016-07-31T08:30:16Z</time>
      </trkpt>
      <trkpt lat="48.49171" lon="7.0935">
        <ele>713.2</ele>
        <time>2016-07-31T08:30:48Z</time>
      </trkpt>
      <trkpt lat="48.49172" lon="7.09353">
        <ele>713.93</ele>
        <time>2016-07-31T08:31:12Z</time>
      </trkpt>
      <trkpt lat="48.4917" lon="7.09372">
        <ele>713.55</ele>
        <time>2016-07-31T08:31:29Z</time>
      </trkpt>
      <trkpt lat="48.49167" lon="7.09382">
        <ele>714.14</ele>
        <time>2016-07-31T08:31:50Z</time>
      </trkpt>
      <trkpt lat="48.49172" lon="7.09387">
        <ele>713.58</ele>
        <time>2016-07-31T08:31:57Z</time>
      </trkpt>
      <trkpt lat="48.49176" lon="7.09364">
        <ele>714.65</ele>
        <time>2016-07-31T08:32:14Z</time>
      </trkpt>
      <trkpt lat="48.49171" lon="7.09345">
        <ele>714.85</ele>
        <time>2016-07-31T08:32:33Z</time>
      </trkpt>
      <trkpt lat="48.49169" lon="7.09339">
        <ele>714.93</ele>
        <time>2016-07-31T08:32:45Z</time>
      </trkpt>
      <trkpt lat="48.49168" lon="7.09337">
        <ele>714.96</ele>
        <time>2016-07-31T08:33:05Z</time>
      </trkpt>
      <trkpt lat="48.49168" lon="7.09338">
        <ele>715.13</ele>
        <time>2016-07-31T08:33:33Z</time>
      </trkpt>
      <trkpt lat="48.4917" lon="7.09344">
        <ele>715.14</ele>
        <time>2016-07-31T08:34:01Z</time>
      </trkpt>
      <trkpt lat="48.49173" lon="7.09346">
        <ele>715.47</ele>
        <time>2016-07-31T08:34:22Z</time>
      </trkpt>
      <trkpt lat="48.49173" lon="7.0935">
        <ele>715.2</ele>
        <time>2016-07-31T08:34:44Z</time>
      </trkpt>
      <trkpt lat="48.49172" lon="7.09349">
        <ele>715.56</ele>
        <time>2016-07-31T08:35:13Z</time>
      </trkpt>
      <trkpt lat="48.49172" lon="7.09346">
        <ele>715.61</ele>
        <time>2016-07-31T08:35:31Z</time>
      </trkpt>
      <trkpt lat="48.49172" lon="7.09349">
        <ele>715.93</ele>
        <time>2016-07-31T08:35:48Z</time>
      </trkpt>
      <trkpt lat="48.49171" lon="7.09351">
        <ele>715.95</ele>
        <time>2016-07-31T08:36:05Z</time>
      </trkpt>
      <trkpt lat="48.49169" lon="7.09353">
        <ele>716.14</ele>
        <time>2016-07-31T08:36:33Z</time>
      </trkpt>
      <trkpt lat="48.4917" lon="7.09349">
        <ele>716.49</ele>
        <time>2016-07-31T08:36:58Z</time>
      </trkpt>
      <trkpt lat="48.49173" lon="7.09351">
        <ele>716.72</ele>
        <time>2016-07-31T08:37:14Z</time>
      </trkpt>
      <trkpt lat="48.49174" lon="7.09357">
        <ele>716.87</ele>
        <time>2016-07-31T08:37:33Z</time>
      </trkpt>
      <trkpt lat="48.49174" lon="7.09369">
        <ele>716.42</ele>
        <time>2016-07-31T08:37:41Z</time>
      </trkpt>
      <trkpt lat="48.49168" lon="7.09382">
        <ele>716.47</ele>
        <time>2016-07-31T08:37:53Z</time>
      </trkpt>
      <trkpt lat="48.49155" lon="7.09399">
        <ele>715.63</ele>
        <time>2016-07-31T08:38:12Z</time>
      </trkpt>
      <trkpt lat="48.49143" lon="7.09409">
        <ele>714.15</ele>
        <time>2016-07-31T08:38:31Z</time>
      </trkpt>
      <trkpt lat="48.49125" lon="7.09424">
        <ele>713.18</ele>
        <time>2016-07-31T08:38:51Z</time>
      </trkpt>
      <trkpt lat="48.49114" lon="7.09441">
        <ele>712.39</ele>
        <time>2016-07-31T08:39:08Z</time>
      </trkpt>
      <trkpt lat="48.49115" lon="7.09444">
        <ele>709.08</ele>
        <time>2016-07-31T08:39:11Z</time>
      </trkpt>
      <trkpt lat="48.49115" lon="7.09445">
        <ele>712.16</ele>
        <time>2016-07-31T08:39:12Z</time>
      </trkpt>
      <trkpt lat="48.49116" lon="7.09454">
        <ele>711.74</ele>
        <time>2016-07-31T08:39:34Z</time>
      </trkpt>
      <trkpt lat="48.49103" lon="7.09462">
        <ele>712.67</ele>
        <time>2016-07-31T08:39:50Z</time>
      </trkpt>
      <trkpt lat="48.49095" lon="7.0948">
        <ele>711.93</ele>
        <time>2016-07-31T08:40:04Z</time>
      </trkpt>
      <trkpt lat="48.49085" lon="7.09493">
        <ele>712.27</ele>
        <time>2016-07-31T08:40:18Z</time>
      </trkpt>
      <trkpt lat="48.49084" lon="7.09494">
        <ele>712.68</ele>
        <time>2016-07-31T08:40:19Z</time>
      </trkpt>
      <trkpt lat="48.49074" lon="7.09505">
        <ele>712.6</ele>
        <time>2016-07-31T08:40:34Z</time>
      </trkpt>
      <trkpt lat="48.49058" lon="7.09517">
        <ele>713.38</ele>
        <time>2016-07-31T08:40:54Z</time>
      </trkpt>
      <trkpt lat="48.49046" lon="7.09534">
        <ele>714.07</ele>
        <time>2016-07-31T08:41:11Z</time>
      </trkpt>
      <trkpt lat="48.49039" lon="7.09546">
        <ele>713.94</ele>
        <time>2016-07-31T08:41:23Z</time>
      </trkpt>
      <trkpt lat="48.49021" lon="7.09567">
        <ele>714.85</ele>
        <time>2016-07-31T08:41:45Z</time>
      </trkpt>
      <trkpt lat="48.49011" lon="7.09581">
        <ele>714.81</ele>
        <time>2016-07-31T08:41:59Z</time>
      </trkpt>
      <trkpt lat="48.48998" lon="7.09603">
        <ele>714.21</ele>
        <time>2016-07-31T08:42:15Z</time>
      </trkpt>
      <trkpt lat="48.49003" lon="7.09605">
        <ele>714.32</ele>
        <time>2016-07-31T08:42:36Z</time>
      </trkpt>
      <trkpt lat="48.49006" lon="7.09604">
        <ele>715.03</ele>
        <time>2016-07-31T08:42:57Z</time>
      </trkpt>
      <trkpt lat="48.48998" lon="7.09614">
        <ele>714.32</ele>
        <time>2016-07-31T08:43:13Z</time>
      </trkpt>
      <trkpt lat="48.4899" lon="7.09639">
        <ele>713.63</ele>
        <time>2016-07-31T08:43:29Z</time>
      </trkpt>
      <trkpt lat="48.48988" lon="7.09644">
        <ele>714.17</ele>
        <time>2016-07-31T08:43:33Z</time>
      </trkpt>
      <trkpt lat="48.48979" lon="7.09662">
        <ele>713.56</ele>
        <time>2016-07-31T08:43:47Z</time>
      </trkpt>
      <trkpt lat="48.4898" lon="7.09664">
        <ele>713.59</ele>
        <time>2016-07-31T08:44:02Z</time>
      </trkpt>
      <trkpt lat="48.48979" lon="7.0967">
        <ele>713.32</ele>
        <time>2016-07-31T08:44:20Z</time>
      </trkpt>
      <trkpt lat="48.48975" lon="7.09675">
        <ele>713.33</ele>
        <time>2016-07-31T08:44:24Z</time>
      </trkpt>
      <trkpt lat="48.48967" lon="7.09695">
        <ele>713.07</ele>
        <time>2016-07-31T08:44:38Z</time>
      </trkpt>
      <trkpt lat="48.48957" lon="7.09714">
        <ele>712.62</ele>
        <time>2016-07-31T08:44:50Z</time>
      </trkpt>
      <trkpt lat="48.48954" lon="7.09721">
        <ele>713</ele>
        <time>2016-07-31T08:44:54Z</time>
      </trkpt>
      <trkpt lat="48.4895" lon="7.09731">
        <ele>713.18</ele>
        <time>2016-07-31T08:45:00Z</time>
      </trkpt>
      <trkpt lat="48.48946" lon="7.09742">
        <ele>713.04</ele>
        <time>2016-07-31T08:45:07Z</time>
      </trkpt>
      <trkpt lat="48.48941" lon="7.0976">
        <ele>713.14</ele>
        <time>2016-07-31T08:45:19Z</time>
      </trkpt>
      <trkpt lat="48.4894" lon="7.09768">
        <ele>713.21</ele>
        <time>2016-07-31T08:45:24Z</time>
      </trkpt>
      <trkpt lat="48.48937" lon="7.09782">
        <ele>713.43</ele>
        <time>2016-07-31T08:45:33Z</time>
      </trkpt>
      <trkpt lat="48.48933" lon="7.09789">
        <ele>713.57</ele>
        <time>2016-07-31T08:45:38Z</time>
      </trkpt>
      <trkpt lat="48.48929" lon="7.09793">
        <ele>713.13</ele>
        <time>2016-07-31T08:45:42Z</time>
      </trkpt>
      <trkpt lat="48.48928" lon="7.09801">
        <ele>712.42</ele>
        <time>2016-07-31T08:45:46Z</time>
      </trkpt>
      <trkpt lat="48.48924" lon="7.09824">
        <ele>712.91</ele>
        <time>2016-07-31T08:45:59Z</time>
      </trkpt>
      <trkpt lat="48.48923" lon="7.09841">
        <ele>712.54</ele>
        <time>2016-07-31T08:46:09Z</time>
      </trkpt>
      <trkpt lat="48.48921" lon="7.0985">
        <ele>712.86</ele>
        <time>2016-07-31T08:46:14Z</time>
      </trkpt>
      <trkpt lat="48.48917" lon="7.09871">
        <ele>713.25</ele>
        <time>2016-07-31T08:46:25Z</time>
      </trkpt>
      <trkpt lat="48.4891" lon="7.09898">
        <ele>713.19</ele>
        <time>2016-07-31T08:46:42Z</time>
      </trkpt>
      <trkpt lat="48.48909" lon="7.09902">
        <ele>713.02</ele>
        <time>2016-07-31T08:46:45Z</time>
      </trkpt>
      <trkpt lat="48.48908" lon="7.09911">
        <ele>713.29</ele>
        <time>2016-07-31T08:46:50Z</time>
      </trkpt>
      <trkpt lat="48.48905" lon="7.09938">
        <ele>713.84</ele>
        <time>2016-07-31T08:47:05Z</time>
      </trkpt>
      <trkpt lat="48.48902" lon="7.09949">
        <ele>713.7</ele>
        <time>2016-07-31T08:47:12Z</time>
      </trkpt>
      <trkpt lat="48.489" lon="7.09971">
        <ele>712.94</ele>
        <time>2016-07-31T08:47:26Z</time>
      </trkpt>
      <trkpt lat="48.489" lon="7.09975">
        <ele>712.74</ele>
        <time>2016-07-31T08:47:28Z</time>
      </trkpt>
      <trkpt lat="48.48897" lon="7.09986">
        <ele>712.71</ele>
        <time>2016-07-31T08:47:34Z</time>
      </trkpt>
      <trkpt lat="48.4889" lon="7.1001">
        <ele>712.84</ele>
        <time>2016-07-31T08:47:48Z</time>
      </trkpt>
      <trkpt lat="48.48889" lon="7.10014">
        <ele>712.52</ele>
        <time>2016-07-31T08:47:51Z</time>
      </trkpt>
      <trkpt lat="48.48889" lon="7.10017">
        <ele>712.89</ele>
        <time>2016-07-31T08:47:53Z</time>
      </trkpt>
      <trkpt lat="48.48883" lon="7.10035">
        <ele>712.91</ele>
        <time>2016-07-31T08:48:04Z</time>
      </trkpt>
      <trkpt lat="48.48882" lon="7.10038">
        <ele>712.78</ele>
        <time>2016-07-31T08:48:06Z</time>
      </trkpt>
      <trkpt lat="48.48875" lon="7.10062">
        <ele>712.24</ele>
        <time>2016-07-31T08:48:20Z</time>
      </trkpt>
      <trkpt lat="48.48875" lon="7.10064">
        <ele>712.29</ele>
        <time>2016-07-31T08:48:21Z</time>
      </trkpt>
      <trkpt lat="48.48872" lon="7.10079">
        <ele>712.08</ele>
        <time>2016-07-31T08:48:30Z</time>
      </trkpt>
      <trkpt lat="48.4887" lon="7.10088">
        <ele>711.73</ele>
        <time>2016-07-31T08:48:35Z</time>
      </trkpt>
      <trkpt lat="48.48867" lon="7.10095">
        <ele>711.95</ele>
        <time>2016-07-31T08:48:40Z</time>
      </trkpt>
      <trkpt lat="48.48865" lon="7.10101">
        <ele>712.08</ele>
        <time>2016-07-31T08:48:44Z</time>
      </trkpt>
      <trkpt lat="48.48861" lon="7.10115">
        <ele>711.49</ele>
        <time>2016-07-31T08:48:52Z</time>
      </trkpt>
      <trkpt lat="48.48853" lon="7.10131">
        <ele>711.43</ele>
        <time>2016-07-31T08:49:04Z</time>
      </trkpt>
      <trkpt lat="48.48846" lon="7.10154">
        <ele>711.71</ele>
        <time>2016-07-31T08:49:18Z</time>
      </trkpt>
      <trkpt lat="48.48845" lon="7.10155">
        <ele>711.44</ele>
        <time>2016-07-31T08:49:19Z</time>
      </trkpt>
      <trkpt lat="48.48845" lon="7.10161">
        <ele>711.11</ele>
        <time>2016-07-31T08:49:22Z</time>
      </trkpt>
      <trkpt lat="48.48842" lon="7.10177">
        <ele>710.17</ele>
        <time>2016-07-31T08:49:38Z</time>
      </trkpt>
      <trkpt lat="48.48841" lon="7.10183">
        <ele>710.51</ele>
        <time>2016-07-31T08:49:42Z</time>
      </trkpt>
      <trkpt lat="48.48835" lon="7.10199">
        <ele>710.46</ele>
        <time>2016-07-31T08:49:53Z</time>
      </trkpt>
      <trkpt lat="48.48834" lon="7.10206">
        <ele>710.47</ele>
        <time>2016-07-31T08:49:57Z</time>
      </trkpt>
      <trkpt lat="48.48832" lon="7.10209">
        <ele>710.34</ele>
        <time>2016-07-31T08:49:59Z</time>
      </trkpt>
      <trkpt lat="48.48829" lon="7.10222">
        <ele>709.79</ele>
        <time>2016-07-31T08:50:08Z</time>
      </trkpt>
      <trkpt lat="48.48826" lon="7.10234">
        <ele>710.04</ele>
        <time>2016-07-31T08:50:17Z</time>
      </trkpt>
      <trkpt lat="48.48817" lon="7.10255">
        <ele>709.64</ele>
        <time>2016-07-31T08:50:33Z</time>
      </trkpt>
      <trkpt lat="48.48812" lon="7.10274">
        <ele>709.12</ele>
        <time>2016-07-31T08:50:42Z</time>
      </trkpt>
      <trkpt lat="48.488" lon="7.10303">
        <ele>708.89</ele>
        <time>2016-07-31T08:51:02Z</time>
      </trkpt>
      <trkpt lat="48.48784" lon="7.10326">
        <ele>709</ele>
        <time>2016-07-31T08:51:20Z</time>
      </trkpt>
      <trkpt lat="48.48779" lon="7.10339">
        <ele>708.78</ele>
        <time>2016-07-31T08:51:40Z</time>
      </trkpt>
      <trkpt lat="48.48775" lon="7.10344">
        <ele>708.69</ele>
        <time>2016-07-31T08:52:04Z</time>
      </trkpt>
      <trkpt lat="48.48771" lon="7.10343">
        <ele>708.76</ele>
        <time>2016-07-31T08:52:32Z</time>
      </trkpt>
      <trkpt lat="48.48776" lon="7.10344">
        <ele>708.9</ele>
        <time>2016-07-31T08:52:55Z</time>
      </trkpt>
      <trkpt lat="48.48775" lon="7.1035">
        <ele>708.74</ele>
        <time>2016-07-31T08:53:17Z</time>
      </trkpt>
      <trkpt lat="48.48772" lon="7.10355">
        <ele>708.49</ele>
        <time>2016-07-31T08:53:22Z</time>
      </trkpt>
      <trkpt lat="48.48765" lon="7.10367">
        <ele>708.53</ele>
        <time>2016-07-31T08:53:31Z</time>
      </trkpt>
      <trkpt lat="48.48762" lon="7.10373">
        <ele>708.06</ele>
        <time>2016-07-31T08:53:35Z</time>
      </trkpt>
      <trkpt lat="48.48752" lon="7.10388">
        <ele>707.89</ele>
        <time>2016-07-31T08:53:49Z</time>
      </trkpt>
      <trkpt lat="48.4875" lon="7.10396">
        <ele>707.77</ele>
        <time>2016-07-31T08:53:54Z</time>
      </trkpt>
      <trkpt lat="48.48743" lon="7.10408">
        <ele>707.35</ele>
        <time>2016-07-31T08:54:08Z</time>
      </trkpt>
      <trkpt lat="48.48737" lon="7.10423">
        <ele>708.02</ele>
        <time>2016-07-31T08:54:25Z</time>
      </trkpt>
      <trkpt lat="48.48725" lon="7.10442">
        <ele>707.58</ele>
        <time>2016-07-31T08:54:43Z</time>
      </trkpt>
      <trkpt lat="48.48718" lon="7.10467">
        <ele>706.7</ele>
        <time>2016-07-31T08:55:01Z</time>
      </trkpt>
      <trkpt lat="48.48718" lon="7.10494">
        <ele>705.79</ele>
        <time>2016-07-31T08:55:18Z</time>
      </trkpt>
      <trkpt lat="48.48719" lon="7.10504">
        <ele>705.09</ele>
        <time>2016-07-31T08:55:28Z</time>
      </trkpt>
      <trkpt lat="48.48717" lon="7.10507">
        <ele>705.54</ele>
        <time>2016-07-31T08:55:51Z</time>
      </trkpt>
      <trkpt lat="48.48711" lon="7.10515">
        <ele>705</ele>
        <time>2016-07-31T08:56:07Z</time>
      </trkpt>
      <trkpt lat="48.48704" lon="7.10532">
        <ele>705.91</ele>
        <time>2016-07-31T08:56:21Z</time>
      </trkpt>
      <trkpt lat="48.48704" lon="7.10542">
        <ele>706.05</ele>
        <time>2016-07-31T08:56:27Z</time>
      </trkpt>
      <trkpt lat="48.48702" lon="7.10546">
        <ele>705.27</ele>
        <time>2016-07-31T08:56:29Z</time>
      </trkpt>
      <trkpt lat="48.48702" lon="7.10553">
        <ele>705.96</ele>
        <time>2016-07-31T08:56:33Z</time>
      </trkpt>
      <trkpt lat="48.487" lon="7.10558">
        <ele>704.88</ele>
        <time>2016-07-31T08:56:36Z</time>
      </trkpt>
      <trkpt lat="48.487" lon="7.10561">
        <ele>704.81</ele>
        <time>2016-07-31T08:56:38Z</time>
      </trkpt>
      <trkpt lat="48.48696" lon="7.10577">
        <ele>705.15</ele>
        <time>2016-07-31T08:56:49Z</time>
      </trkpt>
      <trkpt lat="48.4869" lon="7.10583">
        <ele>704.91</ele>
        <time>2016-07-31T08:57:09Z</time>
      </trkpt>
      <trkpt lat="48.48694" lon="7.10588">
        <ele>705.12</ele>
        <time>2016-07-31T08:57:32Z</time>
      </trkpt>
      <trkpt lat="48.48693" lon="7.10587">
        <ele>705.41</ele>
        <time>2016-07-31T08:57:55Z</time>
      </trkpt>
      <trkpt lat="48.48696" lon="7.10584">
        <ele>704.95</ele>
        <time>2016-07-31T08:58:17Z</time>
      </trkpt>
      <trkpt lat="48.48701" lon="7.10578">
        <ele>704.84</ele>
        <time>2016-07-31T08:58:24Z</time>
      </trkpt>
      <trkpt lat="48.48712" lon="7.10563">
        <ele>705.48</ele>
        <time>2016-07-31T08:58:40Z</time>
      </trkpt>
      <trkpt lat="48.48718" lon="7.10576">
        <ele>706.35</ele>
        <time>2016-07-31T08:58:50Z</time>
      </trkpt>
      <trkpt lat="48.48719" lon="7.10579">
        <ele>706.2</ele>
        <time>2016-07-31T08:58:52Z</time>
      </trkpt>
      <trkpt lat="48.48715" lon="7.10602">
        <ele>706.22</ele>
        <time>2016-07-31T08:59:11Z</time>
      </trkpt>
      <trkpt lat="48.48711" lon="7.10627">
        <ele>706.82</ele>
        <time>2016-07-31T08:59:30Z</time>
      </trkpt>
      <trkpt lat="48.48712" lon="7.10661">
        <ele>709.77</ele>
        <time>2016-07-31T08:59:52Z</time>
      </trkpt>
      <trkpt lat="48.48704" lon="7.10683">
        <ele>709.7</ele>
        <time>2016-07-31T09:00:08Z</time>
      </trkpt>
      <trkpt lat="48.48693" lon="7.10698">
        <ele>707.28</ele>
        <time>2016-07-31T09:00:27Z</time>
      </trkpt>
      <trkpt lat="48.48678" lon="7.10714">
        <ele>707.24</ele>
        <time>2016-07-31T09:00:47Z</time>
      </trkpt>
      <trkpt lat="48.48675" lon="7.10717">
        <ele>707.09</ele>
        <time>2016-07-31T09:00:49Z</time>
      </trkpt>
      <trkpt lat="48.48663" lon="7.1074">
        <ele>706.72</ele>
        <time>2016-07-31T09:01:07Z</time>
      </trkpt>
      <trkpt lat="48.48656" lon="7.10766">
        <ele>706.24</ele>
        <time>2016-07-31T09:01:29Z</time>
      </trkpt>
      <trkpt lat="48.4865" lon="7.10794">
        <ele>706.81</ele>
        <time>2016-07-31T09:01:49Z</time>
      </trkpt>
      <trkpt lat="48.48639" lon="7.10823">
        <ele>707.52</ele>
        <time>2016-07-31T09:02:06Z</time>
      </trkpt>
      <trkpt lat="48.48634" lon="7.10845">
        <ele>707.06</ele>
        <time>2016-07-31T09:02:26Z</time>
      </trkpt>
      <trkpt lat="48.4863" lon="7.10874">
        <ele>707.73</ele>
        <time>2016-07-31T09:02:45Z</time>
      </trkpt>
      <trkpt lat="48.48622" lon="7.10906">
        <ele>710.08</ele>
        <time>2016-07-31T09:03:05Z</time>
      </trkpt>
      <trkpt lat="48.4862" lon="7.10935">
        <ele>710.39</ele>
        <time>2016-07-31T09:03:20Z</time>
      </trkpt>
      <trkpt lat="48.48616" lon="7.1095">
        <ele>710.41</ele>
        <time>2016-07-31T09:03:36Z</time>
      </trkpt>
      <trkpt lat="48.48616" lon="7.10952">
        <ele>710.72</ele>
        <time>2016-07-31T09:03:37Z</time>
      </trkpt>
      <trkpt lat="48.48602" lon="7.10989">
        <ele>710.29</ele>
        <time>2016-07-31T09:03:54Z</time>
      </trkpt>
      <trkpt lat="48.48599" lon="7.11004">
        <ele>709.12</ele>
        <time>2016-07-31T09:04:08Z</time>
      </trkpt>
      <trkpt lat="48.48595" lon="7.11032">
        <ele>708.45</ele>
        <time>2016-07-31T09:04:24Z</time>
      </trkpt>
      <trkpt lat="48.48595" lon="7.11055">
        <ele>708.74</ele>
        <time>2016-07-31T09:04:40Z</time>
      </trkpt>
      <trkpt lat="48.48596" lon="7.11079">
        <ele>708.35</ele>
        <time>2016-07-31T09:04:57Z</time>
      </trkpt>
      <trkpt lat="48.48593" lon="7.11097">
        <ele>710.7</ele>
        <time>2016-07-31T09:05:13Z</time>
      </trkpt>
      <trkpt lat="48.48594" lon="7.11126">
        <ele>711.7</ele>
        <time>2016-07-31T09:05:33Z</time>
      </trkpt>
      <trkpt lat="48.48596" lon="7.11152">
        <ele>712.86</ele>
        <time>2016-07-31T09:05:50Z</time>
      </trkpt>
      <trkpt lat="48.48598" lon="7.11174">
        <ele>713.5</ele>
        <time>2016-07-31T09:06:10Z</time>
      </trkpt>
      <trkpt lat="48.48593" lon="7.11203">
        <ele>715.09</ele>
        <time>2016-07-31T09:06:30Z</time>
      </trkpt>
      <trkpt lat="48.48586" lon="7.1123">
        <ele>715.88</ele>
        <time>2016-07-31T09:06:50Z</time>
      </trkpt>
      <trkpt lat="48.48576" lon="7.11254">
        <ele>715.8</ele>
        <time>2016-07-31T09:07:09Z</time>
      </trkpt>
      <trkpt lat="48.48567" lon="7.11279">
        <ele>716.41</ele>
        <time>2016-07-31T09:07:29Z</time>
      </trkpt>
      <trkpt lat="48.48555" lon="7.11291">
        <ele>716.86</ele>
        <time>2016-07-31T09:07:47Z</time>
      </trkpt>
      <trkpt lat="48.48547" lon="7.11295">
        <ele>716.36</ele>
        <time>2016-07-31T09:08:09Z</time>
      </trkpt>
      <trkpt lat="48.48549" lon="7.11289">
        <ele>716.42</ele>
        <time>2016-07-31T09:08:16Z</time>
      </trkpt>
      <trkpt lat="48.48549" lon="7.11286">
        <ele>716.78</ele>
        <time>2016-07-31T09:08:18Z</time>
      </trkpt>
      <trkpt lat="48.48551" lon="7.11279">
        <ele>716.46</ele>
        <time>2016-07-31T09:08:46Z</time>
      </trkpt>
      <trkpt lat="48.48541" lon="7.11268">
        <ele>717.06</ele>
        <time>2016-07-31T09:09:06Z</time>
      </trkpt>
      <trkpt lat="48.48534" lon="7.11263">
        <ele>720.12</ele>
        <time>2016-07-31T09:09:14Z</time>
      </trkpt>
      <trkpt lat="48.48523" lon="7.11248">
        <ele>721.82</ele>
        <time>2016-07-31T09:09:34Z</time>
      </trkpt>
      <trkpt lat="48.48517" lon="7.11242">
        <ele>722.93</ele>
        <time>2016-07-31T09:09:44Z</time>
      </trkpt>
      <trkpt lat="48.48499" lon="7.11218">
        <ele>724.68</ele>
        <time>2016-07-31T09:10:05Z</time>
      </trkpt>
      <trkpt lat="48.48487" lon="7.11205">
        <ele>727.03</ele>
        <time>2016-07-31T09:10:26Z</time>
      </trkpt>
      <trkpt lat="48.48471" lon="7.11192">
        <ele>729.15</ele>
        <time>2016-07-31T09:10:47Z</time>
      </trkpt>
      <trkpt lat="48.48461" lon="7.11175">
        <ele>729.68</ele>
        <time>2016-07-31T09:11:07Z</time>
      </trkpt>
      <trkpt lat="48.48459" lon="7.11172">
        <ele>731.28</ele>
        <time>2016-07-31T09:11:09Z</time>
      </trkpt>
      <trkpt lat="48.48458" lon="7.11172">
        <ele>729.95</ele>
        <time>2016-07-31T09:11:11Z</time>
      </trkpt>
      <trkpt lat="48.48445" lon="7.11159">
        <ele>732.24</ele>
        <time>2016-07-31T09:11:33Z</time>
      </trkpt>
      <trkpt lat="48.48435" lon="7.11146">
        <ele>733.68</ele>
        <time>2016-07-31T09:11:52Z</time>
      </trkpt>
      <trkpt lat="48.48423" lon="7.11137">
        <ele>735.58</ele>
        <time>2016-07-31T09:12:13Z</time>
      </trkpt>
      <trkpt lat="48.48413" lon="7.1112">
        <ele>736.9</ele>
        <time>2016-07-31T09:12:27Z</time>
      </trkpt>
      <trkpt lat="48.48399" lon="7.11109">
        <ele>739.11</ele>
        <time>2016-07-31T09:12:48Z</time>
      </trkpt>
      <trkpt lat="48.48386" lon="7.111">
        <ele>741.16</ele>
        <time>2016-07-31T09:13:11Z</time>
      </trkpt>
      <trkpt lat="48.48375" lon="7.11094">
        <ele>740.87</ele>
        <time>2016-07-31T09:13:33Z</time>
      </trkpt>
      <trkpt lat="48.48365" lon="7.11091">
        <ele>744.4</ele>
        <time>2016-07-31T09:13:50Z</time>
      </trkpt>
      <trkpt lat="48.48357" lon="7.11087">
        <ele>743.83</ele>
        <time>2016-07-31T09:14:05Z</time>
      </trkpt>
      <trkpt lat="48.48341" lon="7.11077">
        <ele>745.53</ele>
        <time>2016-07-31T09:14:27Z</time>
      </trkpt>
      <trkpt lat="48.48332" lon="7.11036">
        <ele>747.28</ele>
        <time>2016-07-31T09:14:47Z</time>
      </trkpt>
      <trkpt lat="48.48323" lon="7.11009">
        <ele>748.36</ele>
        <time>2016-07-31T09:15:10Z</time>
      </trkpt>
      <trkpt lat="48.48324" lon="7.11001">
        <ele>749.69</ele>
        <time>2016-07-31T09:15:30Z</time>
      </trkpt>
      <trkpt lat="48.48325" lon="7.10985">
        <ele>750.95</ele>
        <time>2016-07-31T09:15:50Z</time>
      </trkpt>
      <trkpt lat="48.48326" lon="7.10953">
        <ele>749.92</ele>
        <time>2016-07-31T09:16:14Z</time>
      </trkpt>
      <trkpt lat="48.48325" lon="7.10947">
        <ele>752.96</ele>
        <time>2016-07-31T09:16:20Z</time>
      </trkpt>
      <trkpt lat="48.48332" lon="7.10933">
        <ele>752.81</ele>
        <time>2016-07-31T09:16:42Z</time>
      </trkpt>
      <trkpt lat="48.4833" lon="7.10913">
        <ele>754.67</ele>
        <time>2016-07-31T09:17:06Z</time>
      </trkpt>
      <trkpt lat="48.48328" lon="7.10886">
        <ele>755.6</ele>
        <time>2016-07-31T09:17:28Z</time>
      </trkpt>
      <trkpt lat="48.48328" lon="7.10855">
        <ele>751.57</ele>
        <time>2016-07-31T09:17:47Z</time>
      </trkpt>
      <trkpt lat="48.48328" lon="7.10855">
        <ele>756.38</ele>
        <time>2016-07-31T09:17:48Z</time>
      </trkpt>
      <trkpt lat="48.48327" lon="7.10852">
        <ele>753.03</ele>
        <time>2016-07-31T09:17:55Z</time>
      </trkpt>
      <trkpt lat="48.48324" lon="7.10843">
        <ele>756.21</ele>
        <time>2016-07-31T09:18:07Z</time>
      </trkpt>
      <trkpt lat="48.48322" lon="7.10839">
        <ele>756.03</ele>
        <time>2016-07-31T09:18:08Z</time>
      </trkpt>
      <trkpt lat="48.48321" lon="7.10817">
        <ele>755.87</ele>
        <time>2016-07-31T09:18:36Z</time>
      </trkpt>
      <trkpt lat="48.48323" lon="7.10812">
        <ele>756.51</ele>
        <time>2016-07-31T09:19:02Z</time>
      </trkpt>
      <trkpt lat="48.48316" lon="7.10801">
        <ele>757.64</ele>
        <time>2016-07-31T09:19:27Z</time>
      </trkpt>
      <trkpt lat="48.4831" lon="7.10785">
        <ele>758.71</ele>
        <time>2016-07-31T09:19:49Z</time>
      </trkpt>
      <trkpt lat="48.48308" lon="7.1077">
        <ele>760.5</ele>
        <time>2016-07-31T09:20:14Z</time>
      </trkpt>
      <trkpt lat="48.48301" lon="7.10753">
        <ele>761.12</ele>
        <time>2016-07-31T09:20:35Z</time>
      </trkpt>
      <trkpt lat="48.4829" lon="7.10726">
        <ele>763.58</ele>
        <time>2016-07-31T09:20:56Z</time>
      </trkpt>
      <trkpt lat="48.48282" lon="7.10712">
        <ele>763.73</ele>
        <time>2016-07-31T09:21:18Z</time>
      </trkpt>
      <trkpt lat="48.48274" lon="7.10693">
        <ele>763.71</ele>
        <time>2016-07-31T09:21:38Z</time>
      </trkpt>
      <trkpt lat="48.48263" lon="7.10665">
        <ele>765.7</ele>
        <time>2016-07-31T09:22:01Z</time>
      </trkpt>
      <trkpt lat="48.48251" lon="7.10633">
        <ele>765.77</ele>
        <time>2016-07-31T09:22:23Z</time>
      </trkpt>
      <trkpt lat="48.4824" lon="7.10617">
        <ele>767.54</ele>
        <time>2016-07-31T09:22:47Z</time>
      </trkpt>
      <trkpt lat="48.48228" lon="7.1059">
        <ele>768.05</ele>
        <time>2016-07-31T09:23:11Z</time>
      </trkpt>
      <trkpt lat="48.4822" lon="7.10581">
        <ele>768.87</ele>
        <time>2016-07-31T09:23:30Z</time>
      </trkpt>
      <trkpt lat="48.4821" lon="7.10566">
        <ele>769.76</ele>
        <time>2016-07-31T09:23:49Z</time>
      </trkpt>
      <trkpt lat="48.48201" lon="7.10543">
        <ele>769.53</ele>
        <time>2016-07-31T09:24:10Z</time>
      </trkpt>
      <trkpt lat="48.48191" lon="7.10531">
        <ele>768.74</ele>
        <time>2016-07-31T09:24:32Z</time>
      </trkpt>
      <trkpt lat="48.48178" lon="7.10507">
        <ele>769.45</ele>
        <time>2016-07-31T09:24:52Z</time>
      </trkpt>
      <trkpt lat="48.48161" lon="7.1047">
        <ele>770.7</ele>
        <time>2016-07-31T09:25:16Z</time>
      </trkpt>
      <trkpt lat="48.48151" lon="7.10448">
        <ele>772.02</ele>
        <time>2016-07-31T09:25:39Z</time>
      </trkpt>
      <trkpt lat="48.48142" lon="7.10426">
        <ele>772.94</ele>
        <time>2016-07-31T09:25:58Z</time>
      </trkpt>
      <trkpt lat="48.48125" lon="7.10395">
        <ele>772.51</ele>
        <time>2016-07-31T09:26:20Z</time>
      </trkpt>
      <trkpt lat="48.48111" lon="7.10381">
        <ele>774.03</ele>
        <time>2016-07-31T09:26:42Z</time>
      </trkpt>
      <trkpt lat="48.481" lon="7.10362">
        <ele>774.36</ele>
        <time>2016-07-31T09:27:02Z</time>
      </trkpt>
      <trkpt lat="48.48089" lon="7.10335">
        <ele>774.26</ele>
        <time>2016-07-31T09:27:25Z</time>
      </trkpt>
      <trkpt lat="48.48069" lon="7.10297">
        <ele>774.24</ele>
        <time>2016-07-31T09:27:47Z</time>
      </trkpt>
      <trkpt lat="48.48064" lon="7.10294">
        <ele>773.76</ele>
        <time>2016-07-31T09:27:53Z</time>
      </trkpt>
      <trkpt lat="48.4805" lon="7.10285">
        <ele>774.18</ele>
        <time>2016-07-31T09:28:14Z</time>
      </trkpt>
      <trkpt lat="48.48037" lon="7.10281">
        <ele>774.84</ele>
        <time>2016-07-31T09:28:38Z</time>
      </trkpt>
      <trkpt lat="48.48035" lon="7.10281">
        <ele>775.22</ele>
        <time>2016-07-31T09:29:05Z</time>
      </trkpt>
      <trkpt lat="48.48033" lon="7.10274">
        <ele>774.81</ele>
        <time>2016-07-31T09:29:32Z</time>
      </trkpt>
      <trkpt lat="48.48023" lon="7.10252">
        <ele>774.47</ele>
        <time>2016-07-31T09:29:54Z</time>
      </trkpt>
      <trkpt lat="48.48015" lon="7.10221">
        <ele>772.39</ele>
        <time>2016-07-31T09:30:20Z</time>
      </trkpt>
      <trkpt lat="48.48008" lon="7.10192">
        <ele>770.48</ele>
        <time>2016-07-31T09:30:44Z</time>
      </trkpt>
      <trkpt lat="48.48001" lon="7.10164">
        <ele>769.74</ele>
        <time>2016-07-31T09:31:04Z</time>
      </trkpt>
      <trkpt lat="48.47991" lon="7.10138">
        <ele>768.54</ele>
        <time>2016-07-31T09:31:26Z</time>
      </trkpt>
      <trkpt lat="48.47983" lon="7.10115">
        <ele>767.41</ele>
        <time>2016-07-31T09:31:47Z</time>
      </trkpt>
      <trkpt lat="48.47972" lon="7.10097">
        <ele>764.97</ele>
        <time>2016-07-31T09:32:06Z</time>
      </trkpt>
      <trkpt lat="48.47956" lon="7.10091">
        <ele>761.64</ele>
        <time>2016-07-31T09:32:27Z</time>
      </trkpt>
      <trkpt lat="48.47951" lon="7.1009">
        <ele>760.14</ele>
        <time>2016-07-31T09:32:36Z</time>
      </trkpt>
      <trkpt lat="48.47926" lon="7.10085">
        <ele>758.31</ele>
        <time>2016-07-31T09:32:54Z</time>
      </trkpt>
      <trkpt lat="48.47923" lon="7.10076">
        <ele>759.28</ele>
        <time>2016-07-31T09:33:20Z</time>
      </trkpt>
      <trkpt lat="48.4792" lon="7.1007">
        <ele>759.84</ele>
        <time>2016-07-31T09:33:45Z</time>
      </trkpt>
      <trkpt lat="48.47918" lon="7.10067">
        <ele>759.67</ele>
        <time>2016-07-31T09:33:55Z</time>
      </trkpt>
      <trkpt lat="48.47912" lon="7.10068">
        <ele>759.33</ele>
        <time>2016-07-31T09:34:18Z</time>
      </trkpt>
      <trkpt lat="48.47905" lon="7.10099">
        <ele>756.99</ele>
        <time>2016-07-31T09:34:40Z</time>
      </trkpt>
      <trkpt lat="48.47905" lon="7.10128">
        <ele>756.11</ele>
        <time>2016-07-31T09:35:01Z</time>
      </trkpt>
      <trkpt lat="48.47904" lon="7.10165">
        <ele>754.01</ele>
        <time>2016-07-31T09:35:24Z</time>
      </trkpt>
      <trkpt lat="48.47905" lon="7.10195">
        <ele>752.49</ele>
        <time>2016-07-31T09:35:45Z</time>
      </trkpt>
      <trkpt lat="48.47912" lon="7.10226">
        <ele>750.55</ele>
        <time>2016-07-31T09:36:06Z</time>
      </trkpt>
      <trkpt lat="48.47917" lon="7.10251">
        <ele>750.16</ele>
        <time>2016-07-31T09:36:24Z</time>
      </trkpt>
      <trkpt lat="48.47921" lon="7.10281">
        <ele>748.36</ele>
        <time>2016-07-31T09:36:42Z</time>
      </trkpt>
      <trkpt lat="48.47913" lon="7.10314">
        <ele>746.4</ele>
        <time>2016-07-31T09:37:02Z</time>
      </trkpt>
      <trkpt lat="48.47912" lon="7.10339">
        <ele>745.41</ele>
        <time>2016-07-31T09:37:20Z</time>
      </trkpt>
      <trkpt lat="48.47907" lon="7.10352">
        <ele>745.31</ele>
        <time>2016-07-31T09:37:26Z</time>
      </trkpt>
      <trkpt lat="48.47906" lon="7.10357">
        <ele>745.34</ele>
        <time>2016-07-31T09:37:29Z</time>
      </trkpt>
      <trkpt lat="48.47904" lon="7.10364">
        <ele>744.63</ele>
        <time>2016-07-31T09:37:32Z</time>
      </trkpt>
      <trkpt lat="48.47901" lon="7.10373">
        <ele>744.48</ele>
        <time>2016-07-31T09:37:36Z</time>
      </trkpt>
      <trkpt lat="48.47899" lon="7.1038">
        <ele>744.54</ele>
        <time>2016-07-31T09:37:39Z</time>
      </trkpt>
      <trkpt lat="48.47897" lon="7.10384">
        <ele>744.4</ele>
        <time>2016-07-31T09:37:42Z</time>
      </trkpt>
      <trkpt lat="48.47893" lon="7.10395">
        <ele>743.99</ele>
        <time>2016-07-31T09:37:47Z</time>
      </trkpt>
      <trkpt lat="48.47885" lon="7.10425">
        <ele>743.31</ele>
        <time>2016-07-31T09:38:00Z</time>
      </trkpt>
      <trkpt lat="48.47879" lon="7.10449">
        <ele>741.25</ele>
        <time>2016-07-31T09:38:17Z</time>
      </trkpt>
      <trkpt lat="48.47878" lon="7.10454">
        <ele>741.45</ele>
        <time>2016-07-31T09:38:21Z</time>
      </trkpt>
      <trkpt lat="48.47878" lon="7.10462">
        <ele>741.19</ele>
        <time>2016-07-31T09:38:26Z</time>
      </trkpt>
      <trkpt lat="48.47873" lon="7.10488">
        <ele>740.13</ele>
        <time>2016-07-31T09:38:40Z</time>
      </trkpt>
      <trkpt lat="48.47872" lon="7.10492">
        <ele>739.52</ele>
        <time>2016-07-31T09:38:42Z</time>
      </trkpt>
      <trkpt lat="48.47867" lon="7.10515">
        <ele>739.13</ele>
        <time>2016-07-31T09:38:58Z</time>
      </trkpt>
      <trkpt lat="48.47864" lon="7.10528">
        <ele>739.04</ele>
        <time>2016-07-31T09:39:13Z</time>
      </trkpt>
      <trkpt lat="48.47863" lon="7.10531">
        <ele>738.14</ele>
        <time>2016-07-31T09:39:15Z</time>
      </trkpt>
      <trkpt lat="48.47853" lon="7.10534">
        <ele>736.98</ele>
        <time>2016-07-31T09:39:31Z</time>
      </trkpt>
      <trkpt lat="48.47857" lon="7.10535">
        <ele>738.18</ele>
        <time>2016-07-31T09:39:45Z</time>
      </trkpt>
      <trkpt lat="48.47861" lon="7.10531">
        <ele>738.67</ele>
        <time>2016-07-31T09:39:57Z</time>
      </trkpt>
      <trkpt lat="48.47861" lon="7.1051">
        <ele>738.31</ele>
        <time>2016-07-31T09:40:10Z</time>
      </trkpt>
      <trkpt lat="48.47858" lon="7.10486">
        <ele>737.88</ele>
        <time>2016-07-31T09:40:24Z</time>
      </trkpt>
      <trkpt lat="48.47859" lon="7.10466">
        <ele>737.34</ele>
        <time>2016-07-31T09:40:37Z</time>
      </trkpt>
      <trkpt lat="48.47859" lon="7.10458">
        <ele>737.56</ele>
        <time>2016-07-31T09:40:42Z</time>
      </trkpt>
      <trkpt lat="48.4786" lon="7.10441">
        <ele>737.02</ele>
        <time>2016-07-31T09:40:55Z</time>
      </trkpt>
      <trkpt lat="48.47861" lon="7.10436">
        <ele>736.8</ele>
        <time>2016-07-31T09:40:58Z</time>
      </trkpt>
      <trkpt lat="48.4786" lon="7.10414">
        <ele>736.4</ele>
        <time>2016-07-31T09:41:12Z</time>
      </trkpt>
      <trkpt lat="48.4786" lon="7.10389">
        <ele>736.4</ele>
        <time>2016-07-31T09:41:25Z</time>
      </trkpt>
      <trkpt lat="48.4786" lon="7.10356">
        <ele>736.4</ele>
        <time>2016-07-31T09:41:39Z</time>
      </trkpt>
      <trkpt lat="48.47862" lon="7.10351">
        <ele>736.23</ele>
        <time>2016-07-31T09:41:43Z</time>
      </trkpt>
      <trkpt lat="48.47862" lon="7.10343">
        <ele>735.93</ele>
        <time>2016-07-31T09:41:48Z</time>
      </trkpt>
      <trkpt lat="48.47864" lon="7.1033">
        <ele>735.66</ele>
        <time>2016-07-31T09:41:56Z</time>
      </trkpt>
      <trkpt lat="48.47866" lon="7.10309">
        <ele>735.59</ele>
        <time>2016-07-31T09:42:10Z</time>
      </trkpt>
      <trkpt lat="48.47867" lon="7.10293">
        <ele>735.51</ele>
        <time>2016-07-31T09:42:21Z</time>
      </trkpt>
      <trkpt lat="48.47864" lon="7.10271">
        <ele>735.3</ele>
        <time>2016-07-31T09:42:34Z</time>
      </trkpt>
      <trkpt lat="48.47862" lon="7.10247">
        <ele>734.83</ele>
        <time>2016-07-31T09:42:46Z</time>
      </trkpt>
      <trkpt lat="48.4786" lon="7.10236">
        <ele>734.81</ele>
        <time>2016-07-31T09:42:53Z</time>
      </trkpt>
      <trkpt lat="48.47857" lon="7.10212">
        <ele>734.68</ele>
        <time>2016-07-31T09:43:07Z</time>
      </trkpt>
      <trkpt lat="48.47856" lon="7.10196">
        <ele>734.04</ele>
        <time>2016-07-31T09:43:21Z</time>
      </trkpt>
      <trkpt lat="48.47857" lon="7.10193">
        <ele>734.96</ele>
        <time>2016-07-31T09:43:37Z</time>
      </trkpt>
      <trkpt lat="48.47854" lon="7.10202">
        <ele>735.44</ele>
        <time>2016-07-31T09:43:54Z</time>
      </trkpt>
      <trkpt lat="48.47853" lon="7.10199">
        <ele>735</ele>
        <time>2016-07-31T09:44:01Z</time>
      </trkpt>
      <trkpt lat="48.47853" lon="7.10194">
        <ele>735.34</ele>
        <time>2016-07-31T09:44:05Z</time>
      </trkpt>
      <trkpt lat="48.47847" lon="7.10184">
        <ele>735</ele>
        <time>2016-07-31T09:44:21Z</time>
      </trkpt>
      <trkpt lat="48.4784" lon="7.102">
        <ele>732.87</ele>
        <time>2016-07-31T09:44:39Z</time>
      </trkpt>
      <trkpt lat="48.47839" lon="7.10213">
        <ele>734.17</ele>
        <time>2016-07-31T09:44:57Z</time>
      </trkpt>
      <trkpt lat="48.47841" lon="7.10215">
        <ele>730.52</ele>
        <time>2016-07-31T09:45:03Z</time>
      </trkpt>
      <trkpt lat="48.47842" lon="7.10215">
        <ele>734.67</ele>
        <time>2016-07-31T09:45:05Z</time>
      </trkpt>
      <trkpt lat="48.47842" lon="7.10215">
        <ele>733.83</ele>
        <time>2016-07-31T09:45:06Z</time>
      </trkpt>
      <trkpt lat="48.47841" lon="7.10214">
        <ele>734.26</ele>
        <time>2016-07-31T09:45:26Z</time>
      </trkpt>
      <trkpt lat="48.47842" lon="7.10213">
        <ele>734.17</ele>
        <time>2016-07-31T09:45:51Z</time>
      </trkpt>
      <trkpt lat="48.47844" lon="7.10213">
        <ele>734.83</ele>
        <time>2016-07-31T09:46:14Z</time>
      </trkpt>
      <trkpt lat="48.47846" lon="7.1021">
        <ele>734.72</ele>
        <time>2016-07-31T09:46:43Z</time>
      </trkpt>
      <trkpt lat="48.47832" lon="7.10212">
        <ele>735.05</ele>
        <time>2016-07-31T09:47:06Z</time>
      </trkpt>
      <trkpt lat="48.47829" lon="7.10209">
        <ele>735.8</ele>
        <time>2016-07-31T09:47:29Z</time>
      </trkpt>
      <trkpt lat="48.47836" lon="7.10214">
        <ele>736.2</ele>
        <time>2016-07-31T09:47:50Z</time>
      </trkpt>
      <trkpt lat="48.4784" lon="7.10212">
        <ele>735.58</ele>
        <time>2016-07-31T09:48:17Z</time>
      </trkpt>
      <trkpt lat="48.47846" lon="7.10211">
        <ele>736.96</ele>
        <time>2016-07-31T09:48:56Z</time>
      </trkpt>
      <trkpt lat="48.47841" lon="7.10214">
        <ele>736.27</ele>
        <time>2016-07-31T09:49:27Z</time>
      </trkpt>
      <trkpt lat="48.47841" lon="7.10214">
        <ele>737.04</ele>
        <time>2016-07-31T09:50:01Z</time>
      </trkpt>
      <trkpt lat="48.47838" lon="7.10218">
        <ele>737.04</ele>
        <time>2016-07-31T09:50:40Z</time>
      </trkpt>
      <trkpt lat="48.47838" lon="7.10223">
        <ele>737.52</ele>
        <time>2016-07-31T09:51:04Z</time>
      </trkpt>
      <trkpt lat="48.47838" lon="7.10222">
        <ele>737.58</ele>
        <time>2016-07-31T09:51:11Z</time>
      </trkpt>
      <trkpt lat="48.47839" lon="7.10215">
        <ele>738.1</ele>
        <time>2016-07-31T09:51:37Z</time>
      </trkpt>
      <trkpt lat="48.47841" lon="7.10212">
        <ele>737.9</ele>
        <time>2016-07-31T09:52:06Z</time>
      </trkpt>
      <trkpt lat="48.47842" lon="7.1021">
        <ele>737.68</ele>
        <time>2016-07-31T09:52:30Z</time>
      </trkpt>
      <trkpt lat="48.4784" lon="7.10214">
        <ele>738.93</ele>
        <time>2016-07-31T09:52:55Z</time>
      </trkpt>
      <trkpt lat="48.47838" lon="7.10215">
        <ele>738.91</ele>
        <time>2016-07-31T09:53:23Z</time>
      </trkpt>
      <trkpt lat="48.47842" lon="7.10215">
        <ele>739.23</ele>
        <time>2016-07-31T09:53:53Z</time>
      </trkpt>
      <trkpt lat="48.47842" lon="7.10216">
        <ele>739.39</ele>
        <time>2016-07-31T09:54:25Z</time>
      </trkpt>
      <trkpt lat="48.47839" lon="7.10219">
        <ele>740.01</ele>
        <time>2016-07-31T09:54:48Z</time>
      </trkpt>
      <trkpt lat="48.47837" lon="7.10216">
        <ele>739.71</ele>
        <time>2016-07-31T09:55:17Z</time>
      </trkpt>
      <trkpt lat="48.47835" lon="7.10217">
        <ele>739.68</ele>
        <time>2016-07-31T09:55:45Z</time>
      </trkpt>
      <trkpt lat="48.47837" lon="7.10215">
        <ele>740.41</ele>
        <time>2016-07-31T09:56:17Z</time>
      </trkpt>
      <trkpt lat="48.47837" lon="7.1022">
        <ele>740.55</ele>
        <time>2016-07-31T09:56:43Z</time>
      </trkpt>
      <trkpt lat="48.47837" lon="7.10221">
        <ele>741.46</ele>
        <time>2016-07-31T09:56:56Z</time>
      </trkpt>
      <trkpt lat="48.47838" lon="7.10215">
        <ele>741.68</ele>
        <time>2016-07-31T09:57:24Z</time>
      </trkpt>
      <trkpt lat="48.4784" lon="7.10214">
        <ele>741.83</ele>
        <time>2016-07-31T09:57:52Z</time>
      </trkpt>
      <trkpt lat="48.4784" lon="7.10216">
        <ele>742.67</ele>
        <time>2016-07-31T09:58:30Z</time>
      </trkpt>
      <trkpt lat="48.47836" lon="7.10214">
        <ele>742.52</ele>
        <time>2016-07-31T09:59:05Z</time>
      </trkpt>
      <trkpt lat="48.47839" lon="7.10213">
        <ele>742.25</ele>
        <time>2016-07-31T09:59:33Z</time>
      </trkpt>
      <trkpt lat="48.4784" lon="7.10216">
        <ele>742.58</ele>
        <time>2016-07-31T10:00:01Z</time>
      </trkpt>
      <trkpt lat="48.47838" lon="7.10217">
        <ele>742.89</ele>
        <time>2016-07-31T10:00:25Z</time>
      </trkpt>
      <trkpt lat="48.4784" lon="7.10214">
        <ele>742.9</ele>
        <time>2016-07-31T10:00:54Z</time>
      </trkpt>
      <trkpt lat="48.4784" lon="7.10215">
        <ele>742</ele>
        <time>2016-07-31T10:01:21Z</time>
      </trkpt>
      <trkpt lat="48.4784" lon="7.10215">
        <ele>742.45</ele>
        <time>2016-07-31T10:01:28Z</time>
      </trkpt>
      <trkpt lat="48.47841" lon="7.10214">
        <ele>743.58</ele>
        <time>2016-07-31T10:01:56Z</time>
      </trkpt>
      <trkpt lat="48.47836" lon="7.10216">
        <ele>743.69</ele>
        <time>2016-07-31T10:02:25Z</time>
      </trkpt>
      <trkpt lat="48.47838" lon="7.10217">
        <ele>744.22</ele>
        <time>2016-07-31T10:02:52Z</time>
      </trkpt>
      <trkpt lat="48.47838" lon="7.10211">
        <ele>744.15</ele>
        <time>2016-07-31T10:03:19Z</time>
      </trkpt>
      <trkpt lat="48.47844" lon="7.10214">
        <ele>744.58</ele>
        <time>2016-07-31T10:03:52Z</time>
      </trkpt>
      <trkpt lat="48.47844" lon="7.10212">
        <ele>742.62</ele>
        <time>2016-07-31T10:04:03Z</time>
      </trkpt>
      <trkpt lat="48.47841" lon="7.10211">
        <ele>745.8</ele>
        <time>2016-07-31T10:04:22Z</time>
      </trkpt>
      <trkpt lat="48.4784" lon="7.10211">
        <ele>742.13</ele>
        <time>2016-07-31T10:04:32Z</time>
      </trkpt>
      <trkpt lat="48.47841" lon="7.1021">
        <ele>745.6</ele>
        <time>2016-07-31T10:04:47Z</time>
      </trkpt>
      <trkpt lat="48.47841" lon="7.10211">
        <ele>744.66</ele>
        <time>2016-07-31T10:04:48Z</time>
      </trkpt>
      <trkpt lat="48.47841" lon="7.10212">
        <ele>743.86</ele>
        <time>2016-07-31T10:04:50Z</time>
      </trkpt>
      <trkpt lat="48.47841" lon="7.10212">
        <ele>744.35</ele>
        <time>2016-07-31T10:05:15Z</time>
      </trkpt>
      <trkpt lat="48.47842" lon="7.10212">
        <ele>744.38</ele>
        <time>2016-07-31T10:05:41Z</time>
      </trkpt>
      <trkpt lat="48.47842" lon="7.10212">
        <ele>744.68</ele>
        <time>2016-07-31T10:06:05Z</time>
      </trkpt>
      <trkpt lat="48.47839" lon="7.10216">
        <ele>744.54</ele>
        <time>2016-07-31T10:06:28Z</time>
      </trkpt>
      <trkpt lat="48.4784" lon="7.10216">
        <ele>745.06</ele>
        <time>2016-07-31T10:06:55Z</time>
      </trkpt>
      <trkpt lat="48.47839" lon="7.10214">
        <ele>745.07</ele>
        <time>2016-07-31T10:07:29Z</time>
      </trkpt>
      <trkpt lat="48.47839" lon="7.10211">
        <ele>744.57</ele>
        <time>2016-07-31T10:07:49Z</time>
      </trkpt>
      <trkpt lat="48.47838" lon="7.10209">
        <ele>745.08</ele>
        <time>2016-07-31T10:08:10Z</time>
      </trkpt>
      <trkpt lat="48.47835" lon="7.10206">
        <ele>744.96</ele>
        <time>2016-07-31T10:08:20Z</time>
      </trkpt>
      <trkpt lat="48.4783" lon="7.10193">
        <ele>744.84</ele>
        <time>2016-07-31T10:08:34Z</time>
      </trkpt>
      <trkpt lat="48.47832" lon="7.10205">
        <ele>744.97</ele>
        <time>2016-07-31T10:08:51Z</time>
      </trkpt>
      <trkpt lat="48.47836" lon="7.10206">
        <ele>745.03</ele>
        <time>2016-07-31T10:09:10Z</time>
      </trkpt>
      <trkpt lat="48.47842" lon="7.1021">
        <ele>745.53</ele>
        <time>2016-07-31T10:09:28Z</time>
      </trkpt>
      <trkpt lat="48.47835" lon="7.10216">
        <ele>746.14</ele>
        <time>2016-07-31T10:09:55Z</time>
      </trkpt>
      <trkpt lat="48.47837" lon="7.10216">
        <ele>741.47</ele>
        <time>2016-07-31T10:10:05Z</time>
      </trkpt>
      <trkpt lat="48.47837" lon="7.10215">
        <ele>748.93</ele>
        <time>2016-07-31T10:10:06Z</time>
      </trkpt>
      <trkpt lat="48.47837" lon="7.10215">
        <ele>745.05</ele>
        <time>2016-07-31T10:10:07Z</time>
      </trkpt>
      <trkpt lat="48.47836" lon="7.10214">
        <ele>741.28</ele>
        <time>2016-07-31T10:10:23Z</time>
      </trkpt>
      <trkpt lat="48.47836" lon="7.10213">
        <ele>749.5</ele>
        <time>2016-07-31T10:10:24Z</time>
      </trkpt>
      <trkpt lat="48.47835" lon="7.10214">
        <ele>746.2</ele>
        <time>2016-07-31T10:10:25Z</time>
      </trkpt>
      <trkpt lat="48.47835" lon="7.10214">
        <ele>746.5</ele>
        <time>2016-07-31T10:10:43Z</time>
      </trkpt>
      <trkpt lat="48.47837" lon="7.10214">
        <ele>745.92</ele>
        <time>2016-07-31T10:11:01Z</time>
      </trkpt>
      <trkpt lat="48.4784" lon="7.10216">
        <ele>746.39</ele>
        <time>2016-07-31T10:11:19Z</time>
      </trkpt>
      <trkpt lat="48.47841" lon="7.10216">
        <ele>746.6</ele>
        <time>2016-07-31T10:11:30Z</time>
      </trkpt>
      <trkpt lat="48.47838" lon="7.10211">
        <ele>746.2</ele>
        <time>2016-07-31T10:11:58Z</time>
      </trkpt>
      <trkpt lat="48.47835" lon="7.10218">
        <ele>747.15</ele>
        <time>2016-07-31T10:12:28Z</time>
      </trkpt>
      <trkpt lat="48.47836" lon="7.10213">
        <ele>747.7</ele>
        <time>2016-07-31T10:13:02Z</time>
      </trkpt>
      <trkpt lat="48.47835" lon="7.10215">
        <ele>747.7</ele>
        <time>2016-07-31T10:13:07Z</time>
      </trkpt>
      <trkpt lat="48.47835" lon="7.10212">
        <ele>746.01</ele>
        <time>2016-07-31T10:13:24Z</time>
      </trkpt>
      <trkpt lat="48.47836" lon="7.10212">
        <ele>747.53</ele>
        <time>2016-07-31T10:13:44Z</time>
      </trkpt>
      <trkpt lat="48.47838" lon="7.10215">
        <ele>747.55</ele>
        <time>2016-07-31T10:14:14Z</time>
      </trkpt>
      <trkpt lat="48.47838" lon="7.10213">
        <ele>748.16</ele>
        <time>2016-07-31T10:14:43Z</time>
      </trkpt>
      <trkpt lat="48.47834" lon="7.10214">
        <ele>747.82</ele>
        <time>2016-07-31T10:15:12Z</time>
      </trkpt>
      <trkpt lat="48.47836" lon="7.10216">
        <ele>748.75</ele>
        <time>2016-07-31T10:15:40Z</time>
      </trkpt>
      <trkpt lat="48.47836" lon="7.10216">
        <ele>748.7</ele>
        <time>2016-07-31T10:16:03Z</time>
      </trkpt>
      <trkpt lat="48.47838" lon="7.10213">
        <ele>748.56</ele>
        <time>2016-07-31T10:16:26Z</time>
      </trkpt>
      <trkpt lat="48.47839" lon="7.10212">
        <ele>748.49</ele>
        <time>2016-07-31T10:16:56Z</time>
      </trkpt>
      <trkpt lat="48.47838" lon="7.10212">
        <ele>748.84</ele>
        <time>2016-07-31T10:17:25Z</time>
      </trkpt>
      <trkpt lat="48.47838" lon="7.10212">
        <ele>749.26</ele>
        <time>2016-07-31T10:17:36Z</time>
      </trkpt>
      <trkpt lat="48.47838" lon="7.10213">
        <ele>749.55</ele>
        <time>2016-07-31T10:17:53Z</time>
      </trkpt>
      <trkpt lat="48.47836" lon="7.10212">
        <ele>749.75</ele>
        <time>2016-07-31T10:18:02Z</time>
      </trkpt>
      <trkpt lat="48.47835" lon="7.10211">
        <ele>749.4</ele>
        <time>2016-07-31T10:18:05Z</time>
      </trkpt>
      <trkpt lat="48.47833" lon="7.10208">
        <ele>748.97</ele>
        <time>2016-07-31T10:18:10Z</time>
      </trkpt>
      <trkpt lat="48.47831" lon="7.102">
        <ele>748.5</ele>
        <time>2016-07-31T10:18:15Z</time>
      </trkpt>
      <trkpt lat="48.47831" lon="7.10186">
        <ele>748.57</ele>
        <time>2016-07-31T10:18:30Z</time>
      </trkpt>
      <trkpt lat="48.4783" lon="7.10191">
        <ele>748.51</ele>
        <time>2016-07-31T10:18:45Z</time>
      </trkpt>
      <trkpt lat="48.47832" lon="7.10193">
        <ele>748.28</ele>
        <time>2016-07-31T10:19:12Z</time>
      </trkpt>
      <trkpt lat="48.4783" lon="7.10191">
        <ele>748.16</ele>
        <time>2016-07-31T10:19:37Z</time>
      </trkpt>
      <trkpt lat="48.47835" lon="7.10203">
        <ele>749.39</ele>
        <time>2016-07-31T10:19:53Z</time>
      </trkpt>
      <trkpt lat="48.47836" lon="7.10209">
        <ele>749.31</ele>
        <time>2016-07-31T10:20:09Z</time>
      </trkpt>
      <trkpt lat="48.47838" lon="7.1021">
        <ele>749.77</ele>
        <time>2016-07-31T10:20:24Z</time>
      </trkpt>
      <trkpt lat="48.47837" lon="7.10213">
        <ele>749.3</ele>
        <time>2016-07-31T10:20:43Z</time>
      </trkpt>
      <trkpt lat="48.47837" lon="7.1021">
        <ele>750.21</ele>
        <time>2016-07-31T10:21:06Z</time>
      </trkpt>
      <trkpt lat="48.47839" lon="7.1021">
        <ele>749.79</ele>
        <time>2016-07-31T10:21:21Z</time>
      </trkpt>
      <trkpt lat="48.47843" lon="7.1021">
        <ele>749.93</ele>
        <time>2016-07-31T10:21:25Z</time>
      </trkpt>
      <trkpt lat="48.47839" lon="7.10208">
        <ele>751.17</ele>
        <time>2016-07-31T10:21:52Z</time>
      </trkpt>
      <trkpt lat="48.47834" lon="7.10207">
        <ele>750.95</ele>
        <time>2016-07-31T10:22:20Z</time>
      </trkpt>
      <trkpt lat="48.47832" lon="7.10206">
        <ele>751.38</ele>
        <time>2016-07-31T10:22:39Z</time>
      </trkpt>
      <trkpt lat="48.47834" lon="7.10208">
        <ele>751.36</ele>
        <time>2016-07-31T10:22:43Z</time>
      </trkpt>
      <trkpt lat="48.47834" lon="7.1021">
        <ele>751.49</ele>
        <time>2016-07-31T10:23:10Z</time>
      </trkpt>
      <trkpt lat="48.47834" lon="7.10211">
        <ele>752.32</ele>
        <time>2016-07-31T10:23:44Z</time>
      </trkpt>
      <trkpt lat="48.47837" lon="7.10211">
        <ele>752.94</ele>
        <time>2016-07-31T10:24:29Z</time>
      </trkpt>
      <trkpt lat="48.47835" lon="7.10212">
        <ele>753.41</ele>
        <time>2016-07-31T10:25:04Z</time>
      </trkpt>
      <trkpt lat="48.47835" lon="7.10214">
        <ele>753.59</ele>
        <time>2016-07-31T10:25:40Z</time>
      </trkpt>
      <trkpt lat="48.47835" lon="7.10216">
        <ele>753.73</ele>
        <time>2016-07-31T10:26:16Z</time>
      </trkpt>
      <trkpt lat="48.47838" lon="7.10217">
        <ele>754.04</ele>
        <time>2016-07-31T10:26:45Z</time>
      </trkpt>
      <trkpt lat="48.47835" lon="7.10214">
        <ele>754.07</ele>
        <time>2016-07-31T10:27:19Z</time>
      </trkpt>
      <trkpt lat="48.47831" lon="7.10213">
        <ele>755.41</ele>
        <time>2016-07-31T10:27:49Z</time>
      </trkpt>
      <trkpt lat="48.47831" lon="7.10215">
        <ele>755.37</ele>
        <time>2016-07-31T10:28:16Z</time>
      </trkpt>
      <trkpt lat="48.47827" lon="7.10214">
        <ele>755.12</ele>
        <time>2016-07-31T10:28:42Z</time>
      </trkpt>
      <trkpt lat="48.47829" lon="7.10214">
        <ele>755.84</ele>
        <time>2016-07-31T10:29:15Z</time>
      </trkpt>
      <trkpt lat="48.47829" lon="7.10213">
        <ele>755.95</ele>
        <time>2016-07-31T10:29:49Z</time>
      </trkpt>
      <trkpt lat="48.4783" lon="7.10213">
        <ele>755.71</ele>
        <time>2016-07-31T10:30:25Z</time>
      </trkpt>
      <trkpt lat="48.47832" lon="7.10214">
        <ele>751.89</ele>
        <time>2016-07-31T10:30:44Z</time>
      </trkpt>
      <trkpt lat="48.47833" lon="7.10214">
        <ele>760.92</ele>
        <time>2016-07-31T10:30:45Z</time>
      </trkpt>
      <trkpt lat="48.47832" lon="7.10214">
        <ele>756.43</ele>
        <time>2016-07-31T10:30:46Z</time>
      </trkpt>
      <trkpt lat="48.47829" lon="7.10215">
        <ele>756.61</ele>
        <time>2016-07-31T10:31:09Z</time>
      </trkpt>
      <trkpt lat="48.47827" lon="7.10205">
        <ele>757.49</ele>
        <time>2016-07-31T10:31:34Z</time>
      </trkpt>
      <trkpt lat="48.47833" lon="7.10219">
        <ele>757.81</ele>
        <time>2016-07-31T10:31:49Z</time>
      </trkpt>
      <trkpt lat="48.47837" lon="7.10229">
        <ele>760.59</ele>
        <time>2016-07-31T10:31:57Z</time>
      </trkpt>
      <trkpt lat="48.47834" lon="7.10235">
        <ele>758.7</ele>
        <time>2016-07-31T10:32:22Z</time>
      </trkpt>
      <trkpt lat="48.47832" lon="7.10218">
        <ele>749.29</ele>
        <time>2016-07-31T10:32:39Z</time>
      </trkpt>
      <trkpt lat="48.47832" lon="7.10217">
        <ele>765.27</ele>
        <time>2016-07-31T10:32:40Z</time>
      </trkpt>
      <trkpt lat="48.47831" lon="7.10216">
        <ele>758.5</ele>
        <time>2016-07-31T10:32:41Z</time>
      </trkpt>
      <trkpt lat="48.47831" lon="7.10216">
        <ele>757.07</ele>
        <time>2016-07-31T10:32:44Z</time>
      </trkpt>
      <trkpt lat="48.4783" lon="7.10215">
        <ele>749.26</ele>
        <time>2016-07-31T10:32:50Z</time>
      </trkpt>
      <trkpt lat="48.4783" lon="7.10215">
        <ele>764.03</ele>
        <time>2016-07-31T10:32:51Z</time>
      </trkpt>
      <trkpt lat="48.4783" lon="7.10215">
        <ele>758.99</ele>
        <time>2016-07-31T10:32:52Z</time>
      </trkpt>
      <trkpt lat="48.47829" lon="7.10217">
        <ele>757.69</ele>
        <time>2016-07-31T10:32:54Z</time>
      </trkpt>
      <trkpt lat="48.47828" lon="7.10215">
        <ele>754.25</ele>
        <time>2016-07-31T10:33:18Z</time>
      </trkpt>
      <trkpt lat="48.47828" lon="7.10215">
        <ele>758.07</ele>
        <time>2016-07-31T10:33:19Z</time>
      </trkpt>
      <trkpt lat="48.47828" lon="7.10215">
        <ele>761.27</ele>
        <time>2016-07-31T10:33:20Z</time>
      </trkpt>
      <trkpt lat="48.47828" lon="7.10215">
        <ele>757</ele>
        <time>2016-07-31T10:33:21Z</time>
      </trkpt>
      <trkpt lat="48.47829" lon="7.10216">
        <ele>760.17</ele>
        <time>2016-07-31T10:33:25Z</time>
      </trkpt>
      <trkpt lat="48.47829" lon="7.10216">
        <ele>759.3</ele>
        <time>2016-07-31T10:33:26Z</time>
      </trkpt>
      <trkpt lat="48.47833" lon="7.10205">
        <ele>759.47</ele>
        <time>2016-07-31T10:33:49Z</time>
      </trkpt>
      <trkpt lat="48.47832" lon="7.10204">
        <ele>759.26</ele>
        <time>2016-07-31T10:33:54Z</time>
      </trkpt>
      <trkpt lat="48.47847" lon="7.10208">
        <ele>759.34</ele>
        <time>2016-07-31T10:34:25Z</time>
      </trkpt>
      <trkpt lat="48.47844" lon="7.10187">
        <ele>759.81</ele>
        <time>2016-07-31T10:34:42Z</time>
      </trkpt>
      <trkpt lat="48.47833" lon="7.10152">
        <ele>758.99</ele>
        <time>2016-07-31T10:35:04Z</time>
      </trkpt>
      <trkpt lat="48.47833" lon="7.10145">
        <ele>760.15</ele>
        <time>2016-07-31T10:35:08Z</time>
      </trkpt>
      <trkpt lat="48.4783" lon="7.10113">
        <ele>759.82</ele>
        <time>2016-07-31T10:35:26Z</time>
      </trkpt>
      <trkpt lat="48.47824" lon="7.10089">
        <ele>759.68</ele>
        <time>2016-07-31T10:35:43Z</time>
      </trkpt>
      <trkpt lat="48.47819" lon="7.10075">
        <ele>759.33</ele>
        <time>2016-07-31T10:35:55Z</time>
      </trkpt>
      <trkpt lat="48.47807" lon="7.10045">
        <ele>758.44</ele>
        <time>2016-07-31T10:36:13Z</time>
      </trkpt>
      <trkpt lat="48.47798" lon="7.10019">
        <ele>758.16</ele>
        <time>2016-07-31T10:36:26Z</time>
      </trkpt>
      <trkpt lat="48.47795" lon="7.10012">
        <ele>757</ele>
        <time>2016-07-31T10:36:30Z</time>
      </trkpt>
      <trkpt lat="48.4779" lon="7.09995">
        <ele>756.73</ele>
        <time>2016-07-31T10:36:42Z</time>
      </trkpt>
      <trkpt lat="48.47777" lon="7.09959">
        <ele>755.35</ele>
        <time>2016-07-31T10:37:03Z</time>
      </trkpt>
      <trkpt lat="48.47766" lon="7.09927">
        <ele>753.22</ele>
        <time>2016-07-31T10:37:24Z</time>
      </trkpt>
      <trkpt lat="48.47752" lon="7.09889">
        <ele>751.55</ele>
        <time>2016-07-31T10:37:50Z</time>
      </trkpt>
      <trkpt lat="48.47745" lon="7.09862">
        <ele>751.16</ele>
        <time>2016-07-31T10:38:09Z</time>
      </trkpt>
      <trkpt lat="48.47742" lon="7.09846">
        <ele>750.62</ele>
        <time>2016-07-31T10:38:22Z</time>
      </trkpt>
      <trkpt lat="48.47732" lon="7.09825">
        <ele>748.8</ele>
        <time>2016-07-31T10:38:39Z</time>
      </trkpt>
      <trkpt lat="48.47714" lon="7.09783">
        <ele>749.09</ele>
        <time>2016-07-31T10:39:01Z</time>
      </trkpt>
      <trkpt lat="48.47704" lon="7.09759">
        <ele>749.05</ele>
        <time>2016-07-31T10:39:15Z</time>
      </trkpt>
      <trkpt lat="48.47686" lon="7.09729">
        <ele>748.33</ele>
        <time>2016-07-31T10:39:35Z</time>
      </trkpt>
      <trkpt lat="48.47667" lon="7.09701">
        <ele>747.2</ele>
        <time>2016-07-31T10:39:56Z</time>
      </trkpt>
      <trkpt lat="48.47649" lon="7.09672">
        <ele>746.44</ele>
        <time>2016-07-31T10:40:17Z</time>
      </trkpt>
      <trkpt lat="48.47631" lon="7.09645">
        <ele>746.29</ele>
        <time>2016-07-31T10:40:37Z</time>
      </trkpt>
      <trkpt lat="48.47626" lon="7.09641">
        <ele>746.38</ele>
        <time>2016-07-31T10:40:41Z</time>
      </trkpt>
      <trkpt lat="48.47611" lon="7.09614">
        <ele>745.23</ele>
        <time>2016-07-31T10:41:02Z</time>
      </trkpt>
      <trkpt lat="48.47606" lon="7.09607">
        <ele>745.28</ele>
        <time>2016-07-31T10:41:09Z</time>
      </trkpt>
      <trkpt lat="48.47605" lon="7.09603">
        <ele>745.22</ele>
        <time>2016-07-31T10:41:11Z</time>
      </trkpt>
      <trkpt lat="48.47587" lon="7.09568">
        <ele>745.32</ele>
        <time>2016-07-31T10:41:34Z</time>
      </trkpt>
      <trkpt lat="48.47577" lon="7.09553">
        <ele>746.03</ele>
        <time>2016-07-31T10:41:46Z</time>
      </trkpt>
      <trkpt lat="48.47559" lon="7.09523">
        <ele>745.33</ele>
        <time>2016-07-31T10:42:06Z</time>
      </trkpt>
      <trkpt lat="48.47557" lon="7.09519">
        <ele>745.62</ele>
        <time>2016-07-31T10:42:10Z</time>
      </trkpt>
      <trkpt lat="48.47553" lon="7.0951">
        <ele>745.71</ele>
        <time>2016-07-31T10:42:17Z</time>
      </trkpt>
      <trkpt lat="48.47549" lon="7.09495">
        <ele>744.99</ele>
        <time>2016-07-31T10:42:25Z</time>
      </trkpt>
      <trkpt lat="48.47548" lon="7.09492">
        <ele>745.96</ele>
        <time>2016-07-31T10:42:27Z</time>
      </trkpt>
      <trkpt lat="48.47535" lon="7.09459">
        <ele>745.04</ele>
        <time>2016-07-31T10:42:48Z</time>
      </trkpt>
      <trkpt lat="48.47516" lon="7.09434">
        <ele>745.38</ele>
        <time>2016-07-31T10:43:05Z</time>
      </trkpt>
      <trkpt lat="48.47508" lon="7.0942">
        <ele>745.48</ele>
        <time>2016-07-31T10:43:16Z</time>
      </trkpt>
      <trkpt lat="48.47496" lon="7.09395">
        <ele>745.14</ele>
        <time>2016-07-31T10:43:33Z</time>
      </trkpt>
      <trkpt lat="48.47484" lon="7.09362">
        <ele>745.25</ele>
        <time>2016-07-31T10:43:53Z</time>
      </trkpt>
      <trkpt lat="48.47481" lon="7.09357">
        <ele>744.03</ele>
        <time>2016-07-31T10:43:56Z</time>
      </trkpt>
      <trkpt lat="48.47479" lon="7.09352">
        <ele>745.79</ele>
        <time>2016-07-31T10:43:59Z</time>
      </trkpt>
      <trkpt lat="48.4747" lon="7.09334">
        <ele>744.31</ele>
        <time>2016-07-31T10:44:11Z</time>
      </trkpt>
      <trkpt lat="48.47458" lon="7.09307">
        <ele>744.79</ele>
        <time>2016-07-31T10:44:28Z</time>
      </trkpt>
      <trkpt lat="48.47446" lon="7.09276">
        <ele>743.79</ele>
        <time>2016-07-31T10:44:50Z</time>
      </trkpt>
      <trkpt lat="48.47435" lon="7.09242">
        <ele>744.2</ele>
        <time>2016-07-31T10:45:10Z</time>
      </trkpt>
      <trkpt lat="48.47427" lon="7.09195">
        <ele>742.82</ele>
        <time>2016-07-31T10:45:34Z</time>
      </trkpt>
      <trkpt lat="48.47424" lon="7.09176">
        <ele>743.6</ele>
        <time>2016-07-31T10:45:47Z</time>
      </trkpt>
      <trkpt lat="48.47419" lon="7.09161">
        <ele>744.66</ele>
        <time>2016-07-31T10:45:59Z</time>
      </trkpt>
      <trkpt lat="48.47415" lon="7.09155">
        <ele>743.97</ele>
        <time>2016-07-31T10:46:05Z</time>
      </trkpt>
      <trkpt lat="48.47413" lon="7.09145">
        <ele>744.33</ele>
        <time>2016-07-31T10:46:19Z</time>
      </trkpt>
      <trkpt lat="48.47418" lon="7.09137">
        <ele>744.76</ele>
        <time>2016-07-31T10:46:46Z</time>
      </trkpt>
      <trkpt lat="48.47416" lon="7.09109">
        <ele>745.76</ele>
        <time>2016-07-31T10:47:02Z</time>
      </trkpt>
      <trkpt lat="48.47415" lon="7.09068">
        <ele>745.68</ele>
        <time>2016-07-31T10:47:25Z</time>
      </trkpt>
      <trkpt lat="48.47418" lon="7.09031">
        <ele>746.96</ele>
        <time>2016-07-31T10:47:48Z</time>
      </trkpt>
      <trkpt lat="48.47417" lon="7.09023">
        <ele>747</ele>
        <time>2016-07-31T10:47:53Z</time>
      </trkpt>
      <trkpt lat="48.47417" lon="7.0902">
        <ele>747.73</ele>
        <time>2016-07-31T10:47:55Z</time>
      </trkpt>
      <trkpt lat="48.47417" lon="7.09017">
        <ele>747.42</ele>
        <time>2016-07-31T10:47:57Z</time>
      </trkpt>
      <trkpt lat="48.4742" lon="7.08988">
        <ele>748.58</ele>
        <time>2016-07-31T10:48:15Z</time>
      </trkpt>
      <trkpt lat="48.47422" lon="7.08971">
        <ele>749.05</ele>
        <time>2016-07-31T10:48:26Z</time>
      </trkpt>
      <trkpt lat="48.47423" lon="7.08953">
        <ele>749.62</ele>
        <time>2016-07-31T10:48:37Z</time>
      </trkpt>
      <trkpt lat="48.47425" lon="7.08932">
        <ele>750.2</ele>
        <time>2016-07-31T10:48:50Z</time>
      </trkpt>
      <trkpt lat="48.47424" lon="7.08919">
        <ele>749.03</ele>
        <time>2016-07-31T10:48:57Z</time>
      </trkpt>
      <trkpt lat="48.47423" lon="7.08915">
        <ele>750.54</ele>
        <time>2016-07-31T10:48:59Z</time>
      </trkpt>
      <trkpt lat="48.47426" lon="7.0889">
        <ele>751.56</ele>
        <time>2016-07-31T10:49:11Z</time>
      </trkpt>
      <trkpt lat="48.47425" lon="7.08862">
        <ele>751.7</ele>
        <time>2016-07-31T10:49:28Z</time>
      </trkpt>
      <trkpt lat="48.47425" lon="7.08845">
        <ele>751.44</ele>
        <time>2016-07-31T10:49:39Z</time>
      </trkpt>
      <trkpt lat="48.47421" lon="7.08828">
        <ele>751.95</ele>
        <time>2016-07-31T10:49:50Z</time>
      </trkpt>
      <trkpt lat="48.47419" lon="7.08804">
        <ele>751.4</ele>
        <time>2016-07-31T10:50:02Z</time>
      </trkpt>
      <trkpt lat="48.47414" lon="7.08792">
        <ele>752.94</ele>
        <time>2016-07-31T10:50:09Z</time>
      </trkpt>
      <trkpt lat="48.47404" lon="7.08753">
        <ele>753.85</ele>
        <time>2016-07-31T10:50:31Z</time>
      </trkpt>
      <trkpt lat="48.47396" lon="7.08719">
        <ele>753.47</ele>
        <time>2016-07-31T10:50:54Z</time>
      </trkpt>
      <trkpt lat="48.47392" lon="7.08704">
        <ele>753.8</ele>
        <time>2016-07-31T10:51:05Z</time>
      </trkpt>
      <trkpt lat="48.47385" lon="7.08679">
        <ele>754.61</ele>
        <time>2016-07-31T10:51:21Z</time>
      </trkpt>
      <trkpt lat="48.47379" lon="7.08662">
        <ele>755.09</ele>
        <time>2016-07-31T10:51:34Z</time>
      </trkpt>
      <trkpt lat="48.47374" lon="7.08637">
        <ele>756.15</ele>
        <time>2016-07-31T10:51:49Z</time>
      </trkpt>
      <trkpt lat="48.47367" lon="7.08616">
        <ele>756.37</ele>
        <time>2016-07-31T10:52:01Z</time>
      </trkpt>
      <trkpt lat="48.47365" lon="7.08599">
        <ele>756.25</ele>
        <time>2016-07-31T10:52:12Z</time>
      </trkpt>
      <trkpt lat="48.4736" lon="7.08573">
        <ele>755.97</ele>
        <time>2016-07-31T10:52:25Z</time>
      </trkpt>
      <trkpt lat="48.47358" lon="7.08552">
        <ele>757.16</ele>
        <time>2016-07-31T10:52:37Z</time>
      </trkpt>
      <trkpt lat="48.47357" lon="7.08536">
        <ele>758.11</ele>
        <time>2016-07-31T10:52:49Z</time>
      </trkpt>
      <trkpt lat="48.47358" lon="7.08524">
        <ele>757.42</ele>
        <time>2016-07-31T10:52:57Z</time>
      </trkpt>
      <trkpt lat="48.47354" lon="7.08494">
        <ele>757.9</ele>
        <time>2016-07-31T10:53:15Z</time>
      </trkpt>
      <trkpt lat="48.47354" lon="7.08487">
        <ele>757.93</ele>
        <time>2016-07-31T10:53:19Z</time>
      </trkpt>
      <trkpt lat="48.47356" lon="7.08472">
        <ele>758.3</ele>
        <time>2016-07-31T10:53:29Z</time>
      </trkpt>
      <trkpt lat="48.47358" lon="7.08448">
        <ele>759.8</ele>
        <time>2016-07-31T10:53:43Z</time>
      </trkpt>
      <trkpt lat="48.47357" lon="7.08441">
        <ele>758.9</ele>
        <time>2016-07-31T10:53:47Z</time>
      </trkpt>
      <trkpt lat="48.47355" lon="7.08419">
        <ele>758.88</ele>
        <time>2016-07-31T10:54:01Z</time>
      </trkpt>
      <trkpt lat="48.4735" lon="7.08396">
        <ele>759.27</ele>
        <time>2016-07-31T10:54:11Z</time>
      </trkpt>
      <trkpt lat="48.4735" lon="7.08384">
        <ele>759.02</ele>
        <time>2016-07-31T10:54:19Z</time>
      </trkpt>
      <trkpt lat="48.47351" lon="7.08357">
        <ele>759.66</ele>
        <time>2016-07-31T10:54:34Z</time>
      </trkpt>
      <trkpt lat="48.47348" lon="7.08344">
        <ele>761.14</ele>
        <time>2016-07-31T10:54:40Z</time>
      </trkpt>
      <trkpt lat="48.47342" lon="7.08316">
        <ele>761.05</ele>
        <time>2016-07-31T10:54:53Z</time>
      </trkpt>
      <trkpt lat="48.47332" lon="7.08288">
        <ele>761.38</ele>
        <time>2016-07-31T10:55:12Z</time>
      </trkpt>
      <trkpt lat="48.47317" lon="7.0826">
        <ele>762.62</ele>
        <time>2016-07-31T10:55:34Z</time>
      </trkpt>
      <trkpt lat="48.47311" lon="7.08233">
        <ele>763.07</ele>
        <time>2016-07-31T10:55:51Z</time>
      </trkpt>
      <trkpt lat="48.473" lon="7.08201">
        <ele>762.65</ele>
        <time>2016-07-31T10:56:11Z</time>
      </trkpt>
      <trkpt lat="48.47285" lon="7.08166">
        <ele>764.09</ele>
        <time>2016-07-31T10:56:34Z</time>
      </trkpt>
      <trkpt lat="48.47275" lon="7.08135">
        <ele>764.46</ele>
        <time>2016-07-31T10:56:56Z</time>
      </trkpt>
      <trkpt lat="48.47258" lon="7.08107">
        <ele>764.99</ele>
        <time>2016-07-31T10:57:17Z</time>
      </trkpt>
      <trkpt lat="48.47245" lon="7.08075">
        <ele>765.64</ele>
        <time>2016-07-31T10:57:38Z</time>
      </trkpt>
      <trkpt lat="48.47218" lon="7.08044">
        <ele>766.08</ele>
        <time>2016-07-31T10:58:01Z</time>
      </trkpt>
      <trkpt lat="48.47205" lon="7.08015">
        <ele>766.04</ele>
        <time>2016-07-31T10:58:20Z</time>
      </trkpt>
      <trkpt lat="48.47202" lon="7.07991">
        <ele>766.93</ele>
        <time>2016-07-31T10:58:35Z</time>
      </trkpt>
      <trkpt lat="48.47204" lon="7.07965">
        <ele>767.19</ele>
        <time>2016-07-31T10:58:50Z</time>
      </trkpt>
      <trkpt lat="48.47207" lon="7.07941">
        <ele>767.4</ele>
        <time>2016-07-31T10:59:03Z</time>
      </trkpt>
      <trkpt lat="48.47212" lon="7.07897">
        <ele>768.46</ele>
        <time>2016-07-31T10:59:26Z</time>
      </trkpt>
      <trkpt lat="48.47214" lon="7.07871">
        <ele>768.67</ele>
        <time>2016-07-31T10:59:41Z</time>
      </trkpt>
      <trkpt lat="48.47216" lon="7.07853">
        <ele>769.12</ele>
        <time>2016-07-31T10:59:52Z</time>
      </trkpt>
      <trkpt lat="48.47218" lon="7.0782">
        <ele>769.21</ele>
        <time>2016-07-31T11:00:12Z</time>
      </trkpt>
      <trkpt lat="48.47216" lon="7.07781">
        <ele>769.8</ele>
        <time>2016-07-31T11:00:35Z</time>
      </trkpt>
      <trkpt lat="48.47216" lon="7.07755">
        <ele>769.96</ele>
        <time>2016-07-31T11:00:49Z</time>
      </trkpt>
      <trkpt lat="48.47216" lon="7.07731">
        <ele>770.36</ele>
        <time>2016-07-31T11:01:04Z</time>
      </trkpt>
      <trkpt lat="48.47217" lon="7.07699">
        <ele>771.17</ele>
        <time>2016-07-31T11:01:22Z</time>
      </trkpt>
      <trkpt lat="48.47222" lon="7.07673">
        <ele>770.91</ele>
        <time>2016-07-31T11:01:38Z</time>
      </trkpt>
      <trkpt lat="48.47226" lon="7.07663">
        <ele>772.03</ele>
        <time>2016-07-31T11:01:45Z</time>
      </trkpt>
      <trkpt lat="48.47232" lon="7.07644">
        <ele>771.3</ele>
        <time>2016-07-31T11:01:58Z</time>
      </trkpt>
      <trkpt lat="48.47235" lon="7.07638">
        <ele>771.05</ele>
        <time>2016-07-31T11:02:02Z</time>
      </trkpt>
      <trkpt lat="48.4724" lon="7.07623">
        <ele>771.48</ele>
        <time>2016-07-31T11:02:11Z</time>
      </trkpt>
      <trkpt lat="48.47244" lon="7.07614">
        <ele>771.98</ele>
        <time>2016-07-31T11:02:18Z</time>
      </trkpt>
      <trkpt lat="48.47245" lon="7.07612">
        <ele>772.87</ele>
        <time>2016-07-31T11:02:21Z</time>
      </trkpt>
      <trkpt lat="48.47247" lon="7.07608">
        <ele>771.99</ele>
        <time>2016-07-31T11:02:23Z</time>
      </trkpt>
      <trkpt lat="48.47249" lon="7.07602">
        <ele>772.6</ele>
        <time>2016-07-31T11:02:27Z</time>
      </trkpt>
      <trkpt lat="48.47253" lon="7.07596">
        <ele>771.79</ele>
        <time>2016-07-31T11:02:33Z</time>
      </trkpt>
      <trkpt lat="48.4726" lon="7.07577">
        <ele>771.69</ele>
        <time>2016-07-31T11:02:45Z</time>
      </trkpt>
      <trkpt lat="48.47269" lon="7.07567">
        <ele>771.93</ele>
        <time>2016-07-31T11:02:55Z</time>
      </trkpt>
      <trkpt lat="48.4728" lon="7.0755">
        <ele>772.64</ele>
        <time>2016-07-31T11:03:11Z</time>
      </trkpt>
      <trkpt lat="48.47301" lon="7.07535">
        <ele>772.42</ele>
        <time>2016-07-31T11:03:22Z</time>
      </trkpt>
      <trkpt lat="48.47335" lon="7.07504">
        <ele>773.18</ele>
        <time>2016-07-31T11:03:56Z</time>
      </trkpt>
      <trkpt lat="48.47346" lon="7.07492">
        <ele>772.76</ele>
        <time>2016-07-31T11:04:09Z</time>
      </trkpt>
      <trkpt lat="48.47346" lon="7.07491">
        <ele>772.59</ele>
        <time>2016-07-31T11:04:10Z</time>
      </trkpt>
      <trkpt lat="48.47355" lon="7.07466">
        <ele>772.84</ele>
        <time>2016-07-31T11:04:30Z</time>
      </trkpt>
      <trkpt lat="48.47358" lon="7.07455">
        <ele>772.38</ele>
        <time>2016-07-31T11:04:50Z</time>
      </trkpt>
      <trkpt lat="48.47357" lon="7.07435">
        <ele>773.47</ele>
        <time>2016-07-31T11:05:05Z</time>
      </trkpt>
      <trkpt lat="48.47361" lon="7.07409">
        <ele>773.12</ele>
        <time>2016-07-31T11:05:22Z</time>
      </trkpt>
      <trkpt lat="48.47363" lon="7.07394">
        <ele>774.53</ele>
        <time>2016-07-31T11:05:32Z</time>
      </trkpt>
      <trkpt lat="48.47365" lon="7.07385">
        <ele>778.36</ele>
        <time>2016-07-31T11:05:44Z</time>
      </trkpt>
      <trkpt lat="48.47365" lon="7.07385">
        <ele>775.11</ele>
        <time>2016-07-31T11:05:45Z</time>
      </trkpt>
      <trkpt lat="48.47367" lon="7.07383">
        <ele>779.14</ele>
        <time>2016-07-31T11:05:50Z</time>
      </trkpt>
      <trkpt lat="48.47369" lon="7.07379">
        <ele>778.54</ele>
        <time>2016-07-31T11:05:57Z</time>
      </trkpt>
      <trkpt lat="48.47372" lon="7.07367">
        <ele>778.49</ele>
        <time>2016-07-31T11:06:50Z</time>
      </trkpt>
      <trkpt lat="48.47371" lon="7.07367">
        <ele>777.86</ele>
        <time>2016-07-31T11:06:58Z</time>
      </trkpt>
      <trkpt lat="48.4737" lon="7.07366">
        <ele>777.51</ele>
        <time>2016-07-31T11:07:12Z</time>
      </trkpt>
      <trkpt lat="48.47374" lon="7.07379">
        <ele>775.09</ele>
        <time>2016-07-31T11:07:34Z</time>
      </trkpt>
      <trkpt lat="48.47374" lon="7.07399">
        <ele>772.79</ele>
        <time>2016-07-31T11:07:50Z</time>
      </trkpt>
      <trkpt lat="48.47373" lon="7.07402">
        <ele>772.96</ele>
        <time>2016-07-31T11:07:56Z</time>
      </trkpt>
      <trkpt lat="48.47371" lon="7.07398">
        <ele>772.55</ele>
        <time>2016-07-31T11:08:19Z</time>
      </trkpt>
      <trkpt lat="48.47374" lon="7.07397">
        <ele>773.03</ele>
        <time>2016-07-31T11:08:38Z</time>
      </trkpt>
      <trkpt lat="48.47376" lon="7.07397">
        <ele>772.28</ele>
        <time>2016-07-31T11:08:58Z</time>
      </trkpt>
      <trkpt lat="48.47374" lon="7.07402">
        <ele>773.07</ele>
        <time>2016-07-31T11:09:26Z</time>
      </trkpt>
      <trkpt lat="48.47378" lon="7.07387">
        <ele>773.99</ele>
        <time>2016-07-31T11:09:52Z</time>
      </trkpt>
      <trkpt lat="48.47378" lon="7.07374">
        <ele>774.1</ele>
        <time>2016-07-31T11:10:07Z</time>
      </trkpt>
      <trkpt lat="48.47381" lon="7.07363">
        <ele>774.32</ele>
        <time>2016-07-31T11:10:19Z</time>
      </trkpt>
      <trkpt lat="48.47387" lon="7.0735">
        <ele>773.77</ele>
        <time>2016-07-31T11:10:29Z</time>
      </trkpt>
      <trkpt lat="48.47389" lon="7.07346">
        <ele>774.3</ele>
        <time>2016-07-31T11:10:33Z</time>
      </trkpt>
      <trkpt lat="48.47398" lon="7.07332">
        <ele>773.15</ele>
        <time>2016-07-31T11:10:45Z</time>
      </trkpt>
      <trkpt lat="48.47407" lon="7.07316">
        <ele>772.23</ele>
        <time>2016-07-31T11:11:02Z</time>
      </trkpt>
      <trkpt lat="48.47414" lon="7.07302">
        <ele>773.54</ele>
        <time>2016-07-31T11:11:14Z</time>
      </trkpt>
      <trkpt lat="48.47415" lon="7.07299">
        <ele>772.51</ele>
        <time>2016-07-31T11:11:16Z</time>
      </trkpt>
      <trkpt lat="48.47417" lon="7.07291">
        <ele>771.33</ele>
        <time>2016-07-31T11:11:21Z</time>
      </trkpt>
      <trkpt lat="48.47417" lon="7.0729">
        <ele>771.76</ele>
        <time>2016-07-31T11:11:23Z</time>
      </trkpt>
      <trkpt lat="48.47418" lon="7.07278">
        <ele>771.81</ele>
        <time>2016-07-31T11:11:28Z</time>
      </trkpt>
      <trkpt lat="48.47423" lon="7.07265">
        <ele>771.05</ele>
        <time>2016-07-31T11:11:40Z</time>
      </trkpt>
      <trkpt lat="48.47431" lon="7.07264">
        <ele>770.59</ele>
        <time>2016-07-31T11:11:53Z</time>
      </trkpt>
      <trkpt lat="48.47435" lon="7.07261">
        <ele>770.03</ele>
        <time>2016-07-31T11:11:59Z</time>
      </trkpt>
      <trkpt lat="48.47443" lon="7.07256">
        <ele>768.24</ele>
        <time>2016-07-31T11:12:13Z</time>
      </trkpt>
      <trkpt lat="48.4744" lon="7.07264">
        <ele>766.48</ele>
        <time>2016-07-31T11:12:33Z</time>
      </trkpt>
      <trkpt lat="48.47436" lon="7.0727">
        <ele>763.52</ele>
        <time>2016-07-31T11:12:47Z</time>
      </trkpt>
      <trkpt lat="48.47436" lon="7.07279">
        <ele>761.46</ele>
        <time>2016-07-31T11:13:06Z</time>
      </trkpt>
      <trkpt lat="48.47434" lon="7.07293">
        <ele>758.19</ele>
        <time>2016-07-31T11:13:27Z</time>
      </trkpt>
      <trkpt lat="48.47433" lon="7.07303">
        <ele>758.63</ele>
        <time>2016-07-31T11:13:38Z</time>
      </trkpt>
      <trkpt lat="48.47432" lon="7.07306">
        <ele>757.68</ele>
        <time>2016-07-31T11:13:41Z</time>
      </trkpt>
      <trkpt lat="48.47422" lon="7.07339">
        <ele>754.85</ele>
        <time>2016-07-31T11:14:01Z</time>
      </trkpt>
      <trkpt lat="48.47425" lon="7.07329">
        <ele>753.44</ele>
        <time>2016-07-31T11:14:22Z</time>
      </trkpt>
      <trkpt lat="48.47427" lon="7.07325">
        <ele>752.61</ele>
        <time>2016-07-31T11:14:24Z</time>
      </trkpt>
      <trkpt lat="48.47431" lon="7.07319">
        <ele>749.51</ele>
        <time>2016-07-31T11:14:31Z</time>
      </trkpt>
      <trkpt lat="48.47433" lon="7.07317">
        <ele>750.21</ele>
        <time>2016-07-31T11:14:35Z</time>
      </trkpt>
      <trkpt lat="48.4744" lon="7.07329">
        <ele>748.59</ele>
        <time>2016-07-31T11:14:48Z</time>
      </trkpt>
      <trkpt lat="48.4744" lon="7.07333">
        <ele>747.76</ele>
        <time>2016-07-31T11:14:53Z</time>
      </trkpt>
      <trkpt lat="48.47439" lon="7.07337">
        <ele>747.71</ele>
        <time>2016-07-31T11:14:59Z</time>
      </trkpt>
      <trkpt lat="48.47433" lon="7.07351">
        <ele>746.96</ele>
        <time>2016-07-31T11:15:07Z</time>
      </trkpt>
      <trkpt lat="48.4743" lon="7.07356">
        <ele>738.8</ele>
        <time>2016-07-31T11:15:16Z</time>
      </trkpt>
      <trkpt lat="48.47429" lon="7.07356">
        <ele>754.31</ele>
        <time>2016-07-31T11:15:17Z</time>
      </trkpt>
      <trkpt lat="48.47429" lon="7.07356">
        <ele>747.92</ele>
        <time>2016-07-31T11:15:18Z</time>
      </trkpt>
      <trkpt lat="48.47431" lon="7.07348">
        <ele>747.31</ele>
        <time>2016-07-31T11:15:28Z</time>
      </trkpt>
      <trkpt lat="48.4743" lon="7.07346">
        <ele>740.56</ele>
        <time>2016-07-31T11:15:37Z</time>
      </trkpt>
      <trkpt lat="48.4743" lon="7.07346">
        <ele>751.98</ele>
        <time>2016-07-31T11:15:38Z</time>
      </trkpt>
      <trkpt lat="48.4743" lon="7.07345">
        <ele>748.53</ele>
        <time>2016-07-31T11:15:39Z</time>
      </trkpt>
      <trkpt lat="48.47428" lon="7.07348">
        <ele>746.86</ele>
        <time>2016-07-31T11:15:43Z</time>
      </trkpt>
      <trkpt lat="48.47427" lon="7.07361">
        <ele>746.7</ele>
        <time>2016-07-31T11:15:52Z</time>
      </trkpt>
      <trkpt lat="48.47423" lon="7.07381">
        <ele>744.52</ele>
        <time>2016-07-31T11:16:06Z</time>
      </trkpt>
      <trkpt lat="48.47423" lon="7.07389">
        <ele>744.32</ele>
        <time>2016-07-31T11:16:16Z</time>
      </trkpt>
      <trkpt lat="48.47424" lon="7.07399">
        <ele>742.68</ele>
        <time>2016-07-31T11:16:26Z</time>
      </trkpt>
      <trkpt lat="48.47421" lon="7.0742">
        <ele>741.11</ele>
        <time>2016-07-31T11:16:40Z</time>
      </trkpt>
      <trkpt lat="48.47421" lon="7.0742">
        <ele>740.88</ele>
        <time>2016-07-31T11:16:41Z</time>
      </trkpt>
      <trkpt lat="48.47421" lon="7.07432">
        <ele>740.69</ele>
        <time>2016-07-31T11:16:51Z</time>
      </trkpt>
      <trkpt lat="48.47419" lon="7.0745">
        <ele>739.44</ele>
        <time>2016-07-31T11:16:58Z</time>
      </trkpt>
      <trkpt lat="48.47417" lon="7.07471">
        <ele>739.18</ele>
        <time>2016-07-31T11:17:08Z</time>
      </trkpt>
      <trkpt lat="48.47416" lon="7.07475">
        <ele>738.28</ele>
        <time>2016-07-31T11:17:10Z</time>
      </trkpt>
      <trkpt lat="48.47414" lon="7.07506">
        <ele>735.05</ele>
        <time>2016-07-31T11:17:27Z</time>
      </trkpt>
      <trkpt lat="48.47415" lon="7.07508">
        <ele>735.47</ele>
        <time>2016-07-31T11:17:28Z</time>
      </trkpt>
      <trkpt lat="48.47414" lon="7.07511">
        <ele>736.45</ele>
        <time>2016-07-31T11:17:30Z</time>
      </trkpt>
      <trkpt lat="48.47423" lon="7.07524">
        <ele>735.46</ele>
        <time>2016-07-31T11:17:41Z</time>
      </trkpt>
      <trkpt lat="48.47423" lon="7.07537">
        <ele>734.94</ele>
        <time>2016-07-31T11:17:50Z</time>
      </trkpt>
      <trkpt lat="48.47425" lon="7.07558">
        <ele>733.43</ele>
        <time>2016-07-31T11:18:12Z</time>
      </trkpt>
      <trkpt lat="48.47425" lon="7.07568">
        <ele>732.54</ele>
        <time>2016-07-31T11:18:20Z</time>
      </trkpt>
      <trkpt lat="48.47425" lon="7.07577">
        <ele>733.14</ele>
        <time>2016-07-31T11:18:28Z</time>
      </trkpt>
      <trkpt lat="48.47429" lon="7.0758">
        <ele>731.79</ele>
        <time>2016-07-31T11:18:32Z</time>
      </trkpt>
      <trkpt lat="48.47437" lon="7.07592">
        <ele>730.74</ele>
        <time>2016-07-31T11:18:48Z</time>
      </trkpt>
      <trkpt lat="48.47443" lon="7.07595">
        <ele>728.38</ele>
        <time>2016-07-31T11:19:01Z</time>
      </trkpt>
      <trkpt lat="48.4744" lon="7.07585">
        <ele>728.24</ele>
        <time>2016-07-31T11:19:14Z</time>
      </trkpt>
      <trkpt lat="48.47439" lon="7.07569">
        <ele>725.05</ele>
        <time>2016-07-31T11:19:32Z</time>
      </trkpt>
      <trkpt lat="48.47437" lon="7.07549">
        <ele>725.75</ele>
        <time>2016-07-31T11:19:50Z</time>
      </trkpt>
      <trkpt lat="48.47436" lon="7.07541">
        <ele>722.41</ele>
        <time>2016-07-31T11:20:04Z</time>
      </trkpt>
      <trkpt lat="48.47436" lon="7.0754">
        <ele>726.98</ele>
        <time>2016-07-31T11:20:05Z</time>
      </trkpt>
      <trkpt lat="48.47437" lon="7.07539">
        <ele>724.38</ele>
        <time>2016-07-31T11:20:07Z</time>
      </trkpt>
      <trkpt lat="48.47437" lon="7.0753">
        <ele>720.22</ele>
        <time>2016-07-31T11:20:14Z</time>
      </trkpt>
      <trkpt lat="48.47439" lon="7.07512">
        <ele>721.22</ele>
        <time>2016-07-31T11:20:29Z</time>
      </trkpt>
      <trkpt lat="48.47438" lon="7.07498">
        <ele>721.7</ele>
        <time>2016-07-31T11:20:41Z</time>
      </trkpt>
      <trkpt lat="48.47439" lon="7.07486">
        <ele>720.31</ele>
        <time>2016-07-31T11:20:54Z</time>
      </trkpt>
      <trkpt lat="48.47438" lon="7.07481">
        <ele>720.45</ele>
        <time>2016-07-31T11:20:59Z</time>
      </trkpt>
      <trkpt lat="48.47438" lon="7.07468">
        <ele>719.79</ele>
        <time>2016-07-31T11:21:13Z</time>
      </trkpt>
      <trkpt lat="48.47444" lon="7.07449">
        <ele>717.69</ele>
        <time>2016-07-31T11:21:29Z</time>
      </trkpt>
      <trkpt lat="48.47448" lon="7.07429">
        <ele>717</ele>
        <time>2016-07-31T11:21:46Z</time>
      </trkpt>
      <trkpt lat="48.47454" lon="7.074">
        <ele>715.36</ele>
        <time>2016-07-31T11:22:06Z</time>
      </trkpt>
      <trkpt lat="48.47458" lon="7.0739">
        <ele>715.41</ele>
        <time>2016-07-31T11:22:13Z</time>
      </trkpt>
      <trkpt lat="48.47469" lon="7.0737">
        <ele>712.3</ele>
        <time>2016-07-31T11:22:31Z</time>
      </trkpt>
      <trkpt lat="48.47471" lon="7.07366">
        <ele>712.94</ele>
        <time>2016-07-31T11:22:34Z</time>
      </trkpt>
      <trkpt lat="48.47481" lon="7.07347">
        <ele>710.71</ele>
        <time>2016-07-31T11:22:55Z</time>
      </trkpt>
      <trkpt lat="48.47485" lon="7.07327">
        <ele>710.26</ele>
        <time>2016-07-31T11:23:08Z</time>
      </trkpt>
      <trkpt lat="48.47489" lon="7.07323">
        <ele>710.11</ele>
        <time>2016-07-31T11:23:30Z</time>
      </trkpt>
      <trkpt lat="48.47489" lon="7.07323">
        <ele>709.92</ele>
        <time>2016-07-31T11:23:56Z</time>
      </trkpt>
      <trkpt lat="48.4749" lon="7.07326">
        <ele>709.34</ele>
        <time>2016-07-31T11:24:20Z</time>
      </trkpt>
      <trkpt lat="48.47489" lon="7.07323">
        <ele>709.41</ele>
        <time>2016-07-31T11:24:48Z</time>
      </trkpt>
      <trkpt lat="48.47489" lon="7.07323">
        <ele>709.54</ele>
        <time>2016-07-31T11:25:17Z</time>
      </trkpt>
      <trkpt lat="48.4749" lon="7.07319">
        <ele>709.45</ele>
        <time>2016-07-31T11:25:26Z</time>
      </trkpt>
      <trkpt lat="48.47492" lon="7.07314">
        <ele>708.3</ele>
        <time>2016-07-31T11:25:35Z</time>
      </trkpt>
      <trkpt lat="48.47501" lon="7.07306">
        <ele>706.65</ele>
        <time>2016-07-31T11:25:51Z</time>
      </trkpt>
      <trkpt lat="48.47507" lon="7.07299">
        <ele>705.26</ele>
        <time>2016-07-31T11:26:04Z</time>
      </trkpt>
      <trkpt lat="48.47514" lon="7.07296">
        <ele>705.58</ele>
        <time>2016-07-31T11:26:10Z</time>
      </trkpt>
      <trkpt lat="48.47523" lon="7.07293">
        <ele>704.41</ele>
        <time>2016-07-31T11:26:23Z</time>
      </trkpt>
      <trkpt lat="48.47533" lon="7.0729">
        <ele>702.5</ele>
        <time>2016-07-31T11:26:40Z</time>
      </trkpt>
      <trkpt lat="48.47548" lon="7.07291">
        <ele>701.34</ele>
        <time>2016-07-31T11:26:55Z</time>
      </trkpt>
      <trkpt lat="48.47557" lon="7.07292">
        <ele>700.26</ele>
        <time>2016-07-31T11:27:08Z</time>
      </trkpt>
      <trkpt lat="48.47573" lon="7.07296">
        <ele>699.22</ele>
        <time>2016-07-31T11:27:23Z</time>
      </trkpt>
      <trkpt lat="48.47587" lon="7.07298">
        <ele>698.05</ele>
        <time>2016-07-31T11:27:35Z</time>
      </trkpt>
      <trkpt lat="48.4759" lon="7.07299">
        <ele>697.1</ele>
        <time>2016-07-31T11:27:41Z</time>
      </trkpt>
      <trkpt lat="48.47592" lon="7.07301">
        <ele>695</ele>
        <time>2016-07-31T11:27:45Z</time>
      </trkpt>
      <trkpt lat="48.47593" lon="7.07302">
        <ele>699.73</ele>
        <time>2016-07-31T11:27:46Z</time>
      </trkpt>
      <trkpt lat="48.47599" lon="7.07303">
        <ele>698.6</ele>
        <time>2016-07-31T11:27:51Z</time>
      </trkpt>
      <trkpt lat="48.47603" lon="7.07305">
        <ele>697.79</ele>
        <time>2016-07-31T11:28:09Z</time>
      </trkpt>
      <trkpt lat="48.47602" lon="7.07306">
        <ele>697.71</ele>
        <time>2016-07-31T11:28:34Z</time>
      </trkpt>
      <trkpt lat="48.47601" lon="7.07304">
        <ele>697.6</ele>
        <time>2016-07-31T11:29:01Z</time>
      </trkpt>
      <trkpt lat="48.47603" lon="7.07305">
        <ele>696.5</ele>
        <time>2016-07-31T11:29:07Z</time>
      </trkpt>
      <trkpt lat="48.47604" lon="7.07305">
        <ele>697.28</ele>
        <time>2016-07-31T11:29:24Z</time>
      </trkpt>
      <trkpt lat="48.47611" lon="7.07309">
        <ele>695.62</ele>
        <time>2016-07-31T11:29:46Z</time>
      </trkpt>
      <trkpt lat="48.47609" lon="7.07312">
        <ele>694.6</ele>
        <time>2016-07-31T11:30:12Z</time>
      </trkpt>
      <trkpt lat="48.47614" lon="7.07321">
        <ele>694.4</ele>
        <time>2016-07-31T11:30:26Z</time>
      </trkpt>
      <trkpt lat="48.47619" lon="7.07328">
        <ele>694.19</ele>
        <time>2016-07-31T11:31:05Z</time>
      </trkpt>
      <trkpt lat="48.47616" lon="7.07328">
        <ele>697.32</ele>
        <time>2016-07-31T11:31:13Z</time>
      </trkpt>
      <trkpt lat="48.47615" lon="7.07321">
        <ele>695.02</ele>
        <time>2016-07-31T11:31:38Z</time>
      </trkpt>
      <trkpt lat="48.47614" lon="7.07316">
        <ele>693.58</ele>
        <time>2016-07-31T11:31:42Z</time>
      </trkpt>
      <trkpt lat="48.47614" lon="7.07313">
        <ele>694.49</ele>
        <time>2016-07-31T11:31:44Z</time>
      </trkpt>
      <trkpt lat="48.47611" lon="7.07291">
        <ele>697.23</ele>
        <time>2016-07-31T11:32:00Z</time>
      </trkpt>
      <trkpt lat="48.47607" lon="7.07284">
        <ele>696.22</ele>
        <time>2016-07-31T11:32:05Z</time>
      </trkpt>
      <trkpt lat="48.47605" lon="7.07276">
        <ele>696.11</ele>
        <time>2016-07-31T11:32:11Z</time>
      </trkpt>
      <trkpt lat="48.47605" lon="7.07275">
        <ele>700.02</ele>
        <time>2016-07-31T11:32:12Z</time>
      </trkpt>
      <trkpt lat="48.47604" lon="7.07274">
        <ele>699.6</ele>
        <time>2016-07-31T11:32:13Z</time>
      </trkpt>
      <trkpt lat="48.47604" lon="7.07263">
        <ele>700.12</ele>
        <time>2016-07-31T11:32:29Z</time>
      </trkpt>
      <trkpt lat="48.47609" lon="7.07267">
        <ele>697.77</ele>
        <time>2016-07-31T11:32:55Z</time>
      </trkpt>
      <trkpt lat="48.4761" lon="7.07272">
        <ele>696.25</ele>
        <time>2016-07-31T11:32:59Z</time>
      </trkpt>
      <trkpt lat="48.47614" lon="7.07299">
        <ele>694.82</ele>
        <time>2016-07-31T11:33:19Z</time>
      </trkpt>
      <trkpt lat="48.47617" lon="7.07311">
        <ele>694.57</ele>
        <time>2016-07-31T11:33:29Z</time>
      </trkpt>
      <trkpt lat="48.47614" lon="7.0732">
        <ele>694.31</ele>
        <time>2016-07-31T11:33:47Z</time>
      </trkpt>
      <trkpt lat="48.47615" lon="7.0734">
        <ele>694.36</ele>
        <time>2016-07-31T11:34:06Z</time>
      </trkpt>
      <trkpt lat="48.47614" lon="7.07343">
        <ele>694.57</ele>
        <time>2016-07-31T11:34:07Z</time>
      </trkpt>
      <trkpt lat="48.47618" lon="7.07347">
        <ele>689.03</ele>
        <time>2016-07-31T11:34:24Z</time>
      </trkpt>
      <trkpt lat="48.47618" lon="7.07347">
        <ele>692.54</ele>
        <time>2016-07-31T11:34:25Z</time>
      </trkpt>
      <trkpt lat="48.47617" lon="7.07347">
        <ele>697.03</ele>
        <time>2016-07-31T11:34:26Z</time>
      </trkpt>
      <trkpt lat="48.47617" lon="7.07348">
        <ele>694.21</ele>
        <time>2016-07-31T11:34:27Z</time>
      </trkpt>
      <trkpt lat="48.47613" lon="7.07346">
        <ele>691.22</ele>
        <time>2016-07-31T11:34:39Z</time>
      </trkpt>
      <trkpt lat="48.47611" lon="7.07345">
        <ele>692.72</ele>
        <time>2016-07-31T11:34:41Z</time>
      </trkpt>
      <trkpt lat="48.47599" lon="7.07336">
        <ele>693.4</ele>
        <time>2016-07-31T11:35:01Z</time>
      </trkpt>
      <trkpt lat="48.47592" lon="7.07328">
        <ele>692.15</ele>
        <time>2016-07-31T11:35:15Z</time>
      </trkpt>
      <trkpt lat="48.47582" lon="7.07323">
        <ele>688.33</ele>
        <time>2016-07-31T11:35:35Z</time>
      </trkpt>
      <trkpt lat="48.47581" lon="7.07324">
        <ele>688.3</ele>
        <time>2016-07-31T11:35:37Z</time>
      </trkpt>
      <trkpt lat="48.47573" lon="7.07323">
        <ele>688.64</ele>
        <time>2016-07-31T11:35:47Z</time>
      </trkpt>
      <trkpt lat="48.4757" lon="7.07323">
        <ele>686.91</ele>
        <time>2016-07-31T11:35:50Z</time>
      </trkpt>
      <trkpt lat="48.47562" lon="7.07335">
        <ele>683.87</ele>
        <time>2016-07-31T11:36:07Z</time>
      </trkpt>
      <trkpt lat="48.47563" lon="7.07354">
        <ele>680.19</ele>
        <time>2016-07-31T11:36:24Z</time>
      </trkpt>
      <trkpt lat="48.47564" lon="7.0738">
        <ele>678.55</ele>
        <time>2016-07-31T11:36:45Z</time>
      </trkpt>
      <trkpt lat="48.47555" lon="7.07386">
        <ele>678.29</ele>
        <time>2016-07-31T11:36:56Z</time>
      </trkpt>
      <trkpt lat="48.47551" lon="7.07389">
        <ele>679.04</ele>
        <time>2016-07-31T11:37:00Z</time>
      </trkpt>
      <trkpt lat="48.47534" lon="7.07408">
        <ele>677.88</ele>
        <time>2016-07-31T11:37:21Z</time>
      </trkpt>
      <trkpt lat="48.4753" lon="7.07414">
        <ele>677.37</ele>
        <time>2016-07-31T11:37:27Z</time>
      </trkpt>
      <trkpt lat="48.47521" lon="7.07449">
        <ele>677.87</ele>
        <time>2016-07-31T11:37:50Z</time>
      </trkpt>
      <trkpt lat="48.47516" lon="7.07466">
        <ele>677.88</ele>
        <time>2016-07-31T11:38:11Z</time>
      </trkpt>
      <trkpt lat="48.47509" lon="7.07485">
        <ele>677.63</ele>
        <time>2016-07-31T11:38:21Z</time>
      </trkpt>
      <trkpt lat="48.47509" lon="7.07514">
        <ele>677.53</ele>
        <time>2016-07-31T11:38:44Z</time>
      </trkpt>
      <trkpt lat="48.4751" lon="7.07528">
        <ele>677.92</ele>
        <time>2016-07-31T11:38:54Z</time>
      </trkpt>
      <trkpt lat="48.47512" lon="7.07544">
        <ele>677.38</ele>
        <time>2016-07-31T11:39:05Z</time>
      </trkpt>
      <trkpt lat="48.47513" lon="7.07556">
        <ele>677.92</ele>
        <time>2016-07-31T11:39:13Z</time>
      </trkpt>
      <trkpt lat="48.47521" lon="7.07577">
        <ele>677.04</ele>
        <time>2016-07-31T11:39:34Z</time>
      </trkpt>
      <trkpt lat="48.47535" lon="7.07608">
        <ele>677.18</ele>
        <time>2016-07-31T11:39:54Z</time>
      </trkpt>
      <trkpt lat="48.47545" lon="7.07613">
        <ele>675.85</ele>
        <time>2016-07-31T11:40:04Z</time>
      </trkpt>
      <trkpt lat="48.47576" lon="7.07615">
        <ele>676.23</ele>
        <time>2016-07-31T11:40:24Z</time>
      </trkpt>
      <trkpt lat="48.47587" lon="7.0761">
        <ele>676.87</ele>
        <time>2016-07-31T11:40:36Z</time>
      </trkpt>
      <trkpt lat="48.47593" lon="7.07607">
        <ele>676.58</ele>
        <time>2016-07-31T11:40:40Z</time>
      </trkpt>
      <trkpt lat="48.4762" lon="7.07591">
        <ele>676.18</ele>
        <time>2016-07-31T11:41:01Z</time>
      </trkpt>
      <trkpt lat="48.47623" lon="7.07587">
        <ele>675.61</ele>
        <time>2016-07-31T11:41:17Z</time>
      </trkpt>
      <trkpt lat="48.47624" lon="7.07584">
        <ele>676.08</ele>
        <time>2016-07-31T11:41:29Z</time>
      </trkpt>
      <trkpt lat="48.4763" lon="7.07579">
        <ele>676.61</ele>
        <time>2016-07-31T11:41:47Z</time>
      </trkpt>
      <trkpt lat="48.47631" lon="7.07571">
        <ele>675.69</ele>
        <time>2016-07-31T11:41:52Z</time>
      </trkpt>
      <trkpt lat="48.47631" lon="7.07566">
        <ele>675.73</ele>
        <time>2016-07-31T11:42:16Z</time>
      </trkpt>
      <trkpt lat="48.47631" lon="7.07568">
        <ele>676.01</ele>
        <time>2016-07-31T11:42:18Z</time>
      </trkpt>
      <trkpt lat="48.47626" lon="7.07575">
        <ele>677.5</ele>
        <time>2016-07-31T11:42:32Z</time>
      </trkpt>
      <trkpt lat="48.47627" lon="7.07591">
        <ele>677.37</ele>
        <time>2016-07-31T11:42:53Z</time>
      </trkpt>
      <trkpt lat="48.47633" lon="7.07582">
        <ele>677.15</ele>
        <time>2016-07-31T11:43:20Z</time>
      </trkpt>
      <trkpt lat="48.47632" lon="7.07582">
        <ele>676.98</ele>
        <time>2016-07-31T11:43:48Z</time>
      </trkpt>
      <trkpt lat="48.47634" lon="7.07573">
        <ele>676.47</ele>
        <time>2016-07-31T11:44:12Z</time>
      </trkpt>
      <trkpt lat="48.47637" lon="7.07566">
        <ele>676.31</ele>
        <time>2016-07-31T11:44:30Z</time>
      </trkpt>
      <trkpt lat="48.47631" lon="7.07559">
        <ele>674.18</ele>
        <time>2016-07-31T11:44:48Z</time>
      </trkpt>
      <trkpt lat="48.47625" lon="7.07556">
        <ele>675.09</ele>
        <time>2016-07-31T11:45:03Z</time>
      </trkpt>
      <trkpt lat="48.47627" lon="7.07558">
        <ele>674.47</ele>
        <time>2016-07-31T11:45:24Z</time>
      </trkpt>
      <trkpt lat="48.47629" lon="7.07557">
        <ele>674.54</ele>
        <time>2016-07-31T11:45:26Z</time>
      </trkpt>
      <trkpt lat="48.47637" lon="7.07554">
        <ele>675.93</ele>
        <time>2016-07-31T11:45:43Z</time>
      </trkpt>
      <trkpt lat="48.47635" lon="7.07569">
        <ele>675.85</ele>
        <time>2016-07-31T11:46:05Z</time>
      </trkpt>
      <trkpt lat="48.47633" lon="7.07574">
        <ele>675.59</ele>
        <time>2016-07-31T11:46:14Z</time>
      </trkpt>
      <trkpt lat="48.47636" lon="7.07571">
        <ele>675.42</ele>
        <time>2016-07-31T11:46:27Z</time>
      </trkpt>
      <trkpt lat="48.47634" lon="7.07566">
        <ele>675.74</ele>
        <time>2016-07-31T11:46:54Z</time>
      </trkpt>
      <trkpt lat="48.47634" lon="7.07565">
        <ele>675.49</ele>
        <time>2016-07-31T11:47:21Z</time>
      </trkpt>
      <trkpt lat="48.47632" lon="7.07562">
        <ele>675.6</ele>
        <time>2016-07-31T11:47:48Z</time>
      </trkpt>
      <trkpt lat="48.4763" lon="7.07572">
        <ele>675.38</ele>
        <time>2016-07-31T11:48:12Z</time>
      </trkpt>
      <trkpt lat="48.47631" lon="7.07568">
        <ele>675.24</ele>
        <time>2016-07-31T11:48:42Z</time>
      </trkpt>
      <trkpt lat="48.47635" lon="7.07562">
        <ele>675.32</ele>
        <time>2016-07-31T11:49:10Z</time>
      </trkpt>
      <trkpt lat="48.47636" lon="7.07555">
        <ele>675.82</ele>
        <time>2016-07-31T11:49:35Z</time>
      </trkpt>
      <trkpt lat="48.47638" lon="7.07548">
        <ele>675.65</ele>
        <time>2016-07-31T11:50:04Z</time>
      </trkpt>
      <trkpt lat="48.47644" lon="7.07535">
        <ele>676.06</ele>
        <time>2016-07-31T11:50:22Z</time>
      </trkpt>
      <trkpt lat="48.47644" lon="7.07523">
        <ele>677.6</ele>
        <time>2016-07-31T11:50:35Z</time>
      </trkpt>
      <trkpt lat="48.47647" lon="7.07514">
        <ele>678.93</ele>
        <time>2016-07-31T11:50:46Z</time>
      </trkpt>
      <trkpt lat="48.47647" lon="7.07511">
        <ele>678.09</ele>
        <time>2016-07-31T11:50:48Z</time>
      </trkpt>
      <trkpt lat="48.47647" lon="7.07479">
        <ele>679.79</ele>
        <time>2016-07-31T11:51:03Z</time>
      </trkpt>
      <trkpt lat="48.47643" lon="7.07445">
        <ele>681.06</ele>
        <time>2016-07-31T11:51:21Z</time>
      </trkpt>
      <trkpt lat="48.47639" lon="7.07425">
        <ele>680.96</ele>
        <time>2016-07-31T11:51:36Z</time>
      </trkpt>
      <trkpt lat="48.47636" lon="7.07408">
        <ele>682.83</ele>
        <time>2016-07-31T11:51:47Z</time>
      </trkpt>
      <trkpt lat="48.47634" lon="7.07391">
        <ele>683.21</ele>
        <time>2016-07-31T11:52:00Z</time>
      </trkpt>
      <trkpt lat="48.47634" lon="7.07368">
        <ele>684.98</ele>
        <time>2016-07-31T11:52:14Z</time>
      </trkpt>
      <trkpt lat="48.47633" lon="7.07349">
        <ele>686.64</ele>
        <time>2016-07-31T11:52:30Z</time>
      </trkpt>
      <trkpt lat="48.47634" lon="7.07327">
        <ele>688.91</ele>
        <time>2016-07-31T11:52:51Z</time>
      </trkpt>
      <trkpt lat="48.47627" lon="7.07288">
        <ele>689.71</ele>
        <time>2016-07-31T11:53:12Z</time>
      </trkpt>
      <trkpt lat="48.47626" lon="7.07259">
        <ele>690.99</ele>
        <time>2016-07-31T11:53:31Z</time>
      </trkpt>
      <trkpt lat="48.47628" lon="7.07238">
        <ele>693.16</ele>
        <time>2016-07-31T11:53:46Z</time>
      </trkpt>
      <trkpt lat="48.47624" lon="7.07209">
        <ele>693.82</ele>
        <time>2016-07-31T11:54:01Z</time>
      </trkpt>
      <trkpt lat="48.4762" lon="7.0719">
        <ele>696.99</ele>
        <time>2016-07-31T11:54:16Z</time>
      </trkpt>
      <trkpt lat="48.47613" lon="7.0717">
        <ele>697.42</ele>
        <time>2016-07-31T11:54:32Z</time>
      </trkpt>
      <trkpt lat="48.4762" lon="7.0715">
        <ele>700.69</ele>
        <time>2016-07-31T11:54:47Z</time>
      </trkpt>
      <trkpt lat="48.47614" lon="7.07132">
        <ele>701.44</ele>
        <time>2016-07-31T11:55:05Z</time>
      </trkpt>
      <trkpt lat="48.47614" lon="7.07128">
        <ele>702.83</ele>
        <time>2016-07-31T11:55:08Z</time>
      </trkpt>
      <trkpt lat="48.47607" lon="7.07106">
        <ele>704.24</ele>
        <time>2016-07-31T11:55:25Z</time>
      </trkpt>
      <trkpt lat="48.47605" lon="7.07098">
        <ele>706.22</ele>
        <time>2016-07-31T11:55:34Z</time>
      </trkpt>
      <trkpt lat="48.47596" lon="7.07076">
        <ele>707.92</ele>
        <time>2016-07-31T11:55:51Z</time>
      </trkpt>
      <trkpt lat="48.47587" lon="7.07045">
        <ele>710.89</ele>
        <time>2016-07-31T11:56:09Z</time>
      </trkpt>
      <trkpt lat="48.47578" lon="7.07019">
        <ele>712.61</ele>
        <time>2016-07-31T11:56:28Z</time>
      </trkpt>
      <trkpt lat="48.47573" lon="7.06999">
        <ele>715.64</ele>
        <time>2016-07-31T11:56:43Z</time>
      </trkpt>
      <trkpt lat="48.47571" lon="7.06971">
        <ele>717.49</ele>
        <time>2016-07-31T11:57:01Z</time>
      </trkpt>
      <trkpt lat="48.47568" lon="7.06933">
        <ele>720.13</ele>
        <time>2016-07-31T11:57:22Z</time>
      </trkpt>
      <trkpt lat="48.47567" lon="7.06903">
        <ele>722.12</ele>
        <time>2016-07-31T11:57:41Z</time>
      </trkpt>
      <trkpt lat="48.47576" lon="7.06871">
        <ele>723.32</ele>
        <time>2016-07-31T11:58:01Z</time>
      </trkpt>
      <trkpt lat="48.47579" lon="7.06844">
        <ele>723.48</ele>
        <time>2016-07-31T11:58:17Z</time>
      </trkpt>
      <trkpt lat="48.47582" lon="7.06838">
        <ele>723.62</ele>
        <time>2016-07-31T11:58:35Z</time>
      </trkpt>
      <trkpt lat="48.47584" lon="7.06834">
        <ele>723.35</ele>
        <time>2016-07-31T11:59:01Z</time>
      </trkpt>
      <trkpt lat="48.47585" lon="7.06834">
        <ele>722.84</ele>
        <time>2016-07-31T11:59:21Z</time>
      </trkpt>
      <trkpt lat="48.47584" lon="7.06838">
        <ele>721.95</ele>
        <time>2016-07-31T11:59:52Z</time>
      </trkpt>
      <trkpt lat="48.47583" lon="7.06841">
        <ele>722.89</ele>
        <time>2016-07-31T12:00:19Z</time>
      </trkpt>
      <trkpt lat="48.47582" lon="7.06841">
        <ele>722.79</ele>
        <time>2016-07-31T12:00:47Z</time>
      </trkpt>
      <trkpt lat="48.47585" lon="7.06844">
        <ele>722.81</ele>
        <time>2016-07-31T12:00:55Z</time>
      </trkpt>
      <trkpt lat="48.47587" lon="7.06842">
        <ele>723.05</ele>
        <time>2016-07-31T12:01:19Z</time>
      </trkpt>
      <trkpt lat="48.47588" lon="7.06841">
        <ele>722.62</ele>
        <time>2016-07-31T12:01:31Z</time>
      </trkpt>
      <trkpt lat="48.47591" lon="7.06843">
        <ele>723</ele>
        <time>2016-07-31T12:01:54Z</time>
      </trkpt>
      <trkpt lat="48.4759" lon="7.06843">
        <ele>722.18</ele>
        <time>2016-07-31T12:02:23Z</time>
      </trkpt>
      <trkpt lat="48.47592" lon="7.06843">
        <ele>722.22</ele>
        <time>2016-07-31T12:02:40Z</time>
      </trkpt>
      <trkpt lat="48.47592" lon="7.06844">
        <ele>722.79</ele>
        <time>2016-07-31T12:02:44Z</time>
      </trkpt>
      <trkpt lat="48.47599" lon="7.06844">
        <ele>723.09</ele>
        <time>2016-07-31T12:03:07Z</time>
      </trkpt>
      <trkpt lat="48.47606" lon="7.06828">
        <ele>721.92</ele>
        <time>2016-07-31T12:03:17Z</time>
      </trkpt>
      <trkpt lat="48.4761" lon="7.06818">
        <ele>721.25</ele>
        <time>2016-07-31T12:03:25Z</time>
      </trkpt>
      <trkpt lat="48.47619" lon="7.06796">
        <ele>719.65</ele>
        <time>2016-07-31T12:03:41Z</time>
      </trkpt>
      <trkpt lat="48.47626" lon="7.06781">
        <ele>719.42</ele>
        <time>2016-07-31T12:03:52Z</time>
      </trkpt>
      <trkpt lat="48.47635" lon="7.06756">
        <ele>719.2</ele>
        <time>2016-07-31T12:04:08Z</time>
      </trkpt>
      <trkpt lat="48.47638" lon="7.0675">
        <ele>718.96</ele>
        <time>2016-07-31T12:04:12Z</time>
      </trkpt>
      <trkpt lat="48.47643" lon="7.06741">
        <ele>718.97</ele>
        <time>2016-07-31T12:04:18Z</time>
      </trkpt>
      <trkpt lat="48.47654" lon="7.06722">
        <ele>718.58</ele>
        <time>2016-07-31T12:04:32Z</time>
      </trkpt>
      <trkpt lat="48.47666" lon="7.06702">
        <ele>717.42</ele>
        <time>2016-07-31T12:04:47Z</time>
      </trkpt>
      <trkpt lat="48.47672" lon="7.06692">
        <ele>717.5</ele>
        <time>2016-07-31T12:04:56Z</time>
      </trkpt>
      <trkpt lat="48.4768" lon="7.06682">
        <ele>716.76</ele>
        <time>2016-07-31T12:05:06Z</time>
      </trkpt>
      <trkpt lat="48.47694" lon="7.06666">
        <ele>716.43</ele>
        <time>2016-07-31T12:05:22Z</time>
      </trkpt>
      <trkpt lat="48.47708" lon="7.06655">
        <ele>714.54</ele>
        <time>2016-07-31T12:05:37Z</time>
      </trkpt>
      <trkpt lat="48.47725" lon="7.06643">
        <ele>713.51</ele>
        <time>2016-07-31T12:05:55Z</time>
      </trkpt>
      <trkpt lat="48.47742" lon="7.06635">
        <ele>711.93</ele>
        <time>2016-07-31T12:06:12Z</time>
      </trkpt>
      <trkpt lat="48.47748" lon="7.06632">
        <ele>711.54</ele>
        <time>2016-07-31T12:06:17Z</time>
      </trkpt>
      <trkpt lat="48.47752" lon="7.06629">
        <ele>711.59</ele>
        <time>2016-07-31T12:06:21Z</time>
      </trkpt>
      <trkpt lat="48.47762" lon="7.06622">
        <ele>710.47</ele>
        <time>2016-07-31T12:06:33Z</time>
      </trkpt>
      <trkpt lat="48.47765" lon="7.06619">
        <ele>710.35</ele>
        <time>2016-07-31T12:06:36Z</time>
      </trkpt>
      <trkpt lat="48.47781" lon="7.06612">
        <ele>708.27</ele>
        <time>2016-07-31T12:06:54Z</time>
      </trkpt>
      <trkpt lat="48.47801" lon="7.06602">
        <ele>707.79</ele>
        <time>2016-07-31T12:07:17Z</time>
      </trkpt>
      <trkpt lat="48.47824" lon="7.0659">
        <ele>706.71</ele>
        <time>2016-07-31T12:07:38Z</time>
      </trkpt>
      <trkpt lat="48.47846" lon="7.06581">
        <ele>706.16</ele>
        <time>2016-07-31T12:07:58Z</time>
      </trkpt>
      <trkpt lat="48.47874" lon="7.06574">
        <ele>704.49</ele>
        <time>2016-07-31T12:08:21Z</time>
      </trkpt>
      <trkpt lat="48.47898" lon="7.06566">
        <ele>703.07</ele>
        <time>2016-07-31T12:08:42Z</time>
      </trkpt>
      <trkpt lat="48.47912" lon="7.06558">
        <ele>701.84</ele>
        <time>2016-07-31T12:08:55Z</time>
      </trkpt>
      <trkpt lat="48.47938" lon="7.06535">
        <ele>700.68</ele>
        <time>2016-07-31T12:09:22Z</time>
      </trkpt>
      <trkpt lat="48.47957" lon="7.06517">
        <ele>699.25</ele>
        <time>2016-07-31T12:09:43Z</time>
      </trkpt>
      <trkpt lat="48.47972" lon="7.06504">
        <ele>698.07</ele>
        <time>2016-07-31T12:09:56Z</time>
      </trkpt>
      <trkpt lat="48.47983" lon="7.06489">
        <ele>697.5</ele>
        <time>2016-07-31T12:10:10Z</time>
      </trkpt>
      <trkpt lat="48.47992" lon="7.06473">
        <ele>696.65</ele>
        <time>2016-07-31T12:10:22Z</time>
      </trkpt>
      <trkpt lat="48.47997" lon="7.06461">
        <ele>695.69</ele>
        <time>2016-07-31T12:10:30Z</time>
      </trkpt>
      <trkpt lat="48.48005" lon="7.06437">
        <ele>695.37</ele>
        <time>2016-07-31T12:10:46Z</time>
      </trkpt>
      <trkpt lat="48.48012" lon="7.06411">
        <ele>693.45</ele>
        <time>2016-07-31T12:11:03Z</time>
      </trkpt>
      <trkpt lat="48.4802" lon="7.06393">
        <ele>693.24</ele>
        <time>2016-07-31T12:11:17Z</time>
      </trkpt>
      <trkpt lat="48.48027" lon="7.0638">
        <ele>693.14</ele>
        <time>2016-07-31T12:11:26Z</time>
      </trkpt>
      <trkpt lat="48.48029" lon="7.06372">
        <ele>692.35</ele>
        <time>2016-07-31T12:11:31Z</time>
      </trkpt>
      <trkpt lat="48.48034" lon="7.0635">
        <ele>692.53</ele>
        <time>2016-07-31T12:11:45Z</time>
      </trkpt>
      <trkpt lat="48.48042" lon="7.06331">
        <ele>691.93</ele>
        <time>2016-07-31T12:11:58Z</time>
      </trkpt>
      <trkpt lat="48.48053" lon="7.06304">
        <ele>692.85</ele>
        <time>2016-07-31T12:12:17Z</time>
      </trkpt>
      <trkpt lat="48.48066" lon="7.06272">
        <ele>693.34</ele>
        <time>2016-07-31T12:12:39Z</time>
      </trkpt>
      <trkpt lat="48.48069" lon="7.06246">
        <ele>693.8</ele>
        <time>2016-07-31T12:12:57Z</time>
      </trkpt>
      <trkpt lat="48.48069" lon="7.06242">
        <ele>694.09</ele>
        <time>2016-07-31T12:12:59Z</time>
      </trkpt>
      <trkpt lat="48.48069" lon="7.0624">
        <ele>693.34</ele>
        <time>2016-07-31T12:13:01Z</time>
      </trkpt>
      <trkpt lat="48.48069" lon="7.06231">
        <ele>692.63</ele>
        <time>2016-07-31T12:13:07Z</time>
      </trkpt>
      <trkpt lat="48.48069" lon="7.06223">
        <ele>693.1</ele>
        <time>2016-07-31T12:13:13Z</time>
      </trkpt>
      <trkpt lat="48.4807" lon="7.06218">
        <ele>692.87</ele>
        <time>2016-07-31T12:13:15Z</time>
      </trkpt>
      <trkpt lat="48.4807" lon="7.06206">
        <ele>692.06</ele>
        <time>2016-07-31T12:13:22Z</time>
      </trkpt>
      <trkpt lat="48.4807" lon="7.06198">
        <ele>691.86</ele>
        <time>2016-07-31T12:13:27Z</time>
      </trkpt>
      <trkpt lat="48.4807" lon="7.06188">
        <ele>690.57</ele>
        <time>2016-07-31T12:13:32Z</time>
      </trkpt>
      <trkpt lat="48.4807" lon="7.06185">
        <ele>690.69</ele>
        <time>2016-07-31T12:13:34Z</time>
      </trkpt>
      <trkpt lat="48.48069" lon="7.06162">
        <ele>689.17</ele>
        <time>2016-07-31T12:13:47Z</time>
      </trkpt>
      <trkpt lat="48.48065" lon="7.06147">
        <ele>688.19</ele>
        <time>2016-07-31T12:14:00Z</time>
      </trkpt>
      <trkpt lat="48.48056" lon="7.06125">
        <ele>687.95</ele>
        <time>2016-07-31T12:14:20Z</time>
      </trkpt>
      <trkpt lat="48.48053" lon="7.0612">
        <ele>687.78</ele>
        <time>2016-07-31T12:14:24Z</time>
      </trkpt>
      <trkpt lat="48.48046" lon="7.06095">
        <ele>685.62</ele>
        <time>2016-07-31T12:14:41Z</time>
      </trkpt>
      <trkpt lat="48.48046" lon="7.06093">
        <ele>685.58</ele>
        <time>2016-07-31T12:14:42Z</time>
      </trkpt>
      <trkpt lat="48.48038" lon="7.06066">
        <ele>683.84</ele>
        <time>2016-07-31T12:14:59Z</time>
      </trkpt>
      <trkpt lat="48.48037" lon="7.06062">
        <ele>683.98</ele>
        <time>2016-07-31T12:15:01Z</time>
      </trkpt>
      <trkpt lat="48.48029" lon="7.06039">
        <ele>682.2</ele>
        <time>2016-07-31T12:15:18Z</time>
      </trkpt>
      <trkpt lat="48.48026" lon="7.0603">
        <ele>681.85</ele>
        <time>2016-07-31T12:15:24Z</time>
      </trkpt>
      <trkpt lat="48.48023" lon="7.06011">
        <ele>680.21</ele>
        <time>2016-07-31T12:15:36Z</time>
      </trkpt>
      <trkpt lat="48.48017" lon="7.05981">
        <ele>677.43</ele>
        <time>2016-07-31T12:15:55Z</time>
      </trkpt>
      <trkpt lat="48.48011" lon="7.05959">
        <ele>675.47</ele>
        <time>2016-07-31T12:16:10Z</time>
      </trkpt>
      <trkpt lat="48.48006" lon="7.05946">
        <ele>674.2</ele>
        <time>2016-07-31T12:16:18Z</time>
      </trkpt>
      <trkpt lat="48.48" lon="7.05914">
        <ele>673.23</ele>
        <time>2016-07-31T12:16:36Z</time>
      </trkpt>
      <trkpt lat="48.47999" lon="7.05868">
        <ele>670.62</ele>
        <time>2016-07-31T12:16:57Z</time>
      </trkpt>
      <trkpt lat="48.47993" lon="7.05845">
        <ele>667.68</ele>
        <time>2016-07-31T12:17:18Z</time>
      </trkpt>
      <trkpt lat="48.47986" lon="7.05826">
        <ele>669.8</ele>
        <time>2016-07-31T12:17:35Z</time>
      </trkpt>
      <trkpt lat="48.47986" lon="7.05825">
        <ele>668.94</ele>
        <time>2016-07-31T12:17:36Z</time>
      </trkpt>
      <trkpt lat="48.47974" lon="7.05811">
        <ele>670.72</ele>
        <time>2016-07-31T12:17:55Z</time>
      </trkpt>
      <trkpt lat="48.47972" lon="7.05809">
        <ele>670.54</ele>
        <time>2016-07-31T12:17:57Z</time>
      </trkpt>
      <trkpt lat="48.47962" lon="7.05789">
        <ele>673.36</ele>
        <time>2016-07-31T12:18:12Z</time>
      </trkpt>
      <trkpt lat="48.47957" lon="7.0578">
        <ele>674.66</ele>
        <time>2016-07-31T12:18:21Z</time>
      </trkpt>
      <trkpt lat="48.47956" lon="7.05767">
        <ele>676.25</ele>
        <time>2016-07-31T12:18:25Z</time>
      </trkpt>
      <trkpt lat="48.47954" lon="7.05763">
        <ele>676.56</ele>
        <time>2016-07-31T12:18:29Z</time>
      </trkpt>
      <trkpt lat="48.47951" lon="7.05757">
        <ele>677.81</ele>
        <time>2016-07-31T12:18:33Z</time>
      </trkpt>
      <trkpt lat="48.47941" lon="7.05739">
        <ele>679.33</ele>
        <time>2016-07-31T12:18:47Z</time>
      </trkpt>
      <trkpt lat="48.4794" lon="7.05733">
        <ele>679.18</ele>
        <time>2016-07-31T12:18:48Z</time>
      </trkpt>
      <trkpt lat="48.47935" lon="7.05705">
        <ele>682.62</ele>
        <time>2016-07-31T12:19:06Z</time>
      </trkpt>
      <trkpt lat="48.47934" lon="7.05704">
        <ele>682.33</ele>
        <time>2016-07-31T12:19:07Z</time>
      </trkpt>
      <trkpt lat="48.47971" lon="7.05699">
        <ele>683.69</ele>
        <time>2016-07-31T12:19:26Z</time>
      </trkpt>
      <trkpt lat="48.4797" lon="7.05697">
        <ele>684.91</ele>
        <time>2016-07-31T12:19:45Z</time>
      </trkpt>
      <trkpt lat="48.47967" lon="7.05692">
        <ele>684.76</ele>
        <time>2016-07-31T12:20:04Z</time>
      </trkpt>
      <trkpt lat="48.47959" lon="7.05691">
        <ele>684.74</ele>
        <time>2016-07-31T12:20:21Z</time>
      </trkpt>
      <trkpt lat="48.47961" lon="7.05682">
        <ele>685.13</ele>
        <time>2016-07-31T12:20:42Z</time>
      </trkpt>
      <trkpt lat="48.47964" lon="7.05677">
        <ele>684.95</ele>
        <time>2016-07-31T12:21:10Z</time>
      </trkpt>
      <trkpt lat="48.4796" lon="7.0568">
        <ele>685.66</ele>
        <time>2016-07-31T12:21:34Z</time>
      </trkpt>
      <trkpt lat="48.47958" lon="7.05688">
        <ele>685.2</ele>
        <time>2016-07-31T12:22:01Z</time>
      </trkpt>
      <trkpt lat="48.47957" lon="7.05683">
        <ele>685.46</ele>
        <time>2016-07-31T12:22:18Z</time>
      </trkpt>
      <trkpt lat="48.4796" lon="7.05679">
        <ele>685.34</ele>
        <time>2016-07-31T12:22:41Z</time>
      </trkpt>
      <trkpt lat="48.47959" lon="7.05674">
        <ele>687.37</ele>
        <time>2016-07-31T12:22:59Z</time>
      </trkpt>
      <trkpt lat="48.4796" lon="7.05668">
        <ele>688.68</ele>
        <time>2016-07-31T12:23:07Z</time>
      </trkpt>
      <trkpt lat="48.47963" lon="7.05665">
        <ele>687.44</ele>
        <time>2016-07-31T12:23:23Z</time>
      </trkpt>
      <trkpt lat="48.47964" lon="7.05661">
        <ele>691.2</ele>
        <time>2016-07-31T12:23:32Z</time>
      </trkpt>
      <trkpt lat="48.47963" lon="7.05662">
        <ele>690.4</ele>
        <time>2016-07-31T12:24:01Z</time>
      </trkpt>
      <trkpt lat="48.47963" lon="7.05663">
        <ele>690.64</ele>
        <time>2016-07-31T12:24:03Z</time>
      </trkpt>
      <trkpt lat="48.47961" lon="7.05664">
        <ele>689.32</ele>
        <time>2016-07-31T12:24:26Z</time>
      </trkpt>
      <trkpt lat="48.47959" lon="7.05671">
        <ele>687.57</ele>
        <time>2016-07-31T12:24:51Z</time>
      </trkpt>
      <trkpt lat="48.47956" lon="7.0568">
        <ele>686.43</ele>
        <time>2016-07-31T12:25:10Z</time>
      </trkpt>
      <trkpt lat="48.47947" lon="7.05684">
        <ele>686.48</ele>
        <time>2016-07-31T12:25:25Z</time>
      </trkpt>
      <trkpt lat="48.47935" lon="7.05697">
        <ele>686.33</ele>
        <time>2016-07-31T12:25:49Z</time>
      </trkpt>
      <trkpt lat="48.47926" lon="7.057">
        <ele>682.98</ele>
        <time>2016-07-31T12:26:09Z</time>
      </trkpt>
      <trkpt lat="48.47917" lon="7.057">
        <ele>682.57</ele>
        <time>2016-07-31T12:26:17Z</time>
      </trkpt>
      <trkpt lat="48.47901" lon="7.05706">
        <ele>681.18</ele>
        <time>2016-07-31T12:26:32Z</time>
      </trkpt>
      <trkpt lat="48.47884" lon="7.0572">
        <ele>679.7</ele>
        <time>2016-07-31T12:26:50Z</time>
      </trkpt>
      <trkpt lat="48.47871" lon="7.05729">
        <ele>678.02</ele>
        <time>2016-07-31T12:27:09Z</time>
      </trkpt>
      <trkpt lat="48.47854" lon="7.05747">
        <ele>676.83</ele>
        <time>2016-07-31T12:27:32Z</time>
      </trkpt>
      <trkpt lat="48.47841" lon="7.05758">
        <ele>674.61</ele>
        <time>2016-07-31T12:27:47Z</time>
      </trkpt>
      <trkpt lat="48.47824" lon="7.0577">
        <ele>673.45</ele>
        <time>2016-07-31T12:28:07Z</time>
      </trkpt>
      <trkpt lat="48.47809" lon="7.05782">
        <ele>672.77</ele>
        <time>2016-07-31T12:28:23Z</time>
      </trkpt>
      <trkpt lat="48.47804" lon="7.05785">
        <ele>672.06</ele>
        <time>2016-07-31T12:28:29Z</time>
      </trkpt>
      <trkpt lat="48.4779" lon="7.05799">
        <ele>670.52</ele>
        <time>2016-07-31T12:28:47Z</time>
      </trkpt>
      <trkpt lat="48.47781" lon="7.05805">
        <ele>669.89</ele>
        <time>2016-07-31T12:29:02Z</time>
      </trkpt>
      <trkpt lat="48.47776" lon="7.05814">
        <ele>669.15</ele>
        <time>2016-07-31T12:29:10Z</time>
      </trkpt>
      <trkpt lat="48.47769" lon="7.0582">
        <ele>666.37</ele>
        <time>2016-07-31T12:29:23Z</time>
      </trkpt>
      <trkpt lat="48.47764" lon="7.05824">
        <ele>665.42</ele>
        <time>2016-07-31T12:29:28Z</time>
      </trkpt>
      <trkpt lat="48.47761" lon="7.05836">
        <ele>666.85</ele>
        <time>2016-07-31T12:29:35Z</time>
      </trkpt>
      <trkpt lat="48.47754" lon="7.05854">
        <ele>667.58</ele>
        <time>2016-07-31T12:29:48Z</time>
      </trkpt>
      <trkpt lat="48.47746" lon="7.05862">
        <ele>665.58</ele>
        <time>2016-07-31T12:30:07Z</time>
      </trkpt>
      <trkpt lat="48.47737" lon="7.05876">
        <ele>663.4</ele>
        <time>2016-07-31T12:30:27Z</time>
      </trkpt>
      <trkpt lat="48.47729" lon="7.05891">
        <ele>662.96</ele>
        <time>2016-07-31T12:30:41Z</time>
      </trkpt>
      <trkpt lat="48.47714" lon="7.05918">
        <ele>660.92</ele>
        <time>2016-07-31T12:31:04Z</time>
      </trkpt>
      <trkpt lat="48.47705" lon="7.05938">
        <ele>659.57</ele>
        <time>2016-07-31T12:31:20Z</time>
      </trkpt>
      <trkpt lat="48.47698" lon="7.05952">
        <ele>658.61</ele>
        <time>2016-07-31T12:31:32Z</time>
      </trkpt>
      <trkpt lat="48.47687" lon="7.05987">
        <ele>656.73</ele>
        <time>2016-07-31T12:31:56Z</time>
      </trkpt>
      <trkpt lat="48.47674" lon="7.06009">
        <ele>656.08</ele>
        <time>2016-07-31T12:32:16Z</time>
      </trkpt>
      <trkpt lat="48.47662" lon="7.06029">
        <ele>654.85</ele>
        <time>2016-07-31T12:32:32Z</time>
      </trkpt>
      <trkpt lat="48.4766" lon="7.06032">
        <ele>655.04</ele>
        <time>2016-07-31T12:32:35Z</time>
      </trkpt>
      <trkpt lat="48.47653" lon="7.06042">
        <ele>654.31</ele>
        <time>2016-07-31T12:32:49Z</time>
      </trkpt>
      <trkpt lat="48.47647" lon="7.06051">
        <ele>652.83</ele>
        <time>2016-07-31T12:32:58Z</time>
      </trkpt>
      <trkpt lat="48.47632" lon="7.06069">
        <ele>651.46</ele>
        <time>2016-07-31T12:33:16Z</time>
      </trkpt>
      <trkpt lat="48.47627" lon="7.06072">
        <ele>650.99</ele>
        <time>2016-07-31T12:33:32Z</time>
      </trkpt>
      <trkpt lat="48.47635" lon="7.06053">
        <ele>647.8</ele>
        <time>2016-07-31T12:33:57Z</time>
      </trkpt>
      <trkpt lat="48.47643" lon="7.06038">
        <ele>646.68</ele>
        <time>2016-07-31T12:34:16Z</time>
      </trkpt>
      <trkpt lat="48.4765" lon="7.06013">
        <ele>644.34</ele>
        <time>2016-07-31T12:34:37Z</time>
      </trkpt>
      <trkpt lat="48.4766" lon="7.05988">
        <ele>641.79</ele>
        <time>2016-07-31T12:34:59Z</time>
      </trkpt>
      <trkpt lat="48.47662" lon="7.05964">
        <ele>638.66</ele>
        <time>2016-07-31T12:35:18Z</time>
      </trkpt>
      <trkpt lat="48.47663" lon="7.05963">
        <ele>639.41</ele>
        <time>2016-07-31T12:35:20Z</time>
      </trkpt>
      <trkpt lat="48.47666" lon="7.05931">
        <ele>637.52</ele>
        <time>2016-07-31T12:35:41Z</time>
      </trkpt>
      <trkpt lat="48.47671" lon="7.05904">
        <ele>634.17</ele>
        <time>2016-07-31T12:36:03Z</time>
      </trkpt>
      <trkpt lat="48.47678" lon="7.05875">
        <ele>632.22</ele>
        <time>2016-07-31T12:36:25Z</time>
      </trkpt>
      <trkpt lat="48.47687" lon="7.05846">
        <ele>630.28</ele>
        <time>2016-07-31T12:36:48Z</time>
      </trkpt>
      <trkpt lat="48.47687" lon="7.05839">
        <ele>628.72</ele>
        <time>2016-07-31T12:36:56Z</time>
      </trkpt>
      <trkpt lat="48.47693" lon="7.0582">
        <ele>627.49</ele>
        <time>2016-07-31T12:37:10Z</time>
      </trkpt>
      <trkpt lat="48.47699" lon="7.05803">
        <ele>626.69</ele>
        <time>2016-07-31T12:37:30Z</time>
      </trkpt>
      <trkpt lat="48.47704" lon="7.05784">
        <ele>625.75</ele>
        <time>2016-07-31T12:37:49Z</time>
      </trkpt>
      <trkpt lat="48.47713" lon="7.05759">
        <ele>623.49</ele>
        <time>2016-07-31T12:38:12Z</time>
      </trkpt>
      <trkpt lat="48.47721" lon="7.05734">
        <ele>621.55</ele>
        <time>2016-07-31T12:38:35Z</time>
      </trkpt>
      <trkpt lat="48.47732" lon="7.05721">
        <ele>618.79</ele>
        <time>2016-07-31T12:38:55Z</time>
      </trkpt>
      <trkpt lat="48.47736" lon="7.05708">
        <ele>617.98</ele>
        <time>2016-07-31T12:39:07Z</time>
      </trkpt>
      <trkpt lat="48.47746" lon="7.05679">
        <ele>616.04</ele>
        <time>2016-07-31T12:39:30Z</time>
      </trkpt>
      <trkpt lat="48.47761" lon="7.05661">
        <ele>613.58</ele>
        <time>2016-07-31T12:39:52Z</time>
      </trkpt>
      <trkpt lat="48.47773" lon="7.05655">
        <ele>613.24</ele>
        <time>2016-07-31T12:40:08Z</time>
      </trkpt>
      <trkpt lat="48.47779" lon="7.05645">
        <ele>612.27</ele>
        <time>2016-07-31T12:40:32Z</time>
      </trkpt>
      <trkpt lat="48.47791" lon="7.05621">
        <ele>609.69</ele>
        <time>2016-07-31T12:40:53Z</time>
      </trkpt>
      <trkpt lat="48.47795" lon="7.05606">
        <ele>608.52</ele>
        <time>2016-07-31T12:41:04Z</time>
      </trkpt>
      <trkpt lat="48.47799" lon="7.05592">
        <ele>607.66</ele>
        <time>2016-07-31T12:41:16Z</time>
      </trkpt>
      <trkpt lat="48.47795" lon="7.05581">
        <ele>606.75</ele>
        <time>2016-07-31T12:41:26Z</time>
      </trkpt>
      <trkpt lat="48.47797" lon="7.05556">
        <ele>604.87</ele>
        <time>2016-07-31T12:41:43Z</time>
      </trkpt>
      <trkpt lat="48.47805" lon="7.05542">
        <ele>604.49</ele>
        <time>2016-07-31T12:42:00Z</time>
      </trkpt>
      <trkpt lat="48.47805" lon="7.05541">
        <ele>604.72</ele>
        <time>2016-07-31T12:42:01Z</time>
      </trkpt>
      <trkpt lat="48.47805" lon="7.05538">
        <ele>603.19</ele>
        <time>2016-07-31T12:42:03Z</time>
      </trkpt>
      <trkpt lat="48.47812" lon="7.05508">
        <ele>601.24</ele>
        <time>2016-07-31T12:42:26Z</time>
      </trkpt>
      <trkpt lat="48.47816" lon="7.0548">
        <ele>599.36</ele>
        <time>2016-07-31T12:42:46Z</time>
      </trkpt>
      <trkpt lat="48.47815" lon="7.05474">
        <ele>599.17</ele>
        <time>2016-07-31T12:42:49Z</time>
      </trkpt>
      <trkpt lat="48.47821" lon="7.05445">
        <ele>596.79</ele>
        <time>2016-07-31T12:43:11Z</time>
      </trkpt>
      <trkpt lat="48.47823" lon="7.05417">
        <ele>595.09</ele>
        <time>2016-07-31T12:43:31Z</time>
      </trkpt>
      <trkpt lat="48.47825" lon="7.05399">
        <ele>593.4</ele>
        <time>2016-07-31T12:43:45Z</time>
      </trkpt>
      <trkpt lat="48.47836" lon="7.05367">
        <ele>591.03</ele>
        <time>2016-07-31T12:44:09Z</time>
      </trkpt>
      <trkpt lat="48.47842" lon="7.05354">
        <ele>588.82</ele>
        <time>2016-07-31T12:44:26Z</time>
      </trkpt>
      <trkpt lat="48.47849" lon="7.05341">
        <ele>590.05</ele>
        <time>2016-07-31T12:44:35Z</time>
      </trkpt>
      <trkpt lat="48.47856" lon="7.05331">
        <ele>590.54</ele>
        <time>2016-07-31T12:44:55Z</time>
      </trkpt>
      <trkpt lat="48.47854" lon="7.05333">
        <ele>590.93</ele>
        <time>2016-07-31T12:45:17Z</time>
      </trkpt>
      <trkpt lat="48.47851" lon="7.05333">
        <ele>591.1</ele>
        <time>2016-07-31T12:45:40Z</time>
      </trkpt>
      <trkpt lat="48.47857" lon="7.05333">
        <ele>590.93</ele>
        <time>2016-07-31T12:46:05Z</time>
      </trkpt>
      <trkpt lat="48.47864" lon="7.05323">
        <ele>591.56</ele>
        <time>2016-07-31T12:46:24Z</time>
      </trkpt>
      <trkpt lat="48.47872" lon="7.05321">
        <ele>592.54</ele>
        <time>2016-07-31T12:46:45Z</time>
      </trkpt>
      <trkpt lat="48.47866" lon="7.05327">
        <ele>592.12</ele>
        <time>2016-07-31T12:47:03Z</time>
      </trkpt>
      <trkpt lat="48.47859" lon="7.05332">
        <ele>590.9</ele>
        <time>2016-07-31T12:47:22Z</time>
      </trkpt>
      <trkpt lat="48.47858" lon="7.05332">
        <ele>590.89</ele>
        <time>2016-07-31T12:47:47Z</time>
      </trkpt>
      <trkpt lat="48.47858" lon="7.05333">
        <ele>590.67</ele>
        <time>2016-07-31T12:48:12Z</time>
      </trkpt>
      <trkpt lat="48.47858" lon="7.05331">
        <ele>588.39</ele>
        <time>2016-07-31T12:48:32Z</time>
      </trkpt>
      <trkpt lat="48.47858" lon="7.05331">
        <ele>593.65</ele>
        <time>2016-07-31T12:48:33Z</time>
      </trkpt>
      <trkpt lat="48.47858" lon="7.05332">
        <ele>590.67</ele>
        <time>2016-07-31T12:48:34Z</time>
      </trkpt>
      <trkpt lat="48.47855" lon="7.05328">
        <ele>588.71</ele>
        <time>2016-07-31T12:48:52Z</time>
      </trkpt>
      <trkpt lat="48.47857" lon="7.05308">
        <ele>585.63</ele>
        <time>2016-07-31T12:49:09Z</time>
      </trkpt>
      <trkpt lat="48.47866" lon="7.05286">
        <ele>584.23</ele>
        <time>2016-07-31T12:49:30Z</time>
      </trkpt>
      <trkpt lat="48.47874" lon="7.0527">
        <ele>581.2</ele>
        <time>2016-07-31T12:49:50Z</time>
      </trkpt>
      <trkpt lat="48.47884" lon="7.05247">
        <ele>580.23</ele>
        <time>2016-07-31T12:50:09Z</time>
      </trkpt>
      <trkpt lat="48.47899" lon="7.05223">
        <ele>578.33</ele>
        <time>2016-07-31T12:50:31Z</time>
      </trkpt>
      <trkpt lat="48.47911" lon="7.05205">
        <ele>576.33</ele>
        <time>2016-07-31T12:50:50Z</time>
      </trkpt>
      <trkpt lat="48.47924" lon="7.05185">
        <ele>574.57</ele>
        <time>2016-07-31T12:51:09Z</time>
      </trkpt>
      <trkpt lat="48.47935" lon="7.05167">
        <ele>572.43</ele>
        <time>2016-07-31T12:51:28Z</time>
      </trkpt>
      <trkpt lat="48.47955" lon="7.0515">
        <ele>570.76</ele>
        <time>2016-07-31T12:51:48Z</time>
      </trkpt>
      <trkpt lat="48.47968" lon="7.05124">
        <ele>570.11</ele>
        <time>2016-07-31T12:52:07Z</time>
      </trkpt>
      <trkpt lat="48.4797" lon="7.05119">
        <ele>568.25</ele>
        <time>2016-07-31T12:52:10Z</time>
      </trkpt>
      <trkpt lat="48.47983" lon="7.05107">
        <ele>566.5</ele>
        <time>2016-07-31T12:52:28Z</time>
      </trkpt>
      <trkpt lat="48.47997" lon="7.05104">
        <ele>564.04</ele>
        <time>2016-07-31T12:52:45Z</time>
      </trkpt>
      <trkpt lat="48.48015" lon="7.05092">
        <ele>561.64</ele>
        <time>2016-07-31T12:53:06Z</time>
      </trkpt>
      <trkpt lat="48.48027" lon="7.05077">
        <ele>559.73</ele>
        <time>2016-07-31T12:53:24Z</time>
      </trkpt>
      <trkpt lat="48.48035" lon="7.05059">
        <ele>558.26</ele>
        <time>2016-07-31T12:53:39Z</time>
      </trkpt>
      <trkpt lat="48.48053" lon="7.0503">
        <ele>555.86</ele>
        <time>2016-07-31T12:54:06Z</time>
      </trkpt>
      <trkpt lat="48.4806" lon="7.05007">
        <ele>552.74</ele>
        <time>2016-07-31T12:54:24Z</time>
      </trkpt>
      <trkpt lat="48.48069" lon="7.04995">
        <ele>552.01</ele>
        <time>2016-07-31T12:54:37Z</time>
      </trkpt>
      <trkpt lat="48.48089" lon="7.04975">
        <ele>549.35</ele>
        <time>2016-07-31T12:54:59Z</time>
      </trkpt>
      <trkpt lat="48.48089" lon="7.04974">
        <ele>549.23</ele>
        <time>2016-07-31T12:55:00Z</time>
      </trkpt>
      <trkpt lat="48.48093" lon="7.0497">
        <ele>548.85</ele>
        <time>2016-07-31T12:55:05Z</time>
      </trkpt>
      <trkpt lat="48.48109" lon="7.0495">
        <ele>546.35</ele>
        <time>2016-07-31T12:55:29Z</time>
      </trkpt>
      <trkpt lat="48.48125" lon="7.04935">
        <ele>543.14</ele>
        <time>2016-07-31T12:55:47Z</time>
      </trkpt>
      <trkpt lat="48.48139" lon="7.04928">
        <ele>542.64</ele>
        <time>2016-07-31T12:56:00Z</time>
      </trkpt>
      <trkpt lat="48.48161" lon="7.04914">
        <ele>539.66</ele>
        <time>2016-07-31T12:56:23Z</time>
      </trkpt>
      <trkpt lat="48.48174" lon="7.04899">
        <ele>537.55</ele>
        <time>2016-07-31T12:56:43Z</time>
      </trkpt>
      <trkpt lat="48.48192" lon="7.04883">
        <ele>534.6</ele>
        <time>2016-07-31T12:57:06Z</time>
      </trkpt>
      <trkpt lat="48.48215" lon="7.04874">
        <ele>531.89</ele>
        <time>2016-07-31T12:57:28Z</time>
      </trkpt>
      <trkpt lat="48.48217" lon="7.04872">
        <ele>531.49</ele>
        <time>2016-07-31T12:57:32Z</time>
      </trkpt>
      <trkpt lat="48.48234" lon="7.04862">
        <ele>529.1</ele>
        <time>2016-07-31T12:57:53Z</time>
      </trkpt>
      <trkpt lat="48.48248" lon="7.04852">
        <ele>528.53</ele>
        <time>2016-07-31T12:58:05Z</time>
      </trkpt>
      <trkpt lat="48.48256" lon="7.04842">
        <ele>526.79</ele>
        <time>2016-07-31T12:58:20Z</time>
      </trkpt>
      <trkpt lat="48.48277" lon="7.04831">
        <ele>523.73</ele>
        <time>2016-07-31T12:58:43Z</time>
      </trkpt>
      <trkpt lat="48.4828" lon="7.04829">
        <ele>523.06</ele>
        <time>2016-07-31T12:58:48Z</time>
      </trkpt>
      <trkpt lat="48.48301" lon="7.04824">
        <ele>516.49</ele>
        <time>2016-07-31T12:59:10Z</time>
      </trkpt>
      <trkpt lat="48.48302" lon="7.04824">
        <ele>523.46</ele>
        <time>2016-07-31T12:59:11Z</time>
      </trkpt>
      <trkpt lat="48.4831" lon="7.0482">
        <ele>520.26</ele>
        <time>2016-07-31T12:59:17Z</time>
      </trkpt>
      <trkpt lat="48.48332" lon="7.0481">
        <ele>517.42</ele>
        <time>2016-07-31T12:59:40Z</time>
      </trkpt>
      <trkpt lat="48.48337" lon="7.04807">
        <ele>517.35</ele>
        <time>2016-07-31T12:59:47Z</time>
      </trkpt>
      <trkpt lat="48.48357" lon="7.04807">
        <ele>515.21</ele>
        <time>2016-07-31T13:00:09Z</time>
      </trkpt>
      <trkpt lat="48.48361" lon="7.04806">
        <ele>515.23</ele>
        <time>2016-07-31T13:00:15Z</time>
      </trkpt>
      <trkpt lat="48.48371" lon="7.04804">
        <ele>513.39</ele>
        <time>2016-07-31T13:00:32Z</time>
      </trkpt>
      <trkpt lat="48.48381" lon="7.04805">
        <ele>512.51</ele>
        <time>2016-07-31T13:00:44Z</time>
      </trkpt>
      <trkpt lat="48.48392" lon="7.04809">
        <ele>511.12</ele>
        <time>2016-07-31T13:00:57Z</time>
      </trkpt>
      <trkpt lat="48.4841" lon="7.04807">
        <ele>509.34</ele>
        <time>2016-07-31T13:01:17Z</time>
      </trkpt>
      <trkpt lat="48.48428" lon="7.04809">
        <ele>507.68</ele>
        <time>2016-07-31T13:01:37Z</time>
      </trkpt>
      <trkpt lat="48.48444" lon="7.04814">
        <ele>505.32</ele>
        <time>2016-07-31T13:01:56Z</time>
      </trkpt>
      <trkpt lat="48.48463" lon="7.04816">
        <ele>503.42</ele>
        <time>2016-07-31T13:02:16Z</time>
      </trkpt>
      <trkpt lat="48.48472" lon="7.04815">
        <ele>503</ele>
        <time>2016-07-31T13:02:26Z</time>
      </trkpt>
      <trkpt lat="48.48492" lon="7.04822">
        <ele>500.11</ele>
        <time>2016-07-31T13:02:50Z</time>
      </trkpt>
      <trkpt lat="48.48518" lon="7.04832">
        <ele>497.92</ele>
        <time>2016-07-31T13:03:14Z</time>
      </trkpt>
      <trkpt lat="48.48519" lon="7.04834">
        <ele>497.07</ele>
        <time>2016-07-31T13:03:19Z</time>
      </trkpt>
      <trkpt lat="48.48539" lon="7.04838">
        <ele>494.68</ele>
        <time>2016-07-31T13:03:42Z</time>
      </trkpt>
      <trkpt lat="48.48558" lon="7.04848">
        <ele>492.46</ele>
        <time>2016-07-31T13:04:03Z</time>
      </trkpt>
      <trkpt lat="48.48571" lon="7.04856">
        <ele>490.91</ele>
        <time>2016-07-31T13:04:16Z</time>
      </trkpt>
      <trkpt lat="48.48586" lon="7.04875">
        <ele>489.35</ele>
        <time>2016-07-31T13:04:38Z</time>
      </trkpt>
      <trkpt lat="48.48604" lon="7.04889">
        <ele>486.87</ele>
        <time>2016-07-31T13:04:58Z</time>
      </trkpt>
      <trkpt lat="48.48619" lon="7.04906">
        <ele>484.57</ele>
        <time>2016-07-31T13:05:19Z</time>
      </trkpt>
      <trkpt lat="48.48636" lon="7.04924">
        <ele>482.25</ele>
        <time>2016-07-31T13:05:42Z</time>
      </trkpt>
      <trkpt lat="48.48648" lon="7.04945">
        <ele>478.94</ele>
        <time>2016-07-31T13:06:04Z</time>
      </trkpt>
      <trkpt lat="48.48656" lon="7.04968">
        <ele>476.25</ele>
        <time>2016-07-31T13:06:26Z</time>
      </trkpt>
      <trkpt lat="48.48666" lon="7.04977">
        <ele>475.37</ele>
        <time>2016-07-31T13:06:40Z</time>
      </trkpt>
      <trkpt lat="48.48682" lon="7.04997">
        <ele>472.51</ele>
        <time>2016-07-31T13:07:02Z</time>
      </trkpt>
      <trkpt lat="48.48685" lon="7.05004">
        <ele>472.27</ele>
        <time>2016-07-31T13:07:10Z</time>
      </trkpt>
      <trkpt lat="48.48699" lon="7.05021">
        <ele>470.02</ele>
        <time>2016-07-31T13:07:29Z</time>
      </trkpt>
      <trkpt lat="48.48706" lon="7.05026">
        <ele>469.15</ele>
        <time>2016-07-31T13:07:38Z</time>
      </trkpt>
      <trkpt lat="48.48717" lon="7.05049">
        <ele>466.17</ele>
        <time>2016-07-31T13:07:55Z</time>
      </trkpt>
      <trkpt lat="48.48731" lon="7.05067">
        <ele>464.15</ele>
        <time>2016-07-31T13:08:12Z</time>
      </trkpt>
      <trkpt lat="48.48735" lon="7.05086">
        <ele>462</ele>
        <time>2016-07-31T13:08:29Z</time>
      </trkpt>
      <trkpt lat="48.48736" lon="7.05087">
        <ele>461.67</ele>
        <time>2016-07-31T13:08:32Z</time>
      </trkpt>
      <trkpt lat="48.48739" lon="7.051">
        <ele>460.31</ele>
        <time>2016-07-31T13:08:44Z</time>
      </trkpt>
      <trkpt lat="48.48748" lon="7.05118">
        <ele>458.62</ele>
        <time>2016-07-31T13:08:56Z</time>
      </trkpt>
      <trkpt lat="48.48756" lon="7.05127">
        <ele>457.1</ele>
        <time>2016-07-31T13:09:09Z</time>
      </trkpt>
      <trkpt lat="48.48758" lon="7.05133">
        <ele>455.86</ele>
        <time>2016-07-31T13:09:16Z</time>
      </trkpt>
      <trkpt lat="48.4876" lon="7.05147">
        <ele>455.09</ele>
        <time>2016-07-31T13:09:24Z</time>
      </trkpt>
      <trkpt lat="48.4876" lon="7.05161">
        <ele>455.5</ele>
        <time>2016-07-31T13:09:51Z</time>
      </trkpt>
      <trkpt lat="48.48764" lon="7.0516">
        <ele>456.57</ele>
        <time>2016-07-31T13:10:12Z</time>
      </trkpt>
      <trkpt lat="48.48761" lon="7.05161">
        <ele>455.67</ele>
        <time>2016-07-31T13:10:43Z</time>
      </trkpt>
      <trkpt lat="48.4876" lon="7.05161">
        <ele>455.02</ele>
        <time>2016-07-31T13:11:01Z</time>
      </trkpt>
      <trkpt lat="48.48761" lon="7.0516">
        <ele>455.19</ele>
        <time>2016-07-31T13:11:28Z</time>
      </trkpt>
      <trkpt lat="48.48763" lon="7.0516">
        <ele>454.91</ele>
        <time>2016-07-31T13:11:34Z</time>
      </trkpt>
      <trkpt lat="48.48761" lon="7.05162">
        <ele>455.68</ele>
        <time>2016-07-31T13:11:54Z</time>
      </trkpt>
      <trkpt lat="48.48761" lon="7.05161">
        <ele>455.45</ele>
        <time>2016-07-31T13:12:11Z</time>
      </trkpt>
      <trkpt lat="48.48761" lon="7.0516">
        <ele>455.37</ele>
        <time>2016-07-31T13:12:51Z</time>
      </trkpt>
      <trkpt lat="48.48761" lon="7.0516">
        <ele>455.9</ele>
        <time>2016-07-31T13:13:04Z</time>
      </trkpt>
      <trkpt lat="48.4876" lon="7.0516">
        <ele>455.73</ele>
        <time>2016-07-31T13:13:20Z</time>
      </trkpt>
      <trkpt lat="48.48762" lon="7.05161">
        <ele>455.65</ele>
        <time>2016-07-31T13:13:47Z</time>
      </trkpt>
      <trkpt lat="48.4876" lon="7.05161">
        <ele>455.71</ele>
        <time>2016-07-31T13:14:16Z</time>
      </trkpt>
      <trkpt lat="48.48756" lon="7.05167">
        <ele>456.65</ele>
        <time>2016-07-31T13:14:30Z</time>
      </trkpt>
      <trkpt lat="48.48756" lon="7.05167">
        <ele>455.42</ele>
        <time>2016-07-31T13:14:31Z</time>
      </trkpt>
      <trkpt lat="48.48753" lon="7.05177">
        <ele>457.01</ele>
        <time>2016-07-31T13:14:47Z</time>
      </trkpt>
      <trkpt lat="48.48755" lon="7.05193">
        <ele>454.33</ele>
        <time>2016-07-31T13:15:06Z</time>
      </trkpt>
      <trkpt lat="48.48752" lon="7.05209">
        <ele>452.17</ele>
        <time>2016-07-31T13:15:23Z</time>
      </trkpt>
      <trkpt lat="48.48752" lon="7.0521">
        <ele>452.11</ele>
        <time>2016-07-31T13:15:24Z</time>
      </trkpt>
      <trkpt lat="48.48758" lon="7.05234">
        <ele>450.02</ele>
        <time>2016-07-31T13:15:41Z</time>
      </trkpt>
      <trkpt lat="48.48756" lon="7.05252">
        <ele>448.1</ele>
        <time>2016-07-31T13:15:55Z</time>
      </trkpt>
      <trkpt lat="48.4876" lon="7.05249">
        <ele>444.79</ele>
        <time>2016-07-31T13:16:10Z</time>
      </trkpt>
      <trkpt lat="48.48769" lon="7.05229">
        <ele>442.65</ele>
        <time>2016-07-31T13:16:30Z</time>
      </trkpt>
      <trkpt lat="48.48777" lon="7.05211">
        <ele>441.09</ele>
        <time>2016-07-31T13:16:48Z</time>
      </trkpt>
      <trkpt lat="48.48782" lon="7.0521">
        <ele>441.09</ele>
        <time>2016-07-31T13:16:52Z</time>
      </trkpt>
      <trkpt lat="48.48805" lon="7.05188">
        <ele>440.44</ele>
        <time>2016-07-31T13:17:17Z</time>
      </trkpt>
      <trkpt lat="48.48808" lon="7.05184">
        <ele>440.41</ele>
        <time>2016-07-31T13:17:21Z</time>
      </trkpt>
      <trkpt lat="48.48816" lon="7.0517">
        <ele>438.83</ele>
        <time>2016-07-31T13:17:33Z</time>
      </trkpt>
      <trkpt lat="48.48824" lon="7.05158">
        <ele>436.66</ele>
        <time>2016-07-31T13:17:47Z</time>
      </trkpt>
      <trkpt lat="48.48834" lon="7.05147">
        <ele>433.58</ele>
        <time>2016-07-31T13:18:03Z</time>
      </trkpt>
      <trkpt lat="48.48847" lon="7.05136">
        <ele>430.45</ele>
        <time>2016-07-31T13:18:17Z</time>
      </trkpt>
      <trkpt lat="48.48861" lon="7.05125">
        <ele>427.49</ele>
        <time>2016-07-31T13:18:36Z</time>
      </trkpt>
      <trkpt lat="48.48866" lon="7.05115">
        <ele>426.07</ele>
        <time>2016-07-31T13:18:47Z</time>
      </trkpt>
      <trkpt lat="48.48875" lon="7.051">
        <ele>424.29</ele>
        <time>2016-07-31T13:19:02Z</time>
      </trkpt>
      <trkpt lat="48.48882" lon="7.05089">
        <ele>422.97</ele>
        <time>2016-07-31T13:19:10Z</time>
      </trkpt>
      <trkpt lat="48.48884" lon="7.05086">
        <ele>422.78</ele>
        <time>2016-07-31T13:19:12Z</time>
      </trkpt>
      <trkpt lat="48.4889" lon="7.05069">
        <ele>420.87</ele>
        <time>2016-07-31T13:19:24Z</time>
      </trkpt>
      <trkpt lat="48.48902" lon="7.05049">
        <ele>418.46</ele>
        <time>2016-07-31T13:19:43Z</time>
      </trkpt>
      <trkpt lat="48.48908" lon="7.05027">
        <ele>416.2</ele>
        <time>2016-07-31T13:19:58Z</time>
      </trkpt>
      <trkpt lat="48.48923" lon="7.05002">
        <ele>413.84</ele>
        <time>2016-07-31T13:20:18Z</time>
      </trkpt>
      <trkpt lat="48.48934" lon="7.04984">
        <ele>411.71</ele>
        <time>2016-07-31T13:20:34Z</time>
      </trkpt>
      <trkpt lat="48.48946" lon="7.0497">
        <ele>410.4</ele>
        <time>2016-07-31T13:20:48Z</time>
      </trkpt>
      <trkpt lat="48.48961" lon="7.04955">
        <ele>408.75</ele>
        <time>2016-07-31T13:21:05Z</time>
      </trkpt>
      <trkpt lat="48.48971" lon="7.04943">
        <ele>407.19</ele>
        <time>2016-07-31T13:21:19Z</time>
      </trkpt>
      <trkpt lat="48.48974" lon="7.04929">
        <ele>406.44</ele>
        <time>2016-07-31T13:21:29Z</time>
      </trkpt>
      <trkpt lat="48.48979" lon="7.04905">
        <ele>406.06</ele>
        <time>2016-07-31T13:21:44Z</time>
      </trkpt>
      <trkpt lat="48.48982" lon="7.04883">
        <ele>405.22</ele>
        <time>2016-07-31T13:21:58Z</time>
      </trkpt>
      <trkpt lat="48.48989" lon="7.0486">
        <ele>404.6</ele>
        <time>2016-07-31T13:22:13Z</time>
      </trkpt>
      <trkpt lat="48.48995" lon="7.04846">
        <ele>404.2</ele>
        <time>2016-07-31T13:22:23Z</time>
      </trkpt>
      <trkpt lat="48.48996" lon="7.04838">
        <ele>403.56</ele>
        <time>2016-07-31T13:22:28Z</time>
      </trkpt>
      <trkpt lat="48.49004" lon="7.0482">
        <ele>403.46</ele>
        <time>2016-07-31T13:22:40Z</time>
      </trkpt>
      <trkpt lat="48.49013" lon="7.04803">
        <ele>402.64</ele>
        <time>2016-07-31T13:22:53Z</time>
      </trkpt>
      <trkpt lat="48.49019" lon="7.04787">
        <ele>401.74</ele>
        <time>2016-07-31T13:23:05Z</time>
      </trkpt>
      <trkpt lat="48.49024" lon="7.04772">
        <ele>401.41</ele>
        <time>2016-07-31T13:23:16Z</time>
      </trkpt>
      <trkpt lat="48.49025" lon="7.04766">
        <ele>400.92</ele>
        <time>2016-07-31T13:23:21Z</time>
      </trkpt>
      <trkpt lat="48.49036" lon="7.04746">
        <ele>400.28</ele>
        <time>2016-07-31T13:23:37Z</time>
      </trkpt>
      <trkpt lat="48.49051" lon="7.04726">
        <ele>398.17</ele>
        <time>2016-07-31T13:23:56Z</time>
      </trkpt>
      <trkpt lat="48.49068" lon="7.04717">
        <ele>395.74</ele>
        <time>2016-07-31T13:24:17Z</time>
      </trkpt>
      <trkpt lat="48.4908" lon="7.04708">
        <ele>394.45</ele>
        <time>2016-07-31T13:24:30Z</time>
      </trkpt>
      <trkpt lat="48.49096" lon="7.0469">
        <ele>392.32</ele>
        <time>2016-07-31T13:24:52Z</time>
      </trkpt>
      <trkpt lat="48.49108" lon="7.0468">
        <ele>390.25</ele>
        <time>2016-07-31T13:25:07Z</time>
      </trkpt>
      <trkpt lat="48.49113" lon="7.04673">
        <ele>389.48</ele>
        <time>2016-07-31T13:25:16Z</time>
      </trkpt>
      <trkpt lat="48.49117" lon="7.0467">
        <ele>388.73</ele>
        <time>2016-07-31T13:25:21Z</time>
      </trkpt>
      <trkpt lat="48.49134" lon="7.04667">
        <ele>387.81</ele>
        <time>2016-07-31T13:25:37Z</time>
      </trkpt>
      <trkpt lat="48.49148" lon="7.0467">
        <ele>385.95</ele>
        <time>2016-07-31T13:25:50Z</time>
      </trkpt>
      <trkpt lat="48.49165" lon="7.04672">
        <ele>384.64</ele>
        <time>2016-07-31T13:26:04Z</time>
      </trkpt>
      <trkpt lat="48.49182" lon="7.04671">
        <ele>382.7</ele>
        <time>2016-07-31T13:26:18Z</time>
      </trkpt>
      <trkpt lat="48.49196" lon="7.04673">
        <ele>381.4</ele>
        <time>2016-07-31T13:26:33Z</time>
      </trkpt>
      <trkpt lat="48.49207" lon="7.04671">
        <ele>380.34</ele>
        <time>2016-07-31T13:26:44Z</time>
      </trkpt>
      <trkpt lat="48.49213" lon="7.04665">
        <ele>380</ele>
        <time>2016-07-31T13:26:50Z</time>
      </trkpt>
      <trkpt lat="48.49219" lon="7.04657">
        <ele>378.92</ele>
        <time>2016-07-31T13:26:57Z</time>
      </trkpt>
      <trkpt lat="48.49227" lon="7.0464">
        <ele>377.81</ele>
        <time>2016-07-31T13:27:10Z</time>
      </trkpt>
      <trkpt lat="48.4923" lon="7.04631">
        <ele>377.43</ele>
        <time>2016-07-31T13:27:26Z</time>
      </trkpt>
      <trkpt lat="48.49234" lon="7.04617">
        <ele>376.18</ele>
        <time>2016-07-31T13:27:39Z</time>
      </trkpt>
      <trkpt lat="48.49235" lon="7.04614">
        <ele>375.37</ele>
        <time>2016-07-31T13:27:41Z</time>
      </trkpt>
      <trkpt lat="48.49246" lon="7.04593">
        <ele>374.26</ele>
        <time>2016-07-31T13:27:59Z</time>
      </trkpt>
      <trkpt lat="48.49256" lon="7.0458">
        <ele>373.87</ele>
        <time>2016-07-31T13:28:14Z</time>
      </trkpt>
      <trkpt lat="48.49259" lon="7.04576">
        <ele>373.13</ele>
        <time>2016-07-31T13:28:18Z</time>
      </trkpt>
      <trkpt lat="48.4927" lon="7.04564">
        <ele>373.53</ele>
        <time>2016-07-31T13:28:31Z</time>
      </trkpt>
      <trkpt lat="48.49284" lon="7.04543">
        <ele>372.72</ele>
        <time>2016-07-31T13:28:52Z</time>
      </trkpt>
      <trkpt lat="48.49295" lon="7.04533">
        <ele>372.45</ele>
        <time>2016-07-31T13:29:05Z</time>
      </trkpt>
      <trkpt lat="48.49295" lon="7.04526">
        <ele>372.32</ele>
        <time>2016-07-31T13:29:17Z</time>
      </trkpt>
      <trkpt lat="48.4929" lon="7.04514">
        <ele>373.15</ele>
        <time>2016-07-31T13:29:34Z</time>
      </trkpt>
      <trkpt lat="48.49284" lon="7.04503">
        <ele>373.18</ele>
        <time>2016-07-31T13:29:52Z</time>
      </trkpt>
      <trkpt lat="48.4928" lon="7.04499">
        <ele>372.42</ele>
        <time>2016-07-31T13:30:12Z</time>
      </trkpt>
      <trkpt lat="48.49281" lon="7.04499">
        <ele>369.35</ele>
        <time>2016-07-31T13:30:20Z</time>
      </trkpt>
      <trkpt lat="48.49281" lon="7.045">
        <ele>377.32</ele>
        <time>2016-07-31T13:30:21Z</time>
      </trkpt>
      <trkpt lat="48.49281" lon="7.045">
        <ele>373.24</ele>
        <time>2016-07-31T13:30:22Z</time>
      </trkpt>
      <trkpt lat="48.49285" lon="7.04501">
        <ele>373.1</ele>
        <time>2016-07-31T13:30:43Z</time>
      </trkpt>
      <trkpt lat="48.49284" lon="7.04501">
        <ele>373.38</ele>
        <time>2016-07-31T13:30:45Z</time>
      </trkpt>
      <trkpt lat="48.49281" lon="7.04503">
        <ele>372.79</ele>
        <time>2016-07-31T13:30:47Z</time>
      </trkpt>
      <trkpt lat="48.49279" lon="7.04505">
        <ele>373.38</ele>
        <time>2016-07-31T13:30:49Z</time>
      </trkpt>
      <trkpt lat="48.49281" lon="7.04505">
        <ele>378.58</ele>
        <time>2016-07-31T13:30:53Z</time>
      </trkpt>
      <trkpt lat="48.49281" lon="7.04504">
        <ele>371.42</ele>
        <time>2016-07-31T13:30:54Z</time>
      </trkpt>
      <trkpt lat="48.49283" lon="7.04502">
        <ele>372.71</ele>
        <time>2016-07-31T13:31:04Z</time>
      </trkpt>
      <trkpt lat="48.49286" lon="7.04502">
        <ele>370.41</ele>
        <time>2016-07-31T13:31:09Z</time>
      </trkpt>
      <trkpt lat="48.49286" lon="7.04502">
        <ele>375.13</ele>
        <time>2016-07-31T13:31:10Z</time>
      </trkpt>
      <trkpt lat="48.49286" lon="7.04502">
        <ele>373.46</ele>
        <time>2016-07-31T13:31:11Z</time>
      </trkpt>
      <trkpt lat="48.49285" lon="7.04503">
        <ele>367.88</ele>
        <time>2016-07-31T13:31:13Z</time>
      </trkpt>
      <trkpt lat="48.49284" lon="7.04504">
        <ele>376.99</ele>
        <time>2016-07-31T13:31:14Z</time>
      </trkpt>
      <trkpt lat="48.49283" lon="7.04508">
        <ele>370.6</ele>
        <time>2016-07-31T13:31:15Z</time>
      </trkpt>
      <trkpt lat="48.49285" lon="7.04508">
        <ele>373.48</ele>
        <time>2016-07-31T13:31:16Z</time>
      </trkpt>
      <trkpt lat="48.49283" lon="7.04512">
        <ele>366.27</ele>
        <time>2016-07-31T13:31:17Z</time>
      </trkpt>
      <trkpt lat="48.49283" lon="7.04511">
        <ele>371.91</ele>
        <time>2016-07-31T13:31:18Z</time>
      </trkpt>
      <trkpt lat="48.49281" lon="7.04511">
        <ele>372.15</ele>
        <time>2016-07-31T13:31:19Z</time>
      </trkpt>
      <trkpt lat="48.49281" lon="7.04508">
        <ele>378.14</ele>
        <time>2016-07-31T13:31:23Z</time>
      </trkpt>
      <trkpt lat="48.49283" lon="7.04505">
        <ele>375.54</ele>
        <time>2016-07-31T13:31:24Z</time>
      </trkpt>
      <trkpt lat="48.49284" lon="7.04502">
        <ele>370.74</ele>
        <time>2016-07-31T13:31:26Z</time>
      </trkpt>
      <trkpt lat="48.49283" lon="7.04502">
        <ele>374.64</ele>
        <time>2016-07-31T13:31:29Z</time>
      </trkpt>
      <trkpt lat="48.49283" lon="7.04502">
        <ele>369.5</ele>
        <time>2016-07-31T13:31:30Z</time>
      </trkpt>
      <trkpt lat="48.49283" lon="7.04502">
        <ele>373.45</ele>
        <time>2016-07-31T13:31:31Z</time>
      </trkpt>
      <trkpt lat="48.49285" lon="7.045">
        <ele>373.61</ele>
        <time>2016-07-31T13:31:48Z</time>
      </trkpt>
      <trkpt lat="48.49285" lon="7.04499">
        <ele>373.61</ele>
        <time>2016-07-31T13:32:13Z</time>
      </trkpt>
      <trkpt lat="48.49286" lon="7.04498">
        <ele>374.15</ele>
        <time>2016-07-31T13:32:36Z</time>
      </trkpt>
      <trkpt lat="48.49288" lon="7.04497">
        <ele>374.36</ele>
        <time>2016-07-31T13:32:44Z</time>
      </trkpt>
      <trkpt lat="48.49289" lon="7.04496">
        <ele>373.97</ele>
        <time>2016-07-31T13:32:45Z</time>
      </trkpt>
      <trkpt lat="48.49293" lon="7.04496">
        <ele>371.87</ele>
        <time>2016-07-31T13:32:56Z</time>
      </trkpt>
      <trkpt lat="48.49293" lon="7.04496">
        <ele>378.04</ele>
        <time>2016-07-31T13:32:57Z</time>
      </trkpt>
      <trkpt lat="48.49294" lon="7.04496">
        <ele>374.35</ele>
        <time>2016-07-31T13:32:58Z</time>
      </trkpt>
      <trkpt lat="48.49286" lon="7.045">
        <ele>374.12</ele>
        <time>2016-07-31T13:33:19Z</time>
      </trkpt>
      <trkpt lat="48.49284" lon="7.04496">
        <ele>374.31</ele>
        <time>2016-07-31T13:33:42Z</time>
      </trkpt>
    </trkseg>
  </trk>
</gpx>